[[{"header":{"parameterUnit":"m.s-1","parameterCategory":1,"la1":30.6,"la2":28.766,"lo1":-90.7593,"lo2":-88.6598,"dy":0.0162,"dx":0.0183,"nx":116,"ny":114,"refTime":"2023-09-12T18:00:00:Z","depth":0,"parameterNumber":2,"parameterNumberName":"U-component_of_WINDS"},"data":[0.0,0.0,0.0,0.0,0.0,0.0,0.0,0.0,0.0,0.0,0.0,0.0,0.0,0.0,0.0,0.0,0.0,0.0,0.0,0.0,0.0,0.0,0.0,0.0,0.0,0.0,0.0,0.0,0.0,0.0,0.0,0.0,0.0,0.0,0.0,0.0,0.0,0.0,0.0,0.0,0.0,0.0,0.0,0.0,0.0,0.0,0.0,0.0,0.0,0.0,0.0,0.0,0.0,0.0,0.0,0.0,0.0,0.0,0.0,0.0,0.0,0.0,0.0,0.0,0.0,0.0,0.0,0.0,0.0,0.0,0.0,0.0,0.0,0.0,0.0,0.0,0.0,0.0,0.0,0.0,0.0,0.0,0.0,0.0,0.0,0.0,0.0,0.0,0.0,0.0,0.0,0.0,0.0,0.0,0.0,0.0,0.0,0.0,0.0,0.0,0.0,0.0,0.0,0.0,0.0,0.0,0.0,0.0,0.0,0.0,0.0,0.0,0.0,0.0,0.0,0.0,0.0,0.0,0.0,0.0,0.0,0.0,0.0,0.0,0.0,0.0,0.0,0.0,0.0,0.0,0.0,0.0,0.0,0.0,0.0,0.0,0.0,0.0,0.0,0.0,0.0,0.0,0.0,0.0,0.0,0.0,0.0,0.0,0.0,0.0,0.0,0.0,0.0,0.0,0.0,0.0,0.0,0.0,0.0,0.0,0.0,0.0,0.0,0.0,0.0,0.0,0.0,0.0,0.0,0.0,0.0,0.0,0.0,0.0,0.0,0.0,0.0,0.0,0.0,0.0,0.0,0.0,0.0,0.0,0.0,0.0,0.0,0.0,0.0,0.0,0.0,0.0,0.0,0.0,0.0,0.0,0.0,0.0,0.0,0.0,0.0,0.0,0.0,0.0,0.0,0.0,0.0,0.0,0.0,0.0,0.0,0.0,0.0,0.0,0.0,0.0,0.0,0.0,0.0,0.0,0.0,0.0,0.0,0.0,0.0,0.0,0.0,0.0,0.0,0.0,0.0,0.0,0.0,0.0,0.0,0.0,0.0,0.0,0.0,0.0,0.0,0.0,0.0,0.0,0.0,0.0,0.0,0.0,0.0,0.0,0.0,0.0,0.0,0.0,0.0,0.0,0.0,0.0,0.0,0.0,0.0,0.0,0.0,0.0,0.0,0.0,0.0,0.0,0.0,0.0,0.0,0.0,0.0,0.0,0.0,0.0,0.0,0.0,0.0,0.0,0.0,0.0,0.0,0.0,0.0,0.0,0.0,0.0,0.0,0.0,0.0,0.0,0.0,0.0,0.0,0.0,0.0,0.0,0.0,0.0,0.0,0.0,0.0,0.0,0.0,0.0,0.0,0.0,0.0,0.0,0.0,0.0,0.0,0.0,0.0,0.0,0.0,0.0,0.0,0.0,0.0,0.0,0.0,0.0,0.0,0.0,0.0,0.0,0.0,0.0,0.0,0.0,0.0,0.0,0.0,0.0,0.0,0.0,0.0,0.0,0.0,0.0,0.0,0.0,0.0,0.0,0.0,0.0,0.0,0.0,0.0,0.0,0.0,0.0,0.0,0.0,0.0,0.0,0.0,0.0,0.0,0.0,0.0,0.0,0.0,0.0,0.0,0.0,0.0,0.0,0.0,0.0,0.0,0.0,0.0,0.0,0.0,0.0,0.0,0.0,0.0,0.0,0.0,0.0,0.0,0.0,0.0,0.0,0.0,0.0,0.0,0.0,0.0,0.0,0.0,0.0,0.0,0.0,0.0,0.0,0.0,0.0,0.0,0.0,0.0,0.0,0.0,0.0,0.0,0.0,0.0,0.0,0.0,0.0,0.0,0.0,0.0,0.0,0.0,0.0,0.0,0.0,0.0,0.0,0.0,0.0,0.0,0.0,0.0,0.0,0.0,0.0,0.0,0.0,0.0,0.0,0.0,0.0,0.0,0.0,0.0,0.0,0.0,0.0,0.0,0.0,0.0,0.0,0.0,0.0,0.0,0.0,0.0,0.0,0.0,0.0,0.0,0.0,0.0,0.0,0.0,0.0,0.0,0.0,0.0,0.0,0.0,0.0,0.0,0.0,0.0,0.0,0.0,0.0,0.0,0.0,0.0,0.0,0.0,0.0,0.0,0.0,0.0,0.0,0.0,0.0,0.0,0.0,0.0,0.0,0.0,0.0,0.0,0.0,0.0,0.0,0.0,0.0,0.0,0.0,0.0,0.0,0.0,0.0,0.0,0.0,0.0,0.0,0.0,0.0,0.0,0.0,0.0,0.0,0.0,0.0,0.0,0.0,0.0,0.0,0.0,0.0,0.0,0.0,0.0,0.0,0.0,0.0,0.0,0.0,0.0,0.0,0.0,0.0,0.0,0.0,0.0,0.0,0.0,0.0,0.0,0.0,0.0,0.0,0.0,0.0,0.0,0.0,0.0,0.0,0.0,0.0,0.0,0.0,0.0,0.0,0.0,0.0,0.0,0.0,0.0,0.0,0.0,0.0,0.0,0.0,0.0,0.0,0.0,0.0,0.0,0.0,0.0,0.0,0.0,0.0,0.0,0.0,0.0,0.0,0.0,0.0,0.0,0.0,0.0,0.0,0.0,0.0,0.0,0.0,0.0,0.0,0.0,0.0,0.0,0.0,0.0,0.0,0.0,0.0,0.0,0.0,0.0,0.0,0.0,0.0,0.0,0.0,0.0,0.0,0.0,0.0,0.0,0.0,0.0,0.0,0.0,0.0,0.0,0.0,0.0,0.0,0.0,0.0,0.0,0.0,0.0,0.0,0.0,0.0,0.0,0.0,0.0,0.0,0.0,0.0,0.0,0.0,0.0,0.0,0.0,0.0,0.0,0.0,0.0,0.0,0.0,0.0,0.0,0.0,0.0,0.0,0.0,0.0,0.0,0.0,0.0,0.0,0.0,0.0,0.0,0.0,0.0,0.0,0.0,0.0,0.0,0.0,0.0,0.0,0.0,0.0,0.0,0.0,0.0,0.0,0.0,0.0,0.0,0.0,0.0,0.0,0.0,0.0,0.0,0.0,0.0,0.0,0.0,0.0,0.0,0.0,0.0,0.0,0.0,0.0,0.0,0.0,0.0,0.0,0.0,0.0,0.0,0.0,0.0,0.0,0.0,0.0,0.0,0.0,0.0,0.0,0.0,0.0,0.0,0.0,0.0,0.0,0.0,0.0,0.0,0.0,0.0,0.0,0.0,0.0,0.0,0.0,0.0,0.0,0.0,0.0,0.0,0.0,0.0,0.0,0.0,0.0,0.0,0.0,0.0,0.0,0.0,0.0,0.0,0.0,0.0,0.0,0.0,0.0,0.0,0.0,0.0,0.0,0.0,0.0,0.0,0.0,0.0,0.0,0.0,0.0,0.0,0.0,0.0,0.0,0.0,0.0,0.0,0.0,0.0,0.0,0.0,0.0,0.0,0.0,0.0,0.0,0.0,0.0,0.0,0.0,0.0,0.0,0.0,0.0,0.0,0.0,0.0,0.0,0.0,0.0,0.0,0.0,0.0,0.0,0.0,0.0,0.0,0.0,0.0,0.0,0.0,0.0,0.0,0.0,0.0,0.0,0.0,0.0,0.0,0.0,0.0,0.0,0.0,0.0,0.0,0.0,0.0,0.0,0.0,0.0,0.0,0.0,0.0,0.0,0.0,0.0,0.0,0.0,0.0,0.0,0.0,0.0,0.0,0.0,0.0,0.0,0.0,0.0,0.0,0.0,0.0,0.0,0.0,0.0,0.0,0.0,0.0,0.0,0.0,0.0,0.0,0.0,0.0,0.0,0.0,0.0,0.0,0.0,0.0,0.0,0.0,0.0,0.0,0.0,0.0,0.0,0.0,0.0,0.0,0.0,0.0,0.0,0.0,0.0,0.0,0.0,0.0,0.0,0.0,0.0,0.0,0.0,0.0,0.0,0.0,0.0,0.0,0.0,0.0,0.0,0.0,0.0,0.0,0.0,0.0,0.0,0.0,0.0,0.0,0.0,0.0,0.0,0.0,0.0,0.0,0.0,0.0,0.0,0.0,0.0,0.0,0.0,0.0,0.0,0.0,0.0,0.0,0.0,0.0,0.0,0.0,0.0,0.0,0.0,0.0,0.0,0.0,0.0,0.0,0.0,0.0,0.0,0.0,0.0,0.0,0.0,0.0,0.0,0.0,0.0,0.0,0.0,0.0,0.0,0.0,0.0,0.0,0.0,0.0,0.0,0.0,0.0,0.0,0.0,0.0,0.0,0.0,0.0,0.0,0.0,0.0,0.0,0.0,0.0,0.0,0.0,0.0,0.0,0.0,0.0,0.0,0.0,0.0,0.0,0.0,0.0,0.0,0.0,0.0,0.0,0.0,0.0,0.0,0.0,0.0,0.0,0.0,0.0,0.0,0.0,0.0,0.0,0.0,0.0,0.0,0.0,0.0,0.0,0.0,0.0,0.0,0.0,0.0,0.0,0.0,0.0,0.0,0.0,0.0,0.0,0.0,0.0,0.0,0.0,0.0,0.0,0.0,0.0,0.0,0.0,0.0,0.0,0.0,0.0,0.0,0.0,0.0,0.0,0.0,0.0,0.0,0.0,0.0,0.0,0.0,0.0,0.0,0.0,0.0,0.0,0.0,0.0,0.0,0.0,0.0,0.0,0.0,0.0,0.0,0.0,0.0,0.0,0.0,0.0,0.0,0.0,0.0,0.0,0.0,0.0,0.0,0.0,0.0,0.0,0.0,0.0,0.0,0.0,0.0,0.0,0.0,0.0,0.0,0.0,0.0,0.0,0.0,0.0,0.0,0.0,0.0,0.0,0.0,0.0,0.0,0.0,0.0,0.0,0.0,0.0,0.0,0.0,0.0,0.0,0.0,0.0,0.0,0.0,0.0,0.0,0.0,0.0,0.0,0.0,0.0,0.0,0.0,0.0,0.0,0.0,0.0,0.0,0.0,0.0,0.0,0.0,0.0,0.0,0.0,0.0,0.0,0.0,0.0,0.0,0.0,0.0,0.0,0.0,0.0,0.0,0.0,0.0,0.0,0.0,0.0,0.0,0.0,0.0,0.0,0.0,0.0,0.0,0.0,0.0,0.0,0.0,0.0,0.0,0.0,0.0,0.0,0.0,0.0,0.0,0.0,0.0,0.0,0.0,0.0,0.0,0.0,0.0,0.0,0.0,0.0,0.0,0.0,0.0,0.0,0.0,0.0,0.0,0.0,0.0,0.0,0.0,0.0,0.0,0.0,0.0,0.0,0.0,0.0,0.0,0.0,0.0,0.0,0.0,0.0,0.0,0.0,0.0,0.0,0.0,0.0,0.0,0.0,0.0,0.0,0.0,0.0,0.0,0.0,0.0,0.0,0.0,0.0,0.0,0.0,0.0,0.0,0.0,0.0,0.0,0.0,0.0,0.0,0.0,0.0,0.0,0.0,0.0,0.0,0.0,0.0,0.0,0.0,0.0,0.0,0.0,0.0,0.0,0.0,0.0,0.0,0.0,0.0,0.0,0.0,0.0,0.0,0.0,0.0,0.0,0.0,0.0,0.0,0.0,0.0,0.0,0.0,0.0,0.0,0.0,0.0,0.0,0.0,0.0,0.0,0.0,0.0,0.0,0.0,0.0,0.0,0.0,0.0,0.0,0.0,0.0,0.0,0.0,0.0,0.0,0.0,0.0,0.0,0.0,0.0,0.0,0.0,0.0,0.0,0.0,0.0,0.0,0.0,0.0,0.0,0.0,0.0,0.0,0.0,0.0,0.0,0.0,0.0,0.0,0.0,0.0,0.0,0.0,0.0,0.0,0.0,0.0,0.0,0.0,0.0,0.0,0.0,0.0,0.0,0.0,0.0,0.0,0.0,0.0,0.0,0.0,0.0,0.0,0.0,0.0,0.0,0.0,0.0,0.0,0.0,0.0,0.0,0.0,0.0,0.0,0.0,0.0,0.0,0.0,0.0,0.0,0.0,0.0,0.0,0.0,0.0,0.0,0.0,0.0,0.0,0.0,0.0,0.0,0.0,0.0,0.0,0.0,0.0,0.0,0.0,0.0,0.0,0.0,0.0,0.0,0.0,0.0,0.0,0.0,0.0,0.0,0.0,0.0,0.0,0.0,0.0,0.0,0.0,0.0,2.7474,2.6991,0.0,0.0,0.0,0.0,0.0,0.0,0.0,0.0,0.0,0.0,0.0,0.0,0.0,0.0,0.0,0.0,0.0,0.0,0.0,0.0,0.0,0.0,0.0,0.0,0.0,0.0,0.0,0.0,0.0,0.0,0.0,0.0,0.0,0.0,0.0,0.0,0.0,0.0,0.0,0.0,0.0,0.0,0.0,0.0,0.0,0.0,0.0,0.0,0.0,0.0,0.0,0.0,0.0,0.0,0.0,0.0,0.0,0.0,0.0,0.0,0.0,0.0,0.0,0.0,0.0,0.0,0.0,0.0,0.0,0.0,0.0,0.0,0.0,0.0,0.0,0.0,0.0,0.0,0.0,0.0,0.0,0.0,0.0,0.0,0.0,0.0,0.0,0.0,0.0,0.0,0.0,0.0,0.0,0.0,0.0,0.0,0.0,0.0,0.0,0.0,0.0,0.0,0.0,0.0,0.0,0.0,0.0,0.0,0.0,0.0,0.0,0.0,0.0,0.0,2.8249,2.8005,0.0,0.0,0.0,0.0,0.0,0.0,0.0,0.0,0.0,0.0,0.0,0.0,0.0,0.0,0.0,0.0,0.0,0.0,0.0,0.0,0.0,0.0,0.0,0.0,0.0,0.0,0.0,0.0,0.0,0.0,0.0,0.0,0.0,0.0,0.0,0.0,0.0,0.0,0.0,0.0,0.0,0.0,0.0,0.0,0.0,0.0,0.0,0.0,0.0,0.0,0.0,0.0,0.0,0.0,0.0,0.0,0.0,0.0,0.0,0.0,0.0,0.0,0.0,0.0,0.0,0.0,0.0,0.0,0.0,0.0,0.0,0.0,0.0,0.0,0.0,0.0,0.0,0.0,0.0,0.0,0.0,0.0,0.0,0.0,0.0,0.0,0.0,0.0,0.0,0.0,0.0,0.0,0.0,0.0,0.0,0.0,0.0,0.0,0.0,0.0,0.0,0.0,0.0,0.0,0.0,0.0,0.0,0.0,2.8858,2.881,2.8761,2.8712,2.8644,2.8644,2.8858,2.9021,2.9134,2.9185,0.0,0.0,0.0,0.0,0.0,0.0,0.0,0.0,0.0,0.0,0.0,0.0,0.0,0.0,0.0,0.0,0.0,0.0,0.0,0.0,0.0,0.0,0.0,0.0,0.0,0.0,0.0,0.0,0.0,0.0,0.0,0.0,0.0,0.0,0.0,0.0,0.0,0.0,3.0234,3.0309,3.034,3.0367,0.0,0.0,0.0,0.0,0.0,0.0,0.0,0.0,0.0,0.0,0.0,0.0,0.0,0.0,0.0,0.0,0.0,0.0,0.0,0.0,0.0,0.0,0.0,0.0,0.0,0.0,0.0,0.0,0.0,0.0,0.0,0.0,0.0,0.0,0.0,0.0,0.0,0.0,0.0,0.0,0.0,0.0,0.0,0.0,2.8957,2.8802,0.0,0.0,0.0,0.0,0.0,0.0,0.0,0.0,0.0,0.0,0.0,0.0,0.0,2.8594,2.8637,2.8662,2.8662,2.8637,2.8637,2.8637,2.8612,2.8562,2.8492,2.8432,2.8335,0.0,2.8767,2.8845,0.0,0.0,0.0,0.0,0.0,0.0,0.0,0.0,0.0,0.0,0.0,0.0,0.0,0.0,0.0,0.0,0.0,0.0,0.0,0.0,0.0,0.0,0.0,0.0,0.0,0.0,0.0,0.0,0.0,0.0,0.0,0.0,0.0,0.0,0.0,0.0,2.9861,2.9908,2.9855,2.9935,2.9969,3.0026,3.0089,3.0184,3.0328,3.026,0.0,0.0,0.0,0.0,0.0,0.0,0.0,0.0,0.0,0.0,0.0,0.0,0.0,0.0,0.0,0.0,0.0,0.0,0.0,0.0,0.0,0.0,0.0,0.0,0.0,0.0,0.0,0.0,0.0,0.0,0.0,0.0,0.0,0.0,0.0,0.0,0.0,0.0,0.0,2.9286,2.9071,2.8952,2.8858,2.8743,0.0,0.0,0.0,0.0,0.0,0.0,0.0,0.0,0.0,2.8335,2.8335,2.8327,2.8327,2.8327,2.8282,2.821,2.821,2.821,2.8192,2.8156,2.8073,2.7989,2.7893,2.7904,2.8045,2.8308,2.8496,2.8628,0.0,0.0,0.0,0.0,2.8942,2.8938,0.0,0.0,0.0,0.0,0.0,0.0,0.0,0.0,0.0,0.0,0.0,0.0,0.0,0.0,0.0,2.8626,0.0,0.0,0.0,0.0,0.0,0.0,0.0,0.0,0.0,0.0,0.0,0.0,2.9495,2.9533,2.9476,2.9514,2.9569,2.9625,2.9607,2.9763,3.0066,2.9988,2.9912,0.0,0.0,0.0,0.0,0.0,0.0,0.0,0.0,0.0,0.0,0.0,0.0,0.0,0.0,0.0,0.0,0.0,0.0,0.0,0.0,0.0,0.0,0.0,0.0,0.0,0.0,0.0,0.0,0.0,0.0,0.0,0.0,0.0,0.0,0.0,0.0,0.0,0.0,2.9108,2.8929,2.8785,2.8712,2.8662,0.0,0.0,0.0,0.0,0.0,0.0,2.8219,2.8174,2.8119,2.8035,2.823,2.8308,2.824,2.8405,2.8464,2.8352,2.8352,2.8352,2.8352,2.828,2.8237,2.8176,2.8084,2.8007,2.7973,2.7941,2.802,2.8129,2.8183,2.8219,2.8298,2.8298,2.8324,2.8368,0.0,0.0,0.0,0.0,0.0,0.0,0.0,0.0,0.0,0.0,0.0,0.0,0.0,0.0,2.8154,2.8228,2.8353,2.8432,0.0,0.0,0.0,0.0,0.0,0.0,0.0,0.0,0.0,2.9107,2.9129,2.9129,2.9129,2.9064,2.9064,2.9129,2.9064,2.9299,2.9713,2.9588,2.9456,2.9334,0.0,0.0,0.0,0.0,0.0,0.0,0.0,0.0,0.0,0.0,0.0,0.0,0.0,0.0,0.0,0.0,0.0,0.0,0.0,0.0,0.0,0.0,0.0,0.0,0.0,0.0,0.0,0.0,0.0,0.0,0.0,0.0,0.0,0.0,0.0,0.0,0.0,0.0,0.0,2.8718,2.8662,0.0,0.0,0.0,0.0,2.8327,2.8209,2.8099,2.8014,2.7893,2.7777,2.763,2.8316,2.8652,2.8589,2.9288,2.9621,2.9621,2.9621,2.9621,2.9621,2.9554,2.9521,2.9487,2.93,2.9231,2.9111,2.7976,2.7569,2.7624,2.7624,2.7683,2.7742,2.7742,2.7742,2.7742,0.0,0.0,0.0,0.0,0.0,0.0,0.0,0.0,0.0,0.0,0.0,0.0,0.0,2.76,2.7766,2.7876,2.7961,2.7989,2.7943,0.0,0.0,0.0,0.0,0.0,0.0,0.0,2.8608,2.8658,2.8682,2.8658,2.8583,2.8471,2.8453,2.8529,2.8496,2.8585,2.874,2.9049,2.9086,2.8911,2.8906,2.8819,0.0,0.0,0.0,0.0,0.0,0.0,0.0,0.0,0.0,0.0,0.0,0.0,0.0,0.0,0.0,0.0,0.0,0.0,0.0,0.0,0.0,0.0,0.0,0.0,0.0,0.0,0.0,0.0,0.0,0.0,0.0,0.0,0.0,0.0,0.0,0.0,0.0,2.8662,2.8587,0.0,2.8432,2.8273,2.8304,2.8652,2.8558,2.8654,2.9019,2.8972,2.8925,2.883,2.9089,2.9177,2.9041,2.9317,2.942,2.9386,2.9333,2.9298,2.9315,2.9193,2.9121,2.9085,2.9013,2.8977,2.8926,2.8507,2.8169,2.787,2.7405,2.7247,2.7247,2.7247,2.7293,2.7307,0.0,0.0,0.0,0.0,0.0,0.0,0.0,0.0,0.0,0.0,0.0,2.7135,2.7149,2.7355,2.7478,2.7491,2.7552,2.7535,2.7413,0.0,0.0,0.0,0.0,0.0,0.0,2.8101,2.8237,2.8219,2.8264,2.8228,2.8119,2.7971,2.7926,2.7954,2.7851,2.7823,2.7816,2.8094,2.8296,2.8402,2.835,2.8298,2.8219,0.0,0.0,0.0,0.0,0.0,0.0,0.0,0.0,0.0,0.0,0.0,0.0,0.0,0.0,0.0,0.0,0.0,0.0,0.0,0.0,0.0,0.0,0.0,0.0,0.0,0.0,0.0,0.0,0.0,0.0,0.0,0.0,0.0,0.0,2.8737,2.8687,2.8587,2.8484,2.8514,2.8631,2.8443,2.8541,2.9127,2.9007,2.9088,2.9472,2.9489,2.9438,2.9368,2.9572,2.9604,2.9515,2.9952,3.0133,3.0095,3.0212,3.0308,3.0308,2.9906,2.9711,2.9655,2.9404,2.9304,2.9287,2.9092,2.8803,2.8465,2.7843,2.7589,2.7555,2.7589,2.7658,2.7691,0.0,0.0,0.0,0.0,0.0,0.0,0.0,0.0,0.0,0.0,2.6891,2.7053,2.7053,2.7261,2.7293,2.7103,2.7149,2.7053,2.6774,2.6791,0.0,0.0,0.0,0.0,2.7465,2.763,2.7742,2.7869,2.78,2.7789,2.7789,2.7569,2.7465,2.7465,2.7198,2.7036,2.6952,2.6738,2.7078,2.7713,2.7595,2.7595,2.7672,0.0,0.0,0.0,0.0,0.0,0.0,0.0,0.0,0.0,0.0,0.0,0.0,0.0,0.0,0.0,0.0,0.0,0.0,0.0,0.0,0.0,0.0,0.0,0.0,0.0,0.0,0.0,0.0,0.0,0.0,0.0,0.0,0.0,2.8694,2.8694,2.8644,2.8528,2.8416,2.8558,2.9171,2.8925,2.899,2.9673,2.9472,2.9368,2.9384,2.9313,2.9276,2.9219,2.977,3.0065,3.0005,3.1191,3.1798,3.1798,3.2381,3.2685,3.2652,3.1775,3.1386,3.1336,3.0629,3.0316,3.0309,2.9716,2.9476,2.945,2.8963,2.8699,2.8624,2.8736,2.8774,2.8811,0.0,0.0,0.0,0.0,0.0,0.0,0.0,0.0,0.0,0.0,2.6158,2.6385,2.6385,2.6573,2.6657,2.659,2.6556,2.6436,2.621,0.0,0.0,0.0,0.0,0.0,2.7137,2.7355,2.743,2.7382,2.7352,2.7338,2.7276,2.7021,2.6891,2.6825,2.6539,2.6282,2.6125,2.5911,2.5895,2.604,2.664,2.7002,2.7213,0.0,0.0,0.0,0.0,0.0,0.0,0.0,0.0,0.0,0.0,0.0,0.0,0.0,0.0,0.0,0.0,0.0,0.0,0.0,0.0,0.0,0.0,0.0,0.0,0.0,0.0,0.0,0.0,0.0,0.0,0.0,2.8587,2.8543,2.8543,2.8543,2.8727,2.9161,2.9076,2.916,2.9726,2.951,2.9557,3.0106,3.0031,3.0377,3.1269,3.132,3.1453,3.1767,3.1926,3.1941,3.1709,3.2078,3.2142,3.1962,3.2052,3.2041,3.1898,3.158,3.1452,3.1452,3.1243,3.1255,3.1456,3.1261,3.1271,3.1132,2.9114,2.8323,2.8395,2.8323,2.8439,2.8699,0.0,0.0,0.0,0.0,0.0,0.0,0.0,0.0,0.0,0.0,2.547,2.5783,2.5799,2.6049,2.6173,2.6013,2.5941,2.5815,2.5556,0.0,0.0,0.0,0.0,2.6572,2.6742,2.694,2.7038,2.6989,2.6989,2.6956,2.6908,2.6624,2.6453,2.6227,2.5888,2.5577,2.5351,2.5098,2.4965,2.491,2.5416,2.5999,2.6505,2.6624,2.6906,2.7213,2.7413,2.763,2.7795,2.7893,0.0,0.0,0.0,0.0,0.0,0.0,0.0,0.0,0.0,0.0,0.0,0.0,0.0,0.0,0.0,0.0,0.0,0.0,0.0,0.0,0.0,0.0,0.0,0.0,2.8747,2.8883,2.8811,2.8883,2.9161,2.9779,2.9674,2.9744,3.0258,3.0041,3.0242,3.1151,3.1142,3.1495,3.2488,3.2454,3.251,3.2691,3.2545,3.2364,3.218,3.227,3.2241,3.2096,3.2203,3.2231,3.2082,3.1729,3.1517,3.1502,3.1202,3.1176,3.1388,3.1485,3.1582,3.1549,0.0,0.0,0.0,0.0,2.9378,2.9409,0.0,0.0,0.0,0.0,0.0,0.0,0.0,0.0,0.0,0.0,0.0,2.5128,2.5198,2.5535,2.561,2.5198,2.5198,2.5082,0.0,0.0,0.0,2.5589,2.5937,2.6154,2.6262,2.6418,2.6521,2.6573,2.6573,2.6539,2.6453,2.6243,2.5977,2.5668,2.5253,2.4918,2.4599,2.4287,2.4177,2.4135,2.4177,2.4784,2.5705,2.5961,2.6315,2.6741,2.6989,2.723,2.7465,2.7557,0.0,0.0,0.0,0.0,0.0,0.0,0.0,0.0,0.0,0.0,0.0,0.0,0.0,0.0,0.0,0.0,0.0,0.0,0.0,0.0,0.0,0.0,0.0,0.0,2.9024,2.943,2.9455,2.955,2.9864,3.0401,3.0223,3.0295,3.0854,3.0705,3.1134,3.2519,3.2466,3.2647,3.3218,3.3017,0.0,0.0,0.0,3.2015,3.1967,3.2146,3.2206,3.2222,3.2576,3.2734,3.268,3.1944,3.1643,3.1597,3.0926,3.0716,3.0856,3.0943,3.1095,3.1265,3.163,3.1821,3.1772,3.1388,3.0926,3.0558,0.0,0.0,0.0,0.0,0.0,0.0,0.0,0.0,0.0,2.2876,2.3507,2.3906,2.3964,2.4158,2.4184,2.3872,2.396,2.4074,0.0,0.0,2.4655,2.502,2.5253,2.546,2.5594,2.5668,2.5726,2.5726,2.5726,2.5726,2.5689,2.546,2.5176,2.491,2.4364,2.3948,2.3666,2.3421,2.3246,2.3201,2.329,2.4032,2.5098,2.5465,2.5872,2.628,2.6708,2.6973,2.7137,2.7373,2.7434,2.7496,2.76,0.0,0.0,0.0,0.0,0.0,0.0,0.0,0.0,0.0,0.0,0.0,0.0,0.0,0.0,0.0,0.0,0.0,0.0,0.0,0.0,2.8945,2.906,2.9518,3.0723,3.0738,3.0676,3.0782,3.0595,3.0919,3.2107,3.2161,3.2377,3.3177,3.3102,3.3208,3.3677,3.3419,3.3322,3.3313,3.3057,3.2783,3.2467,3.25,3.2416,3.2213,3.2281,0.0,3.2135,3.2013,3.1911,3.1896,3.1576,3.1571,3.1753,3.1769,3.1903,3.209,3.1502,3.1225,3.1191,3.1374,3.1114,3.0716,0.0,0.0,0.0,0.0,0.0,0.0,0.0,0.0,0.0,0.0,2.2225,2.2651,2.2651,2.2906,2.2922,2.2639,2.2712,0.0,0.0,2.3809,2.4162,2.467,2.4815,2.4958,2.5114,2.5137,2.5176,2.5198,2.5198,2.516,2.5044,2.4847,2.4583,2.4214,2.3736,2.3304,2.292,2.2709,2.2586,2.248,2.2678,2.3187,2.3891,2.4552,2.5121,2.5668,2.6104,2.6418,2.6674,2.6973,2.7087,2.7152,2.731,2.7355,2.7355,0.0,0.0,0.0,0.0,0.0,0.0,0.0,0.0,0.0,0.0,0.0,0.0,0.0,0.0,2.7912,2.8394,0.0,2.8682,2.9409,2.9741,3.0186,3.0854,3.1408,3.1783,3.1875,3.1709,3.2021,3.2991,3.2988,3.3211,3.3811,3.3654,3.3768,3.4209,3.3811,3.3478,3.3382,3.2996,3.2656,3.2398,3.2247,3.215,3.1996,3.1925,3.1754,3.164,3.164,3.1582,3.1409,3.1278,3.1336,3.1379,3.1567,3.1796,3.1931,3.1643,3.1446,3.1321,3.1713,3.1467,3.1038,0.0,0.0,0.0,0.0,0.0,0.0,0.0,0.0,0.0,0.0,0.0,2.1253,2.1253,2.1513,2.156,0.0,0.0,0.0,0.0,2.3172,2.3696,2.4317,2.4343,2.4451,2.4558,2.4517,2.4558,2.4664,2.4623,2.4527,2.4338,2.4184,2.3906,2.3465,2.3098,2.268,2.2282,2.2077,2.1949,2.1841,2.2137,2.2356,2.2603,2.3508,2.4271,2.5013,2.5422,2.5832,2.6225,2.6487,2.6674,2.6809,2.6973,2.7021,2.7021,2.7085,2.7021,0.0,0.0,0.0,0.0,0.0,0.0,0.0,0.0,0.0,2.7434,2.7552,2.7704,2.8032,2.8741,2.8973,2.9211,2.9861,3.0421,3.0854,3.0986,3.1935,3.273,3.3144,3.294,3.3002,3.3726,3.3668,3.3828,3.4421,3.4201,3.4173,3.4513,3.3949,3.345,3.3081,3.2578,3.2247,3.2079,3.1826,3.1727,3.1727,3.1482,3.1292,3.1234,3.1161,3.0984,3.0702,3.0642,3.0613,3.0658,3.097,3.1204,3.1364,3.1739,3.1759,3.1651,3.2128,3.188,3.1399,0.0,0.0,0.0,0.0,0.0,0.0,0.0,0.0,0.0,0.0,0.0,0.0,0.0,0.0,0.0,0.0,0.0,0.0,0.0,2.2529,2.3054,2.3681,2.3595,2.3595,2.3724,2.3623,2.3623,2.3767,2.3623,2.3537,2.3436,2.3201,2.2875,2.2452,2.2109,2.1793,2.1506,2.1361,2.1277,2.1326,2.1568,2.1746,2.1983,2.2555,2.3436,2.4467,2.5036,2.5438,2.5717,2.6068,2.6262,2.64,2.6657,2.6758,2.6758,2.6758,0.0,2.6487,2.6487,2.6624,2.6775,2.6909,2.6942,2.6942,0.0,0.0,2.7007,2.7135,2.77,2.8199,2.8451,2.8988,2.9679,3.0404,3.054,3.0982,3.2205,3.2446,3.2978,3.4185,3.3719,3.3618,3.4346,3.4267,3.441,3.4951,3.4767,3.4366,3.3848,3.3503,3.3027,3.2358,3.215,3.1868,3.1582,3.1409,3.1351,3.1351,3.1058,3.0881,3.0821,3.0568,3.0372,3.0326,3.0068,2.9931,2.9931,3.0251,3.0478,3.0644,3.1146,3.1465,3.1603,3.229,3.2144,3.1659,0.0,0.0,0.0,0.0,0.0,0.0,0.0,0.0,0.0,0.0,0.0,0.0,0.0,0.0,0.0,0.0,0.0,0.0,2.0997,2.1785,2.2434,2.292,2.2965,2.3009,2.3054,2.3009,2.3054,2.3201,2.3054,2.2934,2.2783,2.2495,2.2156,2.1779,2.1492,2.1202,2.0921,2.0957,2.0957,2.1019,2.1361,2.1616,2.1841,2.2417,2.3008,2.3696,2.4287,2.4759,0.0,0.0,2.5684,2.5921,2.6049,2.6173,2.6225,2.6225,2.6101,0.0,2.6154,2.6349,2.6572,0.0,2.6759,2.6825,2.6926,2.6926,2.7078,2.7603,2.7946,2.8442,2.9454,2.9849,3.024,3.0905,3.138,3.1832,3.2349,3.3076,3.3727,3.4229,3.4343,3.4561,3.4925,3.4789,3.4692,3.4723,3.4349,3.3949,3.3607,3.3118,3.2687,3.2191,3.2038,3.1811,3.1409,3.1219,3.1043,3.0866,3.0628,3.0387,3.019,3.0007,2.9747,2.9435,2.9198,2.9085,2.9149,2.931,2.9546,2.9842,3.0343,3.0763,3.119,3.2064,3.2228,3.2145,0.0,0.0,0.0,0.0,0.0,0.0,0.0,0.0,0.0,0.0,0.0,0.0,0.0,0.0,0.0,0.0,0.0,0.0,0.0,2.0966,2.1684,2.2235,2.2282,0.0,2.2434,2.2388,2.2434,2.2618,2.2434,2.2249,2.2044,2.1746,2.141,2.1068,2.0809,2.061,2.0472,2.061,2.0709,2.0759,2.1166,2.1471,2.1746,2.2278,2.2692,2.3038,2.3711,2.4219,0.0,0.0,2.5091,2.5307,2.5422,2.5567,2.5696,2.5642,2.5642,2.5663,2.5864,0.0,0.0,2.6537,2.6623,2.6742,2.6825,2.6842,2.708,2.7913,2.8237,2.8765,3.0133,3.0523,3.084,3.146,3.2055,3.254,3.2831,3.3667,3.4275,3.4313,3.4692,3.4947,3.4899,3.4851,3.4643,3.43,3.3899,3.3539,3.3293,3.2796,3.2413,3.2135,3.1981,3.164,3.1161,3.0911,3.0613,3.0312,3.0068,2.9822,2.9498,2.931,2.8994,2.8624,2.8509,2.8471,2.8457,2.8624,2.8803,2.9044,2.9546,3.004,3.0539,3.1422,3.1951,3.2342,0.0,0.0,0.0,0.0,0.0,0.0,0.0,0.0,0.0,0.0,0.0,0.0,0.0,0.0,0.0,0.0,0.0,0.0,0.0,2.0131,2.0908,2.1616,2.152,2.1568,2.1793,2.1554,2.1568,2.1841,2.1568,2.1375,2.1229,2.0809,2.0523,2.0233,2.008,2.0042,2.0042,2.0271,2.0472,2.066,2.1019,2.1277,2.1471,2.1996,2.237,2.2737,2.3523,0.0,0.0,0.0,2.4492,2.4471,2.4759,2.4974,0.0,2.4958,2.5169,2.5454,2.5663,2.5994,2.6347,2.6485,2.6589,2.6691,2.6691,2.6691,2.6911,2.7672,2.8416,2.9231,2.9973,3.0683,3.141,3.2161,3.2297,3.278,3.4071,3.4175,3.4297,3.4814,3.4675,3.4349,3.4,3.43,3.43,3.3745,3.3607,3.3224,3.2633,3.2523,3.2302,3.1996,3.1682,3.1306,3.0837,3.0493,3.0068,2.9623,2.9275,2.9022,2.8803,2.8481,2.8249,2.8145,2.8145,2.8145,2.8145,2.8235,2.8287,2.8352,2.8894,2.9352,2.9727,3.0358,3.119,3.2038,0.0,0.0,0.0,0.0,0.0,0.0,0.0,0.0,0.0,0.0,0.0,0.0,0.0,0.0,0.0,0.0,0.0,0.0,0.0,1.9125,1.9825,2.027,2.0396,2.0497,2.0597,2.0497,2.0597,2.0881,2.0696,2.056,2.0523,2.022,1.9952,1.9811,1.9772,1.9772,1.9914,2.0359,2.061,2.0759,2.1166,2.1471,2.1712,2.2044,2.2402,2.2723,0.0,0.0,0.0,0.0,0.0,2.3921,2.4162,2.4343,2.4477,2.4655,2.4934,2.5246,2.5551,2.5937,2.6277,2.645,2.6589,2.6691,2.6691,2.6691,2.7046,2.8332,2.8752,2.9235,3.0465,3.1291,3.1864,3.2141,3.3001,3.3768,3.4141,3.4372,3.4459,3.4366,3.4151,3.3797,3.3398,3.3642,3.371,3.3361,3.3081,3.2796,3.2594,3.2413,3.2135,3.1796,3.1379,3.097,3.0493,2.9931,2.9435,2.9044,2.8638,2.8314,2.8091,2.8039,2.7855,2.7669,2.7669,2.7669,2.7736,2.7723,2.7842,2.7973,2.8327,2.8716,2.9135,2.9699,3.0358,3.1073,0.0,0.0,0.0,0.0,0.0,0.0,0.0,0.0,0.0,0.0,0.0,0.0,0.0,0.0,0.0,0.0,0.0,0.0,0.0,0.0,1.865,1.8967,1.9125,1.923,1.927,1.923,1.9386,1.9645,1.9542,1.9567,1.9592,1.9384,1.9291,1.9239,1.9303,1.946,1.9708,2.0169,2.0472,2.0709,2.1055,2.1361,2.1616,2.1949,2.2263,0.0,0.0,0.0,0.0,0.0,0.0,2.3523,2.3797,2.3967,2.4162,2.4508,2.4831,2.5146,2.5416,2.5754,2.6046,2.6222,2.6417,2.6556,2.659,2.6826,2.7418,2.8685,2.9029,2.9492,3.0677,3.1281,3.1767,3.2286,3.3175,3.3935,3.4272,3.4426,3.4349,3.3949,3.3658,3.3346,3.2989,3.3081,3.3134,3.292,3.2703,3.2523,3.2468,3.2079,3.1739,3.1437,3.097,3.0433,2.9898,2.9373,2.8853,2.8417,2.8052,2.7802,2.7723,2.7723,2.759,2.7523,2.7523,2.7523,2.7523,2.7523,2.759,2.7723,2.7934,2.8249,2.8675,2.9135,2.9699,3.0297,0.0,0.0,0.0,0.0,0.0,0.0,0.0,0.0,0.0,0.0,0.0,0.0,0.0,0.0,0.0,0.0,0.0,0.0,0.0,0.0,0.0,1.7709,1.772,1.7763,1.785,1.7752,1.7829,1.8167,1.8178,1.8232,1.8417,1.8267,1.8333,1.856,1.8679,1.8999,1.942,1.9836,2.0131,2.0422,2.066,2.0957,2.1229,2.165,0.0,0.0,0.0,0.0,0.0,0.0,0.0,2.3392,2.3566,2.3852,2.4204,2.4508,2.4806,2.5045,2.5256,2.5492,2.5738,2.5881,2.6099,2.633,2.6383,2.7075,2.7902,2.8622,2.9269,2.9872,0.0,0.0,3.1191,3.259,3.2829,3.3271,3.4444,3.4284,3.3866,3.3503,3.3256,3.2935,3.2633,3.2578,3.2594,3.2594,3.2453,3.2342,3.2191,3.1625,3.1161,3.097,3.0372,2.9761,2.9099,2.8881,2.8417,2.7776,2.759,2.7523,2.7523,2.7523,2.7523,2.7523,2.7456,2.7456,2.7456,2.7469,2.7469,2.7456,2.7723,2.7973,2.8287,2.8675,2.9135,2.9665,0.0,0.0,0.0,0.0,0.0,0.0,0.0,0.0,0.0,0.0,0.0,0.0,0.0,0.0,0.0,0.0,0.0,0.0,0.0,0.0,0.0,0.0,0.0,0.0,0.0,0.0,0.0,0.0,0.0,1.6778,1.718,1.7268,1.7446,0.0,1.8104,1.8536,1.8975,1.9604,1.9965,2.0156,0.0,2.0759,2.0957,0.0,0.0,0.0,0.0,0.0,0.0,0.0,0.0,0.0,2.4094,2.4369,2.4655,2.4799,2.5029,2.5256,2.5355,2.5621,2.5844,2.5881,2.6099,2.6295,2.633,2.6933,2.7648,2.8289,2.888,2.942,3.0058,3.0615,3.1134,3.1627,3.2081,3.2662,3.3451,3.3127,3.2934,3.3193,3.292,3.2633,3.2453,3.2358,3.2247,3.215,3.2094,3.1966,3.1724,3.119,3.0777,3.0493,2.9761,2.9212,2.8881,2.8352,2.7908,2.759,2.7523,2.7523,2.7523,2.7523,2.7523,2.7456,2.7403,2.7335,2.7335,2.7214,2.7146,2.7146,2.7335,2.7523,2.7789,2.8222,2.8675,2.9058,0.0,0.0,0.0,0.0,0.0,0.0,0.0,0.0,0.0,0.0,0.0,0.0,0.0,0.0,0.0,0.0,0.0,0.0,0.0,0.0,0.0,0.0,0.0,0.0,0.0,0.0,0.0,0.0,0.0,0.0,0.0,1.6197,1.6492,1.6832,1.7324,1.7875,1.8441,0.0,0.0,0.0,0.0,0.0,0.0,0.0,0.0,0.0,0.0,0.0,0.0,0.0,0.0,2.4533,2.4655,2.4839,2.5075,2.5214,0.0,2.5454,2.5492,2.5621,2.5749,2.5749,2.5917,2.6148,2.6568,2.716,2.7849,2.8497,2.8992,2.9416,2.9777,3.0166,3.0522,3.0998,3.128,3.169,3.2337,3.2265,3.2206,3.2435,3.2447,3.2453,3.2398,3.2302,3.2079,3.1868,3.1682,3.1437,3.119,3.0524,3.0054,2.9775,2.9135,2.8624,2.8352,2.7908,2.759,2.7523,2.7523,2.7469,2.7403,2.7403,2.7335,2.7268,2.7134,2.7066,2.6998,2.6794,2.6794,2.6875,2.7066,2.7323,2.7523,2.7908,2.8287,2.861,0.0,0.0,0.0,0.0,0.0,0.0,0.0,0.0,0.0,0.0,0.0,0.0,0.0,0.0,0.0,0.0,0.0,0.0,0.0,0.0,0.0,0.0,0.0,0.0,0.0,0.0,0.0,0.0,0.0,0.0,0.0,0.0,0.0,0.0,0.0,0.0,0.0,0.0,0.0,0.0,0.0,0.0,0.0,0.0,0.0,0.0,0.0,0.0,0.0,0.0,2.4918,2.4958,2.523,2.5384,2.5535,2.5738,2.5775,2.5738,2.568,2.5659,2.5691,2.5654,2.5696,2.5991,2.6742,2.7476,2.811,2.8739,2.9189,2.9499,2.9547,2.9502,2.9649,3.0473,0.0,3.0528,3.1182,3.1498,3.1675,3.161,3.2106,3.2398,3.2398,3.2247,3.2023,3.1667,3.1146,3.0851,3.0658,2.9732,2.9135,2.8894,2.8495,2.8105,2.7789,2.759,2.7523,2.7523,2.7469,2.7403,2.7268,2.7201,2.7066,2.6875,2.6658,2.6577,2.6508,2.6358,2.6358,2.6577,2.6837,2.7108,2.7469,2.7656,2.7973,2.8235,0.0,0.0,0.0,0.0,0.0,0.0,0.0,0.0,0.0,0.0,1.5381,0.0,0.0,0.0,0.0,0.0,0.0,0.0,0.0,0.0,0.0,0.0,0.0,0.0,0.0,0.0,0.0,0.0,0.0,0.0,0.0,0.0,0.0,0.0,0.0,0.0,0.0,0.0,0.0,0.0,0.0,0.0,0.0,0.0,0.0,0.0,0.0,0.0,0.0,0.0,2.5307,2.5572,2.5775,2.5974,2.6082,2.6082,2.6118,2.6082,2.5974,2.6026,2.6063,2.5954,2.6043,2.6112,2.6118,2.6922,0.0,0.0,2.8326,2.9013,2.8967,2.8936,2.9014,2.9342,2.9279,2.9485,3.0418,3.0773,3.1161,3.1706,3.2145,3.2398,3.2398,3.2191,3.1868,3.1394,3.0673,3.0176,2.9993,2.9296,2.861,2.8039,2.7908,2.7776,2.7523,2.7523,2.7523,2.7523,2.7403,2.7268,2.704,2.685,2.6645,2.6302,2.6107,2.5968,2.5746,2.5594,2.5746,2.6037,2.6233,2.6658,2.7079,2.7335,2.759,2.7908,0.0,0.0,0.0,0.0,0.0,0.0,0.0,0.0,0.0,0.0,1.5894,1.5894,0.0,0.0,0.0,0.0,0.0,0.0,0.0,0.0,0.0,0.0,0.0,0.0,0.0,0.0,0.0,0.0,0.0,0.0,0.0,0.0,0.0,0.0,0.0,0.0,0.0,0.0,0.0,0.0,0.0,0.0,0.0,0.0,0.0,0.0,0.0,0.0,0.0,0.0,2.5384,2.5717,2.6134,2.6293,2.6364,2.6435,2.6452,2.6382,2.626,2.6225,2.6225,2.6154,2.6134,2.6125,2.6377,0.0,0.0,0.0,2.7947,2.8327,2.8732,2.8747,2.8763,2.8967,2.8889,2.9014,2.9548,2.9953,3.0441,3.1109,3.1566,3.2013,3.2367,3.2135,3.1811,3.1351,3.0553,2.9884,2.9449,2.8675,2.8105,2.7656,2.7656,2.759,2.7523,2.7523,2.7469,2.7403,2.7188,2.6985,2.6564,2.6371,2.6094,2.5734,2.5523,2.5382,2.5241,2.5111,2.5265,2.5606,2.5886,2.6302,2.6714,2.6998,2.7335,2.7656,0.0,0.0,0.0,0.0,0.0,0.0,0.0,1.5884,1.6046,1.6228,1.657,1.6684,1.6457,1.6457,0.0,0.0,0.0,0.0,0.0,0.0,0.0,0.0,0.0,0.0,0.0,0.0,0.0,1.4874,0.0,0.0,0.0,0.0,0.0,0.0,0.0,0.0,0.0,0.0,0.0,0.0,0.0,0.0,0.0,0.0,0.0,0.0,0.0,0.0,0.0,0.0,2.5269,2.5605,2.6187,2.6415,2.6468,2.6657,2.6623,2.6572,2.6504,2.6418,2.64,2.64,2.626,2.6211,2.6606,2.6467,0.0,2.7415,2.7576,2.7736,2.8373,2.8543,2.8621,0.0,2.8811,2.8826,2.892,2.934,2.9909,3.0576,3.1087,3.1643,3.2321,3.2135,3.1754,3.1278,3.0297,2.9526,2.8908,2.8183,2.7656,2.7523,2.7523,2.7523,2.7523,2.7469,2.7403,2.7201,2.6973,2.6564,2.6082,2.5816,2.5465,2.5111,2.4957,2.4874,2.4802,2.4694,2.4849,2.5253,2.5548,2.5886,2.6302,2.6589,2.6998,2.739,0.0,0.0,0.0,0.0,0.0,0.0,0.0,1.6114,1.6353,1.6694,1.7145,1.7412,1.7357,1.7123,0.0,0.0,0.0,0.0,0.0,0.0,0.0,0.0,0.0,0.0,0.0,0.0,0.0,1.5497,1.5613,0.0,0.0,0.0,0.0,0.0,0.0,1.8608,0.0,0.0,0.0,0.0,0.0,0.0,0.0,0.0,0.0,0.0,0.0,0.0,0.0,0.0,0.0,2.5246,2.577,2.6134,2.6382,2.6572,0.0,0.0,2.6674,2.6657,2.6657,2.6657,2.6555,2.638,2.6052,0.0,2.622,2.5947,2.6714,2.7458,2.7535,2.8044,2.8493,2.8747,0.0,2.8889,2.9045,2.9516,3.0024,3.0709,0.0,3.1643,3.2321,3.2007,3.1552,3.1087,2.9637,2.8587,2.821,2.7802,2.7523,2.7523,2.7523,2.7523,2.7523,2.7403,2.7188,2.704,2.6508,2.6094,2.5676,2.5241,2.4886,2.4562,2.4562,2.4406,2.4261,2.4273,2.449,2.4861,2.4861,2.5348,2.591,2.5746,2.6289,2.704,0.0,0.0,0.0,0.0,0.0,0.0,0.0,1.641,1.6705,1.7043,1.7479,1.7744,1.7744,1.7689,1.7634,0.0,0.0,0.0,0.0,0.0,0.0,0.0,0.0,0.0,0.0,0.0,0.0,1.6978,1.7045,0.0,0.0,0.0,0.0,0.0,0.0,1.9709,2.0144,0.0,0.0,0.0,0.0,0.0,0.0,0.0,0.0,0.0,0.0,0.0,0.0,0.0,0.0,0.0,2.5562,2.5733,0.0,0.0,2.6417,2.6452,2.6589,2.6674,2.6691,2.6691,2.6589,2.6415,2.6026,0.0,2.5783,2.5847,2.6143,2.665,2.7441,2.7814,2.814,0.0,0.0,0.0,2.892,2.9013,2.9353,2.9987,3.05,3.1021,3.1627,3.1794,3.1509,3.0539,2.9324,2.8471,2.8145,2.7736,2.7523,2.7523,2.7523,2.7523,2.7523,2.7403,2.7053,2.662,2.6233,2.5688,2.5135,2.4838,2.455,2.4345,2.4345,2.4273,2.42,2.42,2.4345,2.4646,2.4718,2.5064,2.5382,2.5535,2.6025,2.6564,0.0,0.0,0.0,0.0,0.0,0.0,1.6648,1.6874,1.7145,1.749,1.7755,1.7963,1.7963,1.803,1.803,1.7822,0.0,0.0,0.0,0.0,0.0,0.0,0.0,0.0,0.0,0.0,0.0,1.8182,1.8278,1.8471,0.0,0.0,1.9411,1.9837,0.0,0.0,0.0,0.0,0.0,0.0,0.0,0.0,0.0,0.0,0.0,0.0,0.0,0.0,0.0,0.0,0.0,0.0,0.0,0.0,0.0,0.0,2.6189,2.6241,2.6452,2.6538,2.6624,2.6674,2.6572,2.6415,0.0,0.0,2.5561,2.5799,2.5825,2.6219,2.7337,2.7668,2.8044,0.0,0.0,2.8794,2.8794,2.8684,2.8836,2.9518,3.0048,3.0622,3.1121,3.146,3.1146,3.0007,2.9085,2.8471,2.8145,2.7736,2.7523,2.7523,2.7523,2.7523,2.7523,2.7335,2.6918,2.6358,2.5886,2.5336,2.4718,2.449,2.4345,2.42,2.42,2.42,2.42,2.42,2.4273,2.4418,2.4574,2.4694,2.4886,2.5182,2.5606,2.6094,0.0,0.0,0.0,0.0,0.0,0.0,0.0,1.7468,1.7645,1.803,1.8084,1.8084,1.8084,1.8084,1.8084,1.8084,0.0,0.0,0.0,0.0,0.0,0.0,0.0,0.0,0.0,0.0,0.0,0.0,0.0,1.9527,1.9798,2.0207,2.051,2.0795,0.0,0.0,0.0,0.0,0.0,0.0,0.0,0.0,0.0,0.0,0.0,0.0,0.0,0.0,0.0,0.0,0.0,0.0,0.0,0.0,0.0,0.0,2.5954,2.5954,2.6225,2.6349,2.6418,2.6572,2.6554,2.645,0.0,0.0,2.5626,2.547,2.5894,2.6477,2.7079,2.7648,2.821,2.8794,0.0,0.0,2.8794,2.8684,2.8836,2.9518,3.0048,3.0622,3.1121,3.0976,3.0493,2.9665,2.8972,2.8471,2.8145,2.7736,2.7523,2.7523,2.7523,2.7523,2.7523,2.7146,2.6726,2.622,2.5594,2.504,2.449,2.4273,2.42,2.42,2.42,2.42,2.42,2.42,2.42,2.42,2.42,2.4345,2.449,2.449,2.4981,2.5676,0.0,0.0,0.0,0.0,0.0,0.0,0.0,1.8061,1.8061,1.8224,1.8302,1.8259,1.8084,1.8084,1.8139,1.8313,0.0,0.0,0.0,0.0,0.0,0.0,0.0,0.0,0.0,0.0,0.0,0.0,0.0,0.0,0.0,0.0,2.1118,2.1506,2.1841,2.2137,0.0,0.0,0.0,0.0,0.0,0.0,0.0,0.0,0.0,0.0,0.0,0.0,0.0,0.0,0.0,0.0,0.0,0.0,0.0,0.0,0.0,0.0,2.5954,2.6118,2.6295,2.6435,2.6503,2.6468,2.6365,0.0,2.601,2.5828,2.5912,2.6357,2.7421,2.7718,2.8094,2.9007,2.9075,0.0,0.0,0.0,0.0,2.8916,2.9501,3.0256,3.1204,3.066,3.0129,2.9665,2.883,2.8314,2.8079,2.7736,2.7523,2.7523,2.7523,2.7469,2.7335,2.6998,2.6452,2.5746,2.5312,2.4814,2.4273,2.42,2.42,2.42,2.42,2.42,2.42,2.42,2.42,2.42,2.42,2.4273,2.4345,2.4418,2.4706,2.5087,0.0,0.0,0.0,0.0,0.0,0.0,0.0,1.8709,1.8655,1.8655,1.856,1.841,1.8302,1.8247,1.8313,1.853,0.0,0.0,0.0,0.0,0.0,0.0,0.0,0.0,0.0,0.0,0.0,0.0,0.0,0.0,0.0,0.0,0.0,2.2137,2.2509,0.0,0.0,0.0,0.0,0.0,0.0,0.0,2.4926,0.0,0.0,0.0,0.0,0.0,0.0,0.0,0.0,0.0,0.0,0.0,0.0,0.0,2.5642,2.553,0.0,2.5954,2.6134,2.633,2.6417,0.0,0.0,0.0,2.6293,2.6222,2.6151,2.6508,2.7827,2.7907,2.8174,2.9246,2.9259,2.9045,0.0,0.0,2.8823,2.9073,2.9275,2.9878,3.0896,3.0297,2.9637,2.9338,2.8638,2.8118,2.8,2.7603,2.7403,2.7403,2.7403,2.7335,2.7188,2.6714,2.6164,2.5465,2.5099,2.4683,2.42,2.42,2.42,2.42,2.42,2.42,0.0,2.42,2.42,2.42,2.42,2.42,2.42,2.4345,2.449,2.4707,0.0,0.0,0.0,0.0,0.0,0.0,0.0,0.0,0.0,0.0,1.8869,1.8614,1.8614,1.8518,1.853,0.0,0.0,0.0,0.0,0.0,0.0,0.0,0.0,0.0,0.0,0.0,0.0,2.1091,2.1444,2.1793,2.2077,0.0,0.0,0.0,0.0,0.0,0.0,0.0,0.0,0.0,0.0,0.0,0.0,0.0,0.0,0.0,0.0,0.0,0.0,0.0,0.0,0.0,0.0,0.0,0.0,0.0,0.0,0.0,0.0,2.5828,2.5954,2.6225,2.6382,0.0,0.0,0.0,0.0,0.0,2.652,2.6937,2.8244,2.824,2.8396,2.9452,2.9335,2.9045,2.8842,2.8684,2.8922,2.978,2.9327,2.94,3.0334,2.9732,2.9107,2.8803,2.8314,2.8,2.7776,2.7469,2.7268,2.7268,2.7268,2.7121,2.6973,2.6427,2.5873,2.5241,2.4921,2.4574,2.42,2.42,2.42,2.42,2.42,2.42,2.42,2.42,2.42,2.42,2.42,2.42,2.42,2.42,2.4322,2.4434,0.0,0.0,0.0,0.0,0.0,0.0,0.0,0.0,0.0,0.0,0.0,1.9028,1.8934,1.8893,0.0,0.0,0.0,0.0,0.0,0.0,0.0,0.0,0.0,0.0,0.0,0.0,0.0,2.1732,2.2002,2.2282,2.2526,2.2768,0.0,0.0,0.0,0.0,0.0,0.0,0.0,0.0,0.0,0.0,0.0,0.0,0.0,0.0,2.6134,2.6134,0.0,0.0,0.0,0.0,0.0,0.0,0.0,0.0,2.6046,2.5937,2.6046,0.0,2.6026,2.626,2.6452,2.6606,0.0,0.0,0.0,0.0,0.0,0.0,0.0,2.8395,2.8582,2.9567,2.9576,2.9275,2.8936,2.8621,2.879,2.9652,2.9193,2.9073,2.9771,2.9247,2.8803,2.8417,2.8105,2.7855,2.7776,2.7469,2.7268,2.7268,2.685,2.6564,2.6358,2.5955,2.5477,2.4921,2.4718,2.4418,2.42,2.42,2.42,2.42,2.42,2.42,2.42,2.42,2.42,2.42,2.42,2.42,2.42,2.42,2.4103,2.3839,0.0,0.0,0.0,0.0,0.0,0.0,0.0,0.0,0.0,0.0,0.0,0.0,0.0,0.0,0.0,0.0,0.0,0.0,0.0,0.0,0.0,0.0,0.0,0.0,0.0,0.0,0.0,0.0,0.0,2.2905,0.0,0.0,0.0,0.0,0.0,0.0,0.0,0.0,0.0,0.0,2.5567,0.0,0.0,0.0,0.0,0.0,2.64,2.6435,0.0,2.6453,2.6487,2.6504,0.0,0.0,0.0,0.0,2.6347,2.6258,2.6329,2.6206,2.6118,2.6279,2.6486,2.6606,2.6674,0.0,0.0,0.0,0.0,0.0,0.0,0.0,2.8502,2.9523,2.9486,2.9183,2.8748,2.8429,2.8525,2.9277,2.8805,2.8624,2.9303,2.883,2.8379,2.8105,2.7842,2.7656,2.759,2.7188,2.6985,2.6918,2.6358,2.6025,2.6037,2.5594,2.5111,2.4646,2.449,2.4345,2.42,2.42,2.42,2.42,2.42,2.42,2.42,2.42,2.42,2.42,2.42,2.42,2.4166,2.4019,2.3826,2.363,0.0,0.0,0.0,0.0,0.0,0.0,0.0,0.0,0.0,0.0,0.0,0.0,0.0,0.0,0.0,0.0,0.0,0.0,0.0,0.0,0.0,0.0,0.0,0.0,0.0,0.0,0.0,0.0,0.0,0.0,0.0,0.0,2.4009,0.0,0.0,0.0,0.0,0.0,0.0,0.0,2.5974,0.0,0.0,0.0,0.0,0.0,0.0,0.0,0.0,2.6691,2.6691,2.6691,2.6691,0.0,0.0,0.0,0.0,0.0,2.6554,2.6399,2.6277,2.64,2.6521,2.6606,2.6674,0.0,0.0,0.0,0.0,0.0,0.0,2.8322,0.0,0.0,2.9198,2.8811,2.8396,2.8088,2.8156,2.8811,2.8297,2.8152,2.8911,2.8471,2.8,2.7776,2.759,2.7403,2.7268,2.685,2.6577,2.6358,2.5886,2.5688,2.5758,2.5241,2.4826,2.4418,2.4273,2.42,2.42,2.42,2.42,2.42,2.42,2.42,2.42,2.42,2.4116,2.4116,2.4116,2.407,2.3956,2.3674,2.356,2.3282,0.0,0.0,0.0,0.0,0.0,0.0,0.0,0.0,0.0,0.0,0.0,0.0,0.0,0.0,0.0,0.0,0.0,0.0,0.0,0.0,0.0,0.0,0.0,0.0,0.0,0.0,0.0,0.0,0.0,0.0,2.4036,2.4276,2.4605,0.0,0.0,0.0,2.5572,2.5791,2.599,2.6118,2.6279,0.0,0.0,0.0,0.0,0.0,0.0,0.0,0.0,2.6691,2.6691,2.6691,2.6691,0.0,0.0,0.0,0.0,0.0,2.6674,2.6623,2.6537,2.6468,2.6537,2.6606,2.6606,0.0,0.0,0.0,0.0,0.0,0.0,2.8575,2.8871,0.0,2.8685,2.8268,2.8073,2.7725,2.7705,2.8351,2.7996,2.7913,2.8373,2.8262,2.7947,2.759,2.7403,2.7268,2.704,2.6633,2.6358,2.6233,2.5816,2.5453,2.5158,2.4909,2.4634,2.4273,2.42,2.42,2.42,2.42,2.42,2.42,2.42,2.42,2.42,2.4043,2.397,2.3897,2.3751,2.3419,2.3108,2.3183,2.2754,2.2143,0.0,0.0,0.0,0.0,0.0,0.0,0.0,0.0,0.0,0.0,0.0,0.0,0.0,0.0,0.0,0.0,0.0,0.0,0.0,0.0,0.0,0.0,0.0,0.0,0.0,0.0,0.0,0.0,0.0,2.4385,2.4467,2.4806,2.5084,2.5378,0.0,0.0,2.5974,2.6118,2.6277,2.6434,0.0,0.0,0.0,0.0,0.0,0.0,0.0,0.0,0.0,0.0,2.6691,2.6691,2.6691,0.0,0.0,0.0,0.0,0.0,2.6691,2.6623,2.6554,2.652,2.652,2.652,2.6452,2.6469,0.0,0.0,0.0,0.0,0.0,0.0,2.8566,2.8717,2.8381,2.8039,2.7825,2.7408,2.7281,2.7652,2.7495,2.7473,2.7786,2.7866,2.7802,2.7403,2.7255,2.6985,2.6564,2.622,2.5873,2.5581,2.5324,2.5052,2.4754,2.4706,2.4502,2.42,2.42,2.42,2.42,2.42,2.42,2.42,2.42,2.4116,2.4043,2.3824,2.3666,2.3497,2.3083,2.2756,2.2501,2.219,2.1599,2.1068,0.0,0.0,0.0,0.0,0.0,0.0,0.0,0.0,0.0,0.0,0.0,0.0,0.0,0.0,0.0,0.0,0.0,0.0,0.0,0.0,0.0,0.0,0.0,0.0,0.0,0.0,2.4151,2.4385,2.4564,2.4766,2.5005,2.5317,2.5584,0.0,0.0,0.0,2.6312,2.6365,2.6469,2.664,0.0,0.0,0.0,0.0,0.0,0.0,0.0,0.0,0.0,0.0,0.0,0.0,0.0,0.0,0.0,2.6691,2.6691,2.6691,2.6691,2.6623,2.652,2.652,0.0,2.6399,2.6277,2.6225,0.0,0.0,0.0,0.0,0.0,2.7976,2.8216,2.8255,2.8054,2.779,2.7524,2.7086,2.6886,2.7099,2.6993,2.7074,2.731,2.7641,2.7656,2.7335,2.7053,2.6714,2.6164,2.5746,2.5312,2.4957,2.4849,2.4718,2.449,2.449,2.4418,2.42,2.42,2.42,2.42,2.4116,2.4127,2.4116,2.4043,2.3897,2.3751,2.3446,2.3158,2.2878,2.2277,2.1923,2.168,2.097,2.049,2.0237,0.0,0.0,0.0,0.0,0.0,0.0,0.0,0.0,0.0,0.0,0.0,0.0,0.0,0.0,0.0,0.0,0.0,0.0,0.0,0.0,0.0,0.0,0.0,0.0,0.0,2.3909,2.4245,2.4589,2.491,2.5246,2.5663,2.5864,2.601,2.6154,0.0,0.0,2.6572,2.664,2.6691,2.6691,2.6691,0.0,0.0,0.0,0.0,0.0,0.0,0.0,0.0,0.0,0.0,0.0,0.0,0.0,2.6691,2.6691,2.6691,2.6691,2.6691,2.6657,2.6572,2.6572,2.6415,0.0,2.6063,2.601,0.0,2.5934,0.0,0.0,0.0,2.7795,2.8125,2.7875,2.7725,2.7524,2.7284,2.6841,2.658,2.6793,2.6799,2.6931,2.7223,2.7589,2.7656,2.7335,2.693,2.6508,2.5968,2.5535,2.5182,2.4861,2.479,2.4718,2.449,2.449,2.4418,2.42,2.42,2.42,2.4189,2.397,2.3897,2.3897,2.353,2.3372,2.3298,2.2703,2.2222,2.1848,2.1439,2.0812,2.0112,1.9607,1.955,1.9671,0.0,0.0,0.0,0.0,0.0,0.0,0.0,0.0,0.0,0.0,0.0,0.0,0.0,0.0,0.0,0.0,0.0,0.0,0.0,0.0,0.0,0.0,0.0,2.3581,2.3739,2.3994,2.4287,2.4726,2.5208,2.5626,2.5901,2.6082,0.0,0.0,0.0,0.0,2.664,2.6691,2.6691,2.6691,2.6691,2.6691,0.0,0.0,0.0,0.0,0.0,0.0,0.0,0.0,2.6691,2.6691,0.0,0.0,2.6691,0.0,2.6674,2.6623,2.6623,2.6521,2.6417,2.6417,2.6206,0.0,0.0,2.577,2.5567,2.5416,2.6382,0.0,0.0,0.0,2.8137,2.7955,2.774,2.7524,2.7233,2.6788,2.6451,2.6272,2.6106,2.6243,2.6587,2.6918,2.7144,2.7121,2.6714,2.622,2.5535,2.5194,2.4849,2.4418,2.4418,2.4345,2.4127,2.4127,2.397,2.3666,2.3897,2.3897,2.3666,2.353,2.3372,2.315,2.3001,2.2604,2.2103,2.1744,2.124,2.0731,2.0175,1.9614,1.9043,1.8869,1.8998,1.9341,0.0,0.0,0.0,0.0,0.0,0.0,0.0,0.0,0.0,0.0,0.0,0.0,0.0,0.0,0.0,0.0,0.0,0.0,0.0,0.0,0.0,0.0,0.0,2.3625,2.3839,2.4036,2.4385,2.4862,2.5513,2.5974,2.617,0.0,0.0,0.0,0.0,0.0,0.0,2.6691,2.6691,2.6691,2.6691,2.6691,0.0,0.0,0.0,0.0,0.0,0.0,0.0,0.0,0.0,0.0,0.0,0.0,0.0,0.0,0.0,2.6606,2.6606,2.6452,2.6295,0.0,0.0,0.0,2.5844,2.5584,2.5317,2.5068,2.5905,2.7081,2.8278,0.0,2.8039,2.7905,2.774,2.7524,2.7233,2.6788,2.6297,2.5948,2.5707,2.5648,2.5988,2.6248,2.644,2.6447,2.6291,2.5834,2.5059,2.4826,2.4502,2.4116,2.397,2.3824,2.3677,2.3593,2.3372,2.3001,2.3058,2.3069,2.3075,2.3001,2.2691,2.2254,2.2105,2.1607,2.0886,2.0604,2.0194,1.9667,1.9034,1.8616,1.8347,1.8414,1.8674,1.9065,0.0,0.0,0.0,0.0,0.0,0.0,0.0,0.0,0.0,0.0,0.0,0.0,0.0,0.0,0.0,0.0,0.0,0.0,0.0,0.0,0.0,0.0,0.0,2.3739,2.3982,2.4193,2.4549,2.5005,2.5791,2.6277,2.6485,2.6657,0.0,0.0,0.0,0.0,0.0,0.0,2.6691,2.6691,2.6691,2.6691,2.6691,0.0,0.0,0.0,0.0,0.0,0.0,0.0,2.6691,0.0,0.0,0.0,0.0,0.0,2.6657,2.6606,2.6606,2.6452,2.6295,0.0,0.0,0.0,2.5738,2.5492,2.5217,2.4878,2.5625,2.6704,2.7975,2.7989,2.774,2.7625,2.7625,2.7524,2.7233,2.6669,2.619,2.5948,2.5578,2.5428,2.5369,2.5656,2.5686,2.5294,2.5507,2.5289,2.4506,2.4472,2.4334,2.3886,2.3508,2.3287,2.3287,2.2916,2.2617,2.2381,2.1533,2.1713,2.2703,2.2241,2.1753,2.1167,2.0734,2.0333,1.9847,1.9413,1.9023,1.8523,1.8174,1.8008,1.8008,1.8212,1.8539,1.8875,0.0,0.0,0.0,0.0,0.0,0.0,0.0,0.0,0.0,0.0,0.0,0.0,0.0,0.0,0.0,0.0,0.0,0.0,0.0,0.0,0.0,0.0,0.0,0.0,0.0,0.0,2.5185,2.5416,2.5937,2.6277,0.0,0.0,0.0,2.6691,0.0,0.0,0.0,0.0,2.6691,2.6691,2.6691,2.6691,2.6691,0.0,0.0,0.0,0.0,0.0,0.0,0.0,0.0,0.0,0.0,0.0,0.0,2.6691,2.6623,2.652,2.6417,2.6206,0.0,2.5885,0.0,0.0,0.0,2.524,0.0,0.0,2.6028,2.6581,2.7844,2.7905,2.779,2.774,2.759,2.735,2.7093,2.663,2.619,2.5784,2.5381,2.5208,2.5507,2.5468,2.538,2.5332,2.4998,2.4497,2.3843,2.3454,2.3121,2.2842,2.2481,2.2187,2.1903,2.1535,2.1114,2.0606,2.0182,2.0427,2.1226,2.0622,2.0106,1.9663,1.9683,1.9383,1.8828,1.8516,1.8311,1.8184,1.8057,1.8008,1.8008,1.8212,1.8539,1.8875,0.0,0.0,0.0,0.0,0.0,0.0,0.0,0.0,0.0,0.0,0.0,0.0,0.0,0.0,0.0,0.0,0.0,0.0,0.0,0.0,0.0,0.0,0.0,0.0,0.0,2.5146,2.5492,0.0,0.0,0.0,0.0,0.0,0.0,2.6691,0.0,2.6691,0.0,0.0,2.6691,2.6691,2.6691,2.6691,2.6691,0.0,0.0,0.0,0.0,0.0,0.0,0.0,0.0,0.0,0.0,0.0,0.0,2.6691,2.6589,2.6485,2.6347,2.6082,0.0,2.5696,2.5508,2.5317,2.5139,0.0,0.0,0.0,2.6229,2.6504,2.7713,2.779,2.774,2.774,2.7539,2.7299,2.7055,2.6539,2.6096,2.5729,2.523,2.497,2.5159,2.4919,2.4706,2.4553,2.4255,2.3802,2.3239,2.2907,2.2537,2.2252,2.1907,2.1479,2.1058,2.0552,2.0135,1.963,1.9029,1.9015,1.9487,1.9326,1.9035,1.8644,1.8695,1.8482,1.81,1.8047,1.8008,1.8008,1.8008,1.8008,1.8008,1.8212,1.8539,1.8875,0.0,0.0,0.0,0.0,0.0,0.0,0.0,0.0,0.0,0.0,0.0,0.0,0.0,0.0,0.0,0.0,0.0,0.0,0.0,0.0,0.0,0.0,0.0,0.0,0.0,0.0,0.0,0.0,0.0,0.0,0.0,0.0,2.6691,2.6691,0.0,2.6691,2.6691,2.6691,2.6691,2.6691,2.6691,2.6742,2.6742,2.6742,0.0,0.0,0.0,0.0,0.0,0.0,0.0,0.0,2.6691,0.0,2.6691,2.6691,2.6589,2.6434,2.6295,0.0,0.0,2.5562,2.541,0.0,2.4862,2.4686,2.4937,2.6205,0.0,2.6379,2.7599,2.7675,2.7625,2.7625,2.7488,2.7299,2.7003,2.6447,2.6002,2.5729,2.5174,2.4778,2.462,2.4332,2.3936,2.3463,2.3356,2.3125,2.2638,2.2561,2.24,2.198,2.1439,2.1021,2.0579,1.9869,1.9377,1.916,1.8209,1.7754,1.7763,1.8335,1.837,1.8071,1.781,1.7706,1.7716,1.794,1.8008,1.8008,1.8008,1.794,1.8008,1.8212,1.8472,1.8741,0.0,0.0,0.0,0.0,0.0,0.0,0.0,0.0,0.0,0.0,0.0,0.0,0.0,0.0,0.0,0.0,0.0,0.0,0.0,0.0,0.0,0.0,0.0,0.0,0.0,0.0,0.0,0.0,0.0,0.0,0.0,0.0,0.0,2.6691,0.0,2.6691,2.6691,2.6691,2.6691,2.6691,2.6792,2.6842,2.6876,2.6909,2.6942,0.0,0.0,0.0,0.0,0.0,0.0,0.0,2.6742,2.6691,2.6691,2.6691,2.6538,2.6295,2.6118,2.5791,0.0,0.0,2.5045,2.4862,2.4686,2.4564,2.4843,2.6028,2.6093,2.6379,2.7599,2.7675,2.7625,2.7625,2.7386,2.7115,2.6803,2.6272,2.5853,2.5592,2.5188,2.4892,2.4778,2.4421,2.4028,2.3463,2.2886,2.2404,2.1926,2.1498,2.1221,2.1156,2.0621,2.0159,1.9836,1.9073,1.8527,1.8054,1.7552,1.7306,1.7306,1.746,1.759,1.7772,1.7745,1.7784,1.794,1.8008,1.8008,1.8008,1.7862,1.7784,1.7784,1.8008,1.8144,1.8279,0.0,0.0,0.0,0.0,0.0,0.0,0.0,0.0,0.0,0.0,0.0,0.0,0.0,0.0,0.0,0.0,0.0,0.0,0.0,0.0,0.0,0.0,0.0,0.0,0.0,0.0,0.0,0.0,0.0,0.0,0.0,0.0,0.0,2.6691,0.0,2.6691,2.6691,2.6691,2.6742,2.6792,2.6876,2.6926,2.6959,2.6992,2.7007,2.7007,2.7007,0.0,0.0,0.0,0.0,0.0,0.0,0.0,2.6691,2.664,2.6469,2.626,2.6046,0.0,0.0,2.5185,0.0,2.4886,2.467,2.4549,2.487,2.6012,2.6184,2.6457,2.7599,2.774,2.7675,2.7625,2.7372,2.7063,2.6736,2.6258,2.5798,2.555,2.5131,2.4835,2.4593,2.4189,2.3734,2.321,2.2543,2.2061,2.1698,2.1169,2.0839,2.0786,2.0248,1.9791,1.9341,1.8664,1.7978,1.7442,1.7097,1.6959,1.7038,1.7304,1.7501,1.7706,1.7706,1.7784,1.7862,1.7803,1.7735,1.7735,1.751,1.7432,1.7442,1.7588,1.7523,1.7475,0.0,0.0,0.0,0.0,0.0,0.0,0.0,0.0,0.0,0.0,0.0,0.0,0.0,0.0,0.0,0.0,0.0,0.0,0.0,0.0,0.0,0.0,0.0,0.0,0.0,0.0,0.0,0.0,0.0,0.0,0.0,0.0,0.0,2.6691,0.0,2.6691,2.6691,2.6691,2.6792,2.6893,2.6926,2.6959,2.7007,2.704,2.704,2.704,2.704,2.704,2.7057,2.704,0.0,0.0,0.0,0.0,2.6708,2.6674,2.6486,2.626,2.6082,0.0,2.5486,2.5185,2.5091,0.0,2.471,2.463,2.4937,2.613,2.6304,2.6535,2.7648,2.784,2.774,2.7575,2.7335,2.7011,2.6669,2.6204,2.5743,2.5439,2.5075,2.4664,2.4305,2.3852,2.3378,2.2896,2.2235,2.1737,2.1624,2.1106,2.0722,2.0593,2.0064,1.9528,1.8998,1.8269,1.7657,1.7097,1.6682,1.6612,1.6769,1.7226,1.7501,1.7638,1.7638,1.7569,1.7501,1.7461,1.7401,1.7323,1.7166,1.7051,1.6995,1.6995,1.6794,1.6562,0.0,0.0,0.0,0.0,0.0,0.0,0.0,0.0,0.0,0.0,0.0,0.0,0.0,0.0,0.0,0.0,0.0,0.0,2.5844,0.0,0.0,2.5844,2.5901,0.0,0.0,0.0,0.0,0.0,0.0,0.0,0.0,0.0,0.0,2.6691,0.0,0.0,2.6691,2.6691,2.6792,2.6893,2.6942,2.704,2.7103,2.7218,2.7267,2.7267,2.7267,2.7267,2.725,2.712,2.707,0.0,0.0,0.0,2.6876,2.6859,2.6589,2.6295,0.0,0.0,2.5378,0.0,2.5091,2.5029,0.0,0.0,2.5133,0.0,2.6394,2.655,2.7762,2.7905,2.774,2.7452,2.7196,2.6884,2.6404,2.5988,2.5564,2.5118,2.4905,2.4607,2.4171,2.3734,2.3185,2.2714,2.1889,2.14,2.1285,2.0786,2.0388,2.0172,1.9639,1.911,1.8576,1.8046,1.7364,1.6673,1.6333,1.6202,1.6202,1.6385,1.6802,1.7304,1.7304,1.7097,1.6742,1.6899,1.6899,1.6751,1.6682,1.6396,1.604,1.6184,1.5921,1.5485,0.0,0.0,0.0,0.0,0.0,0.0,0.0,0.0,0.0,0.0,0.0,0.0,0.0,0.0,0.0,2.5791,2.5917,2.5954,2.5954,2.5954,2.599,2.6043,2.6096,2.6115,0.0,0.0,0.0,0.0,0.0,0.0,0.0,2.6691,2.6691,0.0,0.0,0.0,0.0,2.6691,2.6792,2.6959,2.6975,2.7072,2.7233,2.7282,2.7299,2.7299,2.7299,2.7299,2.7282,2.7233,2.7152,2.7103,2.7087,0.0,0.0,0.0,2.6708,2.6417,2.6241,2.6026,2.5791,0.0,2.5476,2.5362,2.5123,2.51,2.529,2.602,2.6352,2.6826,2.7893,2.794,2.769,2.7335,2.7041,2.6727,2.6258,2.5893,2.5508,2.5061,2.4708,2.4305,2.3793,2.3173,2.2555,2.1951,2.125,2.0752,2.056,1.9987,1.9594,1.9365,1.8834,1.8297,1.7755,1.7207,1.6446,1.5463,1.5196,1.5062,1.5125,1.5251,1.5807,1.6664,1.6612,1.6403,1.6114,1.6132,1.5931,1.5661,1.5584,1.5427,1.5164,1.5296,1.505,1.4771,0.0,0.0,0.0,0.0,0.0,0.0,0.0,0.0,0.0,0.0,0.0,0.0,0.0,0.0,0.0,0.0,2.6043,2.6063,2.6063,2.6063,2.6115,2.622,2.622,2.622,2.622,0.0,0.0,0.0,0.0,0.0,2.6691,2.6691,2.6691,0.0,2.6691,2.6691,0.0,0.0,2.6808,2.6975,2.6975,2.7089,2.7218,2.7218,2.7218,2.7218,2.7218,2.725,2.725,2.725,2.7201,2.7152,2.7152,2.7087,0.0,0.0,0.0,2.6606,0.0,0.0,2.617,2.599,2.5864,2.5717,0.0,0.0,2.5564,2.5916,2.6277,2.6876,2.7857,2.7917,2.764,2.7233,2.6922,2.6553,2.5988,2.5674,2.5342,2.4778,2.4363,2.3813,2.316,2.2482,2.1815,2.1135,2.042,1.9901,1.9704,1.9044,1.8576,1.8355,1.7716,1.7104,1.6585,1.5948,1.5171,1.4322,1.4042,1.3932,1.3848,1.3976,1.4481,1.5247,1.5536,1.55,1.5196,1.5072,1.4858,1.4595,1.4451,1.4296,1.4244,1.4301,1.4136,1.3885,0.0,0.0,0.0,0.0,0.0,0.0,0.0,0.0,0.0,0.0,0.0,0.0,0.0,2.5974,2.6063,2.6168,2.6168,2.6168,2.6168,2.6168,2.6168,2.622,2.622,0.0,2.622,2.622,0.0,0.0,0.0,0.0,2.6691,2.6691,2.6691,2.6691,2.6691,2.6691,2.6691,0.0,0.0,2.6893,2.6893,2.6959,2.7024,2.7024,2.7024,2.7024,2.7024,2.7055,2.7103,2.7103,2.7184,2.7282,2.7282,2.7201,2.7103,0.0,0.0,0.0,0.0,2.6349,0.0,2.6063,2.599,0.0,0.0,0.0,2.602,2.6435,2.6334,2.6467,2.7515,2.7791,2.7655,2.7107,2.675,2.6283,2.5522,2.5203,2.4708,2.3969,2.3603,2.31,2.2224,2.1553,2.0869,2.0226,1.9365,1.8767,1.8566,1.7881,1.7404,1.7207,1.6156,1.5532,1.5267,1.4178,1.3608,1.3535,1.3178,1.2811,1.2579,1.2579,1.2486,1.2373,1.3767,1.4151,1.3716,1.3716,1.3584,1.3483,1.3483,1.3278,1.2987,1.3156,1.2995,1.2715,0.0,0.0,0.0,0.0,0.0,0.0,0.0,0.0,0.0,0.0,0.0,0.0,0.0,2.6115,2.6168,2.622,2.622,2.622,2.622,2.622,2.622,2.622,2.622,2.622,2.622,2.622,0.0,0.0,0.0,2.6572,2.6691,2.6691,2.6691,2.6691,2.6691,2.6691,2.6691,2.6691,0.0,0.0,2.6893,2.6959,2.7007,2.7007,2.7007,2.6975,2.6959,2.6942,2.6975,2.6975,2.7007,2.7057,2.7089,2.7087,2.7103,2.7103,2.712,2.7089,0.0,0.0,0.0,2.6364,2.6222,2.6115,2.6096,2.6096,2.6089,2.6134,2.6351,2.6527,2.6625,2.698,2.718,2.7122,2.6788,2.6229,2.5508,2.5147,2.465,2.3767,2.322,2.2396,2.1207,2.037,1.9421,1.8365,1.7644,1.7064,1.6749,1.6101,1.557,1.5227,1.4631,1.4009,1.3186,1.2493,1.1934,1.1724,1.1462,1.1269,1.1166,1.1166,1.1108,1.1024,1.158,1.2103,1.2626,1.2474,1.2422,1.2343,1.2204,1.2208,1.2178,1.2226,1.2212,1.2243,0.0,0.0,0.0,0.0,0.0,0.0,0.0,0.0,0.0,0.0,0.0,0.0,0.0,0.0,2.622,2.622,2.622,2.622,2.622,2.622,2.622,2.622,2.622,2.622,2.622,2.622,0.0,0.0,0.0,0.0,0.0,2.6691,2.6691,2.6691,2.6691,2.6691,0.0,0.0,0.0,2.6842,2.6842,2.6859,2.6892,2.6876,2.6842,2.6792,2.6725,2.6708,2.6708,2.6708,2.6742,2.6809,2.6876,2.6973,2.7103,2.7152,2.7201,2.7169,2.6992,0.0,0.0,0.0,2.638,2.6274,2.6222,2.6274,2.6239,2.6063,2.6278,2.6482,2.6334,2.6549,2.6719,2.6698,2.6301,2.5721,2.4898,2.4436,2.3824,2.2827,2.2051,2.1127,1.9882,1.8927,1.7925,1.6878,1.61,1.5533,1.521,1.4575,1.3925,1.3262,1.3032,1.2438,1.1478,1.1022,1.0729,1.0453,1.0118,0.9869,0.9782,0.9714,0.9736,0.9655,0.9655,1.0381,1.156,1.1344,1.1302,1.1367,1.1166,1.1234,1.1373,1.1373,1.149,1.1615,0.0,0.0,0.0,0.0,0.0,0.0,0.0,0.0,0.0,0.0,0.0,0.0,0.0,0.0,0.0,2.622,2.622,2.622,2.622,2.622,2.622,2.622,2.622,2.622,2.622,2.6203,0.0,0.0,0.0,0.0,0.0,0.0,2.6691,2.6691,2.6691,2.6691,2.6691,0.0,2.6691,2.6691,2.6691,2.6691,2.6691,2.664,2.6521,2.6383,2.6314,2.6295,2.6295,2.6295,2.6435,2.6607,2.6657,2.6891,2.7103,2.725,2.7201,2.7103,0.0,0.0,0.0,0.0,0.0,0.0,2.633,2.6399,2.6468,2.633,2.626,2.6297,2.6635,2.6548,2.6233,2.5773,2.5319,2.4687,2.3742,2.3029,2.2226,2.1151,2.0238,1.9301,1.833,1.7338,1.6461,1.5762,1.4932,1.4279,1.3942,1.3345,1.2461,1.129,1.1236,1.0918,1.0195,0.9971,0.9881,0.9811,0.926,0.879,0.8565,0.8435,0.8317,0.8172,0.8172,0.9023,1.0394,1.0261,1.0295,1.0561,1.0364,1.0371,1.0561,1.0561,1.0681,1.0807,0.0,0.0,0.0,0.0,0.0,0.0,0.0,0.0,0.0,0.0,0.0,0.0,0.0,0.0,2.622,2.622,2.622,2.622,2.622,2.622,2.622,2.622,2.622,2.622,2.622,2.6258,0.0,0.0,0.0,0.0,0.0,0.0,0.0,0.0,2.6691,2.6691,2.6691,2.6691,0.0,2.6691,2.6657,2.6589,2.6487,2.64,2.626,2.6118,2.6026,2.5937,2.5885,2.599,2.6063,2.617,2.6521,2.6775,2.6975,2.712,2.7135,2.7103,2.7007,0.0,0.0,0.0,0.0,0.0,2.6434,2.6485,2.652,2.6572,2.6556,2.6589,2.6616,2.6471,2.6192,2.5758,2.5626,2.5257,2.4234,2.3458,2.2511,2.1288,2.025,1.9107,1.769,1.6567,1.5472,1.4399,1.3517,1.283,1.2451,1.1411,1.0535,0.9891,0.9705,0.9521,0.9196,0.9002,0.8766,0.8496,0.8097,0.7802,0.7612,0.7404,0.7377,0.7461,0.7461,0.7887,0.8537,0.9,0.9409,0.9779,0.9658,0.9728,0.9996,0.9996,1.0117,1.0238,0.0,0.0,0.0,0.0,0.0,0.0,0.0,0.0,0.0,0.0,0.0,0.0,0.0,0.0,0.0,2.622,2.622,2.622,2.622,2.622,2.622,2.622,2.622,2.622,2.622,2.6277,2.6382,0.0,0.0,0.0,0.0,0.0,0.0,0.0,0.0,0.0,0.0,0.0,0.0,2.6691,2.664,2.6486,2.6349,2.6137,2.5885,2.5663,2.5605,2.5476,2.5384,2.5584,2.5749,2.5954,2.6382,2.664,2.6809,2.699,2.7055,2.7023,2.6975,2.6825,2.6674,2.6572,0.0,0.0,2.6485,2.652,2.6572,2.6657,2.6674,2.6674,2.6589,2.6452,2.6241,2.5864,2.5703,2.5221,2.3981,2.307,2.2081,2.086,1.9698,1.8452,1.7122,1.5802,1.4578,1.3467,1.2405,1.1406,1.0521,0.9627,0.8994,0.849,0.8366,0.8177,0.7977,0.7852,0.7591,0.7326,0.6999,0.6741,0.6539,0.6342,0.6342,0.6544,0.6609,0.6872,0.7195,0.7722,0.8301,0.8941,0.8882,0.9081,0.935,0.9291,0.935,0.9536,0.0,0.0,0.0,0.0,0.0,0.0,0.0,0.0,0.0,0.0,0.0,0.0,0.0,0.0,0.0,0.0,2.622,2.622,2.622,2.622,0.0,2.622,2.622,2.622,2.622,2.6277,2.6382,2.6485,0.0,0.0,0.0,0.0,0.0,0.0,0.0,0.0,0.0,0.0,0.0,2.6708,2.6589,2.6417,2.6189,2.5775,2.5422,2.5114,2.5052,2.4974,2.4918,2.5201,2.5562,2.5917,2.6243,2.6435,2.6606,2.6876,2.6909,2.6859,2.6893,2.6792,2.6708,2.664,2.6606,0.0,2.652,2.6554,2.6623,2.6606,2.6657,2.664,2.6537,2.6468,2.6329,2.597,2.5621,2.4887,2.352,2.2472,2.1411,2.0283,1.9032,1.7852,1.6778,1.5177,1.3837,1.2818,1.1329,0.9875,0.8474,0.7957,0.7572,0.712,0.6999,0.6863,0.6724,0.6601,0.6404,0.6199,0.5881,0.562,0.5481,0.5292,0.5359,0.555,0.5752,0.6013,0.6334,0.6539,0.7195,0.8037,0.8102,0.8306,0.8641,0.8447,0.8511,0.8635,2.9026,0.0,0.0,0.0,0.0,0.0,0.0,0.0,0.0,0.0,0.0,0.0,0.0,0.0,0.0,0.0,2.622,2.622,2.622,2.622,0.0,2.622,2.622,2.622,2.622,2.638,2.6485,2.6485,0.0,0.0,0.0,0.0,0.0,0.0,0.0,0.0,0.0,0.0,0.0,2.6842,2.6417,2.6082,2.5775,2.5362,2.5013,2.471,2.4645,2.4605,2.4645,2.5029,2.5355,2.5712,2.5934,2.6134,2.6312,2.6469,2.6589,2.6674,2.6859,2.6893,2.6842,2.6708,2.6674,0.0,2.6606,2.6589,2.6657,2.6826,2.6708,2.6589,2.6589,2.633,2.6066,2.5974,2.5551,2.4926,2.4112,2.3303,2.2363,2.1315,2.0016,1.8785,1.7654,1.5706,1.3972,1.2663,1.004,0.7947,0.6645,0.6252,0.5862,0.5342,0.547,0.547,0.5467,0.5404,0.5342,0.5077,0.4752,0.4619,0.4553,0.4359,0.4495,0.496,0.5156,0.5418,0.5745,0.5951,0.6474,0.7186,0.7326,0.7526,0.7717,0.7722,0.7717,0.7652,2.9185,0.0,0.0,0.0,0.0,0.0,0.0,0.0,0.0,0.0,0.0,0.0,0.0,0.0,0.0,0.0,0.0,0.0,0.0,0.0,0.0,0.0,2.6168,2.6203,2.6258,2.6415,2.652,2.6554,0.0,0.0,0.0,0.0,0.0,0.0,0.0,0.0,0.0,0.0,2.6825,2.6759,2.6435,2.6066,2.5663,2.513,2.4695,2.4317,2.4193,2.4276,2.4441,2.4831,2.5146,2.5394,2.5659,2.5828,2.5937,2.6154,2.633,2.6486,2.6623,2.6725,2.6792,2.6742,2.6691,0.0,0.0,2.6589,2.6521,2.6589,2.6365,2.6118,2.6013,2.5705,2.5443,2.546,2.5044,2.4536,2.4028,2.3332,2.2637,2.196,2.0382,1.902,1.8186,1.578,1.2929,0.9775,0.7648,0.6056,0.5067,0.4945,0.448,0.3476,0.4079,0.4348,0.4143,0.4348,0.442,0.4295,0.3823,0.3553,0.3418,0.3489,0.3694,0.4028,0.4292,0.4556,0.4821,0.502,0.5282,0.5672,0.6408,0.6802,0.6924,0.6798,0.6593,0.6457,2.9373,0.0,0.0,0.0,0.0,0.0,0.0,0.0,0.0,0.0,0.0,0.0,0.0,0.0,0.0,0.0,0.0,0.0,0.0,0.0,0.0,0.0,2.6151,2.6258,2.6347,2.6468,2.6554,2.6606,0.0,0.0,0.0,0.0,0.0,0.0,0.0,0.0,0.0,0.0,0.0,2.6708,2.6453,2.6049,2.5513,2.4879,2.4343,2.3897,2.3754,2.3909,2.4219,2.4533,2.4775,2.4974,2.5301,2.5416,2.5454,2.5701,2.5957,2.6137,2.6279,2.6453,2.6624,2.6624,2.6624,2.6624,0.0,0.0,0.0,2.6208,2.5885,2.5551,2.5329,2.4981,2.4688,2.4688,2.4194,2.3688,2.3286,2.2359,2.1764,2.1932,2.0117,1.8756,1.8335,1.532,1.1463,0.6716,0.538,0.4273,0.3276,0.342,0.3017,0.174,0.2613,0.295,0.2614,0.3017,0.3224,0.3297,0.2755,0.2485,0.235,0.2621,0.2889,0.3092,0.3424,0.3625,0.3825,0.4023,0.4087,0.4217,0.5418,0.6009,0.6005,0.5741,0.5474,0.5203,2.9531,2.9373,0.0,0.0,0.0,0.0,0.0,0.0,0.0,0.0,0.0,0.0,0.0,0.0,0.0,0.0,0.0,0.0,2.5738,2.5828,0.0,0.0,2.6241,2.6347,2.6485,2.6554,2.6589,0.0,0.0,0.0,0.0,0.0,0.0,0.0,2.6606,0.0,0.0,0.0,2.6775,2.6842,2.6332,2.5742,2.5091,2.4436,2.3909,2.3553,2.3407,2.348,2.3724,2.4078,2.4287,2.4426,2.467,2.471,2.4735,2.4942,2.5253,2.5572,2.5779,2.6085,2.6365,2.6365,2.6383,2.6383,2.6295,0.0,2.601,2.5868,0.0,2.5114,2.4981,0.0,0.0,2.3861,2.3054,2.2207,2.1579,1.942,1.8588,2.0388,1.8992,1.7881,1.7861,1.405,0.991,0.591,0.4249,0.2604,0.0803,0.0872,0.0739,0.0269,0.0336,0.047,0.0604,0.0941,0.1142,0.1412,0.1344,0.1412,0.1681,0.1748,0.2151,0.2753,0.2684,0.282,0.3023,0.322,0.3349,0.3418,0.4558,0.4894,0.4824,0.4755,0.4422,0.3956,2.9663,2.9474,0.0,0.0,0.0,0.0,0.0,0.0,0.0,0.0,0.0,0.0,0.0,2.5937,2.5701,2.54,2.5362,2.5362,2.5362,2.5605,0.0,0.0,2.6151,2.6329,2.6502,2.652,0.0,0.0,2.6708,0.0,0.0,0.0,0.0,0.0,2.6623,0.0,2.6623,0.0,2.6555,2.6521,2.603,2.5368,2.4664,2.423,2.3638,2.2963,2.2828,2.2859,2.3009,2.3319,2.345,2.3565,2.3752,2.3794,2.3837,2.409,2.4389,2.4752,2.495,2.5389,2.5758,2.5689,2.5815,2.5957,2.5775,2.5589,2.54,2.5176,0.0,0.0,0.0,0.0,0.0,0.0,2.1472,2.0348,1.9195,1.6623,1.5591,1.7607,1.6111,1.4227,1.2543,0.9836,0.6539,0.2625,0.0993,-0.0,-0.0667,-0.0602,-0.0805,-0.1277,-0.148,-0.1344,-0.0941,-0.0739,-0.0336,0.0202,0.0202,0.0336,0.0673,0.0875,0.1008,0.1141,0.1208,0.1478,0.1882,0.1947,0.2013,0.208,0.2883,0.3489,0.3761,0.3761,0.3422,0.2952,2.9836,0.0,0.0,0.0,0.0,0.0,0.0,0.0,0.0,0.0,0.0,0.0,2.6099,2.5828,2.5513,2.5091,2.5029,2.5029,2.5013,2.5301,2.5567,2.5844,2.6043,2.6258,2.6468,2.652,2.6572,0.0,0.0,0.0,0.0,0.0,0.0,0.0,0.0,2.6623,2.6537,0.0,2.6329,2.6189,2.5701,2.4902,2.4017,2.3709,2.3113,2.2417,2.2231,2.2217,2.2282,2.2526,2.2589,2.256,2.2696,2.2682,2.2682,2.2921,2.323,2.3503,2.3646,2.4148,2.4649,2.4554,2.4823,2.5105,2.4934,2.4768,2.4583,2.4282,2.3694,0.0,0.0,0.0,0.0,0.0,0.0,1.8354,1.6678,1.3651,1.2198,1.3979,1.2092,0.9704,0.7269,0.5612,0.3394,0.0329,-0.1195,-0.2,-0.2071,-0.1809,-0.188,-0.2357,-0.2626,-0.249,-0.1951,-0.1884,-0.148,-0.0874,-0.0807,-0.0538,-0.0135,0.0134,0.0067,-0.0135,0.0067,0.0404,0.0673,0.074,0.0806,0.0874,0.1477,0.2014,0.2554,0.2891,0.2757,0.2284,3.009,2.9823,0.0,0.0,0.0,0.0,0.0,0.0,0.0,2.7539,2.7085,2.6624,2.6241,2.5828,2.54,2.4942,2.4831,2.4806,2.4815,2.5013,2.5285,2.5701,2.5901,2.6118,2.6383,2.6521,2.6623,0.0,0.0,0.0,0.0,0.0,0.0,0.0,0.0,2.6521,2.6383,2.6258,2.6115,2.5974,2.5422,2.4364,2.3083,2.2495,2.217,2.1996,2.1698,2.1616,2.1664,2.1793,2.1684,2.1452,2.152,2.1397,2.1178,2.1322,2.1533,2.1694,2.1834,2.2326,2.2775,2.2775,2.3273,2.3719,2.3576,2.3563,2.3507,2.3304,2.2756,2.2267,2.1993,0.0,0.0,0.0,0.0,0.0,0.0,1.0296,0.8124,0.9396,0.6806,0.4491,0.3382,0.2216,0.1211,0.0329,-0.1194,-0.2541,-0.3643,-0.2762,-0.2357,-0.2831,-0.2757,-0.2621,-0.2357,-0.2424,-0.2221,-0.1749,-0.1614,-0.121,-0.047,-0.047,-0.0471,-0.0472,-0.0404,-0.0337,-0.0337,-0.0067,0.0067,0.0067,0.0538,0.0739,0.0941,0.2087,0.2357,0.2154,0.0,0.0,0.0,0.0,0.0,0.0,0.0,2.8881,2.8774,2.8426,2.8319,2.7977,2.7097,2.6515,2.5782,2.4766,2.4549,2.4482,2.4467,2.467,2.4934,2.5285,2.5422,2.561,2.5905,2.6063,2.6277,0.0,0.0,0.0,0.0,0.0,0.0,0.0,0.0,2.6657,0.0,2.601,2.5717,2.5416,2.4307,2.3289,2.242,2.2077,2.1746,2.141,2.097,2.0772,2.0673,2.0597,2.0434,2.0219,2.008,1.9864,1.9647,1.9558,1.961,1.9788,1.9826,2.0174,2.0625,2.0775,2.1159,2.155,2.1605,2.1572,2.1492,2.1145,2.0374,1.9649,1.928,0.0,0.0,0.0,0.0,0.0,0.0,0.3467,-0.2183,-0.3493,-0.2133,-0.1843,-0.3835,-0.3573,-0.2328,-0.0,0.0081,0.086,0.2825,0.2171,0.0636,-0.1738,-0.2618,-0.3157,-0.3293,-0.3224,-0.3023,-0.2757,-0.2554,-0.2082,-0.1342,-0.1276,-0.1211,-0.1076,-0.1076,-0.1009,-0.0875,-0.0741,-0.0741,-0.0674,-0.0,0.0269,0.0337,0.1211,0.1614,0.1614,3.1851,0.0,0.0,0.0,3.035,3.0098,2.9866,2.987,2.9719,2.9321,2.9178,2.8691,2.7517,2.6858,2.5998,2.4733,2.4426,2.4261,2.4193,2.4343,2.4533,2.4775,2.4863,2.5059,2.5422,2.5626,2.5921,2.6297,0.0,2.6725,0.0,0.0,0.0,0.0,0.0,2.664,2.6262,2.5758,2.5285,2.4831,2.3478,2.2483,2.1799,2.1382,2.1055,2.0723,2.0271,1.9965,1.9759,1.9567,1.9307,1.8939,1.8691,1.8359,1.8024,1.7773,1.7684,1.765,1.7519,1.7721,1.7972,1.7984,1.8382,1.8824,1.8873,1.8873,1.8809,1.8446,1.7543,1.671,1.6314,1.5542,0.0,0.0,0.0,0.0,0.0,-0.2573,-0.8887,-1.2293,-0.9761,-0.802,-0.879,-0.607,-0.2579,0.1428,0.5001,0.9034,1.3711,0.885,0.4449,0.1245,-0.1699,-0.3618,-0.4553,-0.4284,-0.402,-0.3756,-0.3489,-0.3017,-0.228,-0.2149,-0.1883,-0.1547,-0.148,-0.1344,-0.1144,-0.1146,-0.1079,-0.1079,-0.0607,-0.0404,-0.027,0.074,0.1211,0.1277,3.2981,3.2775,3.2538,3.2277,3.1995,3.1737,3.1531,3.1154,3.0686,3.0221,2.9659,2.8846,2.7654,2.6973,2.611,2.4826,2.4503,2.428,2.407,2.4067,2.412,2.4261,2.4338,2.4511,2.4823,2.5176,2.5594,2.6068,0.0,0.0,0.0,0.0,0.0,0.0,2.6875,0.0,2.6052,2.5443,2.4799,2.4078,2.2905,2.1988,2.1224,2.0434,2.0042,1.9837,1.9604,1.9303,1.8881,1.8673,1.8255,1.7722,1.7401,1.689,1.6327,1.5975,1.5688,1.538,1.5003,1.4946,1.4888,1.458,1.4983,1.5445,1.5435,1.5527,1.5507,1.5206,1.4231,1.3348,1.3075,1.2576,0.0,0.0,0.0,0.0,0.0,-0.7587,-1.1895,-1.6634,-1.578,-1.3823,-1.135,-0.545,0.0059,0.4565,1.2803,2.0438,2.694,1.6539,0.8919,0.5681,0.0062,-0.3904,-0.6001,-0.5606,-0.5209,-0.4882,-0.455,-0.4018,-0.3284,-0.3088,-0.2621,-0.1951,-0.1749,-0.1547,-0.1344,-0.1146,-0.1079,-0.1079,-0.1079,-0.1079,-0.0877,0.0607,0.1078,0.1076,3.3756,3.4159,3.4371,3.4149,3.2949,3.1952,3.176,3.1751,3.1618,3.1178,3.1029,3.054,2.9366,2.8622,2.7734,2.6488,2.5521,2.49,2.477,2.4197,2.3824,2.3767,2.3809,2.3879,2.4063,2.4395,2.4879,2.5443,2.5864,0.0,2.6708,0.0,0.0,0.0,0.0,2.6365,2.5815,2.5012,2.3918,2.2663,2.1846,2.1077,2.0283,1.9592,1.8792,1.8135,1.8483,1.8387,1.7995,1.7545,1.7056,1.6492,1.6063,1.5419,1.466,1.41,1.3502,1.3011,1.2684,1.2279,1.1996,1.192,1.1867,1.1926,1.1827,1.1661,1.1308,1.0597,0.9291,0.8191,0.7856,0.7651,0.7765,0.0,0.0,0.0,-0.6816,-1.118,-1.5117,-1.9322,-1.9408,-1.7374,-1.2987,-0.7717,-0.1193,0.698,1.3001,1.8184,2.254,1.9496,1.3792,0.5441,0.2674,-0.1402,-0.7154,-0.6963,-0.6698,-0.6384,-0.5745,-0.502,-0.4223,-0.3892,-0.3357,-0.269,-0.2688,-0.2353,-0.1951,-0.1345,-0.1009,-0.0807,-0.0606,-0.0337,0.0135,0.0809,0.1079,0.1078,3.4723,3.5048,3.5174,3.4964,3.4017,3.3152,3.2818,3.2665,3.2475,3.2044,3.1759,3.1175,3.0015,2.9343,2.8433,2.7179,2.6271,2.5553,2.5043,2.446,2.3895,2.3392,2.3334,2.3334,2.3377,2.3782,2.4313,2.4942,2.5513,0.0,2.6452,0.0,0.0,0.0,0.0,2.5994,2.5335,2.4039,2.2712,2.1417,2.0769,2.0016,0.0,1.8566,1.7699,1.6866,1.6856,1.6856,1.6698,1.6244,1.5671,1.5099,1.4405,1.3691,1.2976,1.2219,1.1549,1.0927,1.0412,0.9819,0.9231,0.8891,0.8678,0.8392,0.8028,0.7681,0.7206,0.6227,0.4897,0.3885,0.3702,0.3781,0.4059,0.4798,0.2222,-0.2455,-0.997,-1.3502,-1.7027,-2.1625,-2.0968,-1.7906,-1.2178,-0.674,-0.0567,0.6787,1.2896,1.7716,2.102,1.9858,1.6597,1.12,0.5287,-0.0,-0.4568,-0.7751,-0.8977,-0.8115,-0.7233,-0.6133,-0.4888,-0.4492,-0.3894,-0.3092,-0.3092,-0.2824,-0.2354,-0.1681,-0.1277,-0.1008,-0.0808,-0.0539,-0.0202,0.0539,0.0809,0.0809,3.5601,3.5502,3.535,3.5162,3.4964,3.4651,3.4105,3.3616,3.3172,3.2687,3.2038,3.1247,3.0188,2.9596,2.8779,2.7604,2.702,2.6284,2.5361,2.4912,2.4252,2.3244,2.3065,2.2931,2.2799,2.3246,2.3794,2.4461,2.5214,0.0,0.0,0.0,0.0,0.0,0.0,0.0,0.0,2.2653,2.128,2.0294,1.9594,1.8756,1.795,1.7324,1.6553,1.5651,1.5021,1.5021,1.5255,1.4777,1.4186,1.3468,1.2647,1.1851,1.1114,1.0286,0.9533,0.8901,0.8259,0.7483,0.6767,0.6044,0.5647,0.5239,0.4364,0.382,0.3152,0.2095,0.0919,0.0066,-0.0,0.0461,0.0991,0.1525,-0.0527,-0.4985,-1.2993,-1.5261,-1.8031,-2.3301,-2.1379,0.0,-1.0766,-0.4828,0.0572,0.5183,1.2141,1.7469,2.042,1.9052,1.8206,1.8268,0.7718,0.0966,-0.1315,-0.8579,-1.1573,-1.0239,-0.8937,-0.7404,-0.5727,-0.5348,-0.4622,-0.3689,-0.3689,-0.3422,-0.2954,-0.2418,-0.1882,-0.148,-0.1211,-0.1078,-0.1012,-0.0135,0.027,0.0404,3.5612,3.554,3.5416,3.5235,3.5053,3.4792,3.4316,3.3787,3.3314,3.2844,3.2214,3.1623,3.1043,3.0459,2.9852,2.9219,2.8205,2.7364,2.6841,2.6046,2.5029,2.3792,2.3623,2.3177,2.2324,2.2663,2.3143,2.3767,2.4558,0.0,0.0,0.0,0.0,0.0,0.0,0.0,2.2744,2.137,0.0,1.8984,1.8143,1.7213,1.6317,1.5736,1.4866,1.3879,1.3226,1.3408,1.3948,1.3322,1.2456,1.1534,1.0711,0.9762,0.8809,0.7965,0.7071,0.6367,0.584,0.5526,0.5279,0.4755,0.4156,0.3282,0.1736,0.0466,-0.0731,-0.1723,-0.2913,-0.3843,-0.4043,-0.265,-0.1393,-0.1128,-0.264,-0.7541,-1.7968,-1.7786,-1.8434,-2.3458,-2.1812,-1.8163,-1.2854,-0.6884,-0.1057,0.4314,0.9528,1.3707,1.6606,1.997,1.982,0.0,0.9355,0.2446,0.0,-1.0986,-1.3672,-1.3208,-1.1273,-0.9599,-0.8104,-0.7603,-0.6902,-0.6059,-0.6199,-0.5675,-0.4619,-0.4215,-0.3215,-0.1952,-0.1347,-0.1079,-0.1079,-0.0877,-0.0472,0.0067,3.6334,3.664,3.6839,3.6675,3.6192,3.5682,3.5206,3.4352,3.3505,3.2827,3.2248,3.1728,3.1269,3.0716,3.0182,2.975,2.8819,2.7938,2.7255,2.6432,2.5475,2.4303,2.3765,2.3212,2.2566,2.2573,2.2754,2.3246,2.4063,0.0,0.0,0.0,0.0,0.0,0.0,2.2878,0.0,0.0,1.8737,1.7478,1.6711,1.5746,1.4758,1.4091,1.3184,1.2097,1.1348,1.0829,1.0615,1.0954,1.0329,0.9249,0.8414,0.7862,0.7372,0.6445,0.5731,0.5143,0.4541,0.3877,0.3213,0.2616,0.2014,0.1141,-0.0402,-0.1605,-0.2736,-0.4193,-0.519,-0.5917,-0.592,-0.4851,-0.3919,-0.3916,-0.5026,-0.8944,-1.7557,-1.7844,-1.8984,-2.388,-2.2307,-1.9146,-1.4949,-1.0427,-0.5532,-0.0129,0.3727,0.7491,1.1255,1.59,1.7669,0.0,0.0,0.0,-0.3078,0.0,-1.5141,-1.5383,-1.3557,-1.1949,-1.0656,-0.984,-0.8902,-0.7955,-0.8094,-0.7589,-0.6502,-0.5592,-0.4602,-0.3542,-0.2479,-0.1944,-0.1877,-0.2281,-0.1878,-0.1007,3.7298,3.7801,3.8183,3.8053,3.7243,3.6463,3.6042,3.488,3.3758,3.2908,3.23,3.1748,3.1291,3.0814,3.03,2.9837,2.915,2.8341,2.7469,2.6861,2.5956,2.4805,2.4007,2.3371,2.2848,2.2484,2.2447,2.279,2.3451,0.0,0.0,0.0,0.0,0.0,0.0,0.0,0.0,0.0,1.7203,1.585,1.5041,1.404,1.3036,1.2342,1.1341,1.0216,0.9319,0.8094,0.7062,0.7896,0.7643,0.6807,0.5963,0.5723,0.5481,0.4616,0.4084,0.3687,0.3017,0.2078,0.1073,0.0403,-0.0269,-0.1141,-0.2348,-0.3347,-0.4408,-0.5866,-0.6789,-0.7316,-0.7111,-0.6519,-0.6121,-0.6384,-0.7154,-0.9982,-1.6315,-1.7559,-1.959,-2.4377,-2.2962,-2.0281,-1.6966,-1.3972,-1.0199,-0.5315,-0.1649,0.2202,0.6497,0.0,0.0,0.0,0.7966,0.2244,-0.1385,0.0,-1.6014,-1.6894,-1.5522,-1.4321,-1.3276,-1.2528,-1.1669,-1.0653,-1.0505,-0.9582,-0.8035,-0.6233,-0.5259,-0.4797,-0.3407,-0.2811,-0.2811,-0.3485,-0.2538,-0.073,3.8266,3.8268,3.8276,3.8179,3.7353,3.6573,3.6235,3.508,3.3981,3.3184,3.2537,3.1966,3.1334,3.0838,3.03,2.9837,2.9212,2.8654,2.8143,2.7735,2.6819,2.54,2.4836,2.3967,2.2764,2.215,2.2019,2.2377,2.2605,2.3025,0.0,0.0,0.0,0.0,0.0,0.0,1.8047,1.6594,1.5216,1.3903,1.2882,1.192,1.101,1.0242,0.914,0.7911,0.714,0.5763,0.4317,0.3926,0.4191,0.4455,0.3732,0.2937,0.2206,0.1472,0.1006,0.0604,0.0201,-0.0201,-0.0605,-0.1076,-0.2353,-0.3632,-0.4236,-0.5439,-0.6568,-0.699,-0.7967,-0.8689,-0.8361,-0.7902,-0.7642,-0.7902,-0.8474,-1.1059,-1.7371,-1.8407,-2.023,-2.4896,-2.3836,-2.1661,-1.8966,-1.6216,-1.3067,-0.9331,-0.3661,0.1046,0.4333,0.0,0.0,1.014,0.4579,-0.0553,-0.5075,-1.1775,-1.5983,-1.7591,-1.7021,-1.6469,-1.5958,-1.6276,-1.6204,-1.573,-1.4474,-1.2072,-0.8815,-0.5505,-0.4273,-0.4287,-0.3301,-0.3175,-0.3585,-0.3652,-0.0866,0.3396,3.9228,3.9609,3.9902,3.983,3.9021,3.828,3.7983,3.6882,3.5683,3.4512,3.3234,3.2214,3.1654,3.114,3.0658,3.0087,2.9393,2.8701,2.7959,2.7473,2.6739,2.5621,2.4747,2.3838,2.2858,2.2053,2.1454,2.116,2.1549,2.178,0.0,0.0,0.0,0.0,0.0,1.7169,1.5642,1.4412,1.3142,1.1828,1.103,1.0034,0.896,0.8179,0.7006,0.5636,0.4716,0.3458,0.2132,0.1336,0.1603,0.227,0.1671,0.0937,0.0268,-0.0201,-0.1208,-0.2217,-0.2353,-0.2485,-0.2751,-0.3224,-0.3625,-0.4156,-0.5024,-0.5892,-0.6811,-0.7647,-0.8554,-0.9145,-0.9011,-0.8812,-0.8812,-0.9192,-1.1081,-1.4002,-1.834,-2.0403,-2.2592,-2.5563,-2.4681,-2.295,-2.0839,-1.7845,-1.4611,-1.1209,-0.5958,-0.1641,0.1172,0.0,0.0,0.408,0.0,-0.2363,-0.6818,-1.0522,-1.2877,-1.3961,-1.2243,-1.1562,-1.172,-0.9544,-0.726,-0.4867,-0.1854,0.0156,0.1426,0.362,0.4564,0.4688,0.5616,0.5904,0.5808,0.5707,0.7103,0.9274,4.0151,4.0617,4.0992,4.0935,4.0174,3.948,3.9257,3.818,3.7031,3.5937,3.4357,3.2962,3.2037,3.1507,3.0948,3.0384,2.9617,2.8779,2.7864,2.7306,2.6539,2.5605,2.4557,2.3589,2.2602,2.1589,2.0767,2.0117,2.0316,2.0343,2.0105,0.0,0.0,0.0,1.6032,1.458,1.322,1.2027,1.0809,0.9572,0.8745,0.7713,0.6542,0.5694,0.4512,0.3195,0.2267,0.1134,-0.0067,-0.087,-0.0869,-0.0534,-0.0803,-0.114,-0.1544,-0.1813,-0.2887,-0.403,-0.403,-0.4159,-0.4422,-0.4827,-0.4818,-0.4945,-0.5939,-0.6531,-0.7186,-0.8231,-0.8882,-0.9274,-0.9145,-0.921,-0.9725,-1.0935,-1.3189,-1.6117,-1.9945,-2.2203,-2.4182,-2.6131,-2.5389,-2.4066,-2.2286,-1.9446,-1.6396,-1.3246,-0.9229,-0.5389,-0.1976,0.0,0.0,0.0,0.0,0.0,-0.8012,-0.9182,-0.9897,-1.011,-0.7843,-0.6834,-0.6885,-0.3721,-0.0484,0.2819,0.6106,0.7709,0.817,0.9896,1.0772,1.1145,1.2237,1.2709,1.2729,1.2551,1.3178,1.4278,4.0994,4.0991,4.1007,4.0992,4.0279,3.9657,3.9529,3.8485,3.7568,3.7224,3.5951,3.4347,3.2506,3.177,3.1167,3.0666,2.9848,2.9027,2.8176,2.7348,2.6375,2.5286,2.4323,2.317,2.1844,2.0623,1.9795,1.9379,1.8881,1.86,1.852,1.7058,1.5864,1.4869,1.3339,1.1996,1.0809,0.937,0.8099,0.7062,0.5829,0.471,0.3654,0.279,0.1664,0.0467,-0.02,-0.1269,-0.2409,-0.2744,-0.3476,-0.4143,-0.3694,-0.3493,-0.3487,-0.3689,-0.4084,-0.4475,-0.4475,-0.4875,-0.5342,-0.5533,-0.5997,-0.6531,-0.7256,-0.7777,-0.8366,-0.8888,-0.9145,-0.921,-0.8899,-0.9087,-1.0262,-1.3281,-1.4277,-1.6703,-2.2459,-2.3458,-2.4369,-2.6439,-2.6054,-2.4939,-2.3313,-2.1117,-1.8576,-1.5753,-1.3735,-1.0282,-0.4922,0.0,0.0,-0.5387,-0.6169,0.0,-0.8884,-0.8377,-0.7741,-0.694,-0.5247,-0.3805,-0.2626,-0.1383,0.0464,0.2774,0.4151,0.5835,0.7823,1.0488,1.1858,1.2411,1.3914,1.4313,1.4053,1.3944,1.5387,1.7737,4.0998,4.1049,4.1068,4.1074,4.0806,4.056,4.0526,4.0081,3.9449,3.8604,3.783,3.6582,3.4513,3.2977,3.1752,3.0988,3.0218,2.9239,2.8046,2.7093,2.6054,2.4808,2.3669,2.2421,2.0957,1.9867,1.8825,1.774,1.7567,1.6887,1.5799,1.446,1.3263,1.211,1.0698,0.9409,0.8292,0.7822,0.6506,0.4644,0.3049,0.199,0.1262,0.0133,-0.093,-0.193,-0.2795,-0.3661,-0.4463,-0.5058,-0.5782,-0.6441,-0.6506,-0.5727,-0.4749,-0.4951,-0.5536,-0.6117,-0.6117,-0.6645,-0.7177,-0.7307,-0.7572,-0.7967,-0.8554,-0.9075,-0.9466,-0.9536,-0.9606,-0.9542,-0.9215,-0.9408,-1.071,-1.3937,-1.6218,-1.9018,-2.3189,-2.5289,-2.657,-2.6992,-2.659,-2.5809,-2.4611,-2.2703,-2.0657,-1.8425,-1.685,-1.3871,-0.9074,0.0,0.0,0.0,-0.8382,0.0,-0.8409,-0.6945,-0.5172,-0.3023,0.0,0.3503,0.7426,0.9905,1.1845,1.3466,1.697,1.86,1.9,2.096,2.2052,2.264,2.3894,2.4044,2.354,2.3265,2.3245,2.3506,4.0957,4.0993,4.1031,4.1051,4.1032,4.1011,4.103,4.0914,4.0544,3.9835,3.9115,3.8097,3.6564,3.4558,3.2763,3.1418,3.0435,2.9297,2.7951,2.6857,2.5591,2.4079,2.2809,2.142,1.9727,1.8783,1.7678,1.6428,1.5842,1.4735,1.3249,1.1888,1.0598,0.9427,0.8089,0.708,0.6384,0.5529,0.4064,0.2131,0.0465,-0.0664,-0.1461,-0.2652,-0.3584,-0.4317,-0.5117,-0.5782,-0.6561,-0.8136,-0.9058,-0.9776,-1.1057,-1.0768,-0.9515,-0.735,-0.7242,-0.7757,-0.7687,-0.8146,-0.8608,-0.8683,-0.8812,-0.9406,-1.0971,-1.1597,-1.1779,-1.1495,-1.1559,-1.1551,-1.1191,-1.1319,-1.2919,-1.7455,-1.8558,-2.044,-2.4919,-2.6809,-2.7595,-2.7244,-2.6856,-2.6265,-2.5341,-2.3834,-2.2288,-2.0689,-1.9573,-1.7622,0.0,0.0,-1.1639,-1.1279,-1.0615,-0.9724,-0.8624,-0.6233,-0.3495,-0.0392,0.4666,0.9283,1.3483,1.5693,1.7265,1.8448,2.1806,2.3281,2.3533,2.5079,2.6096,2.6806,2.7695,2.7556,2.6817,2.6388,2.5571,2.476,4.0867,4.0878,4.0906,4.0967,4.0994,4.1016,4.1073,4.1035,4.0964,4.0824,3.9876,3.9019,3.8496,3.6347,3.4073,3.195,3.0623,2.9326,2.789,2.6486,2.4939,2.3301,2.1756,2.0149,1.8295,1.7385,1.6376,1.5213,1.3691,1.2211,1.087,0.9331,0.8006,0.6824,0.5526,0.4945,0.4821,0.2673,0.1002,-0.0334,-0.2,-0.333,-0.432,-0.538,-0.611,-0.6641,-0.7172,-0.7822,-0.8859,-1.1686,-1.3071,-1.4035,-1.6581,-1.7577,-1.6634,-1.087,-0.9511,-0.9884,-0.9749,-0.9784,-0.9893,-0.9893,-1.0086,-1.1004,-1.406,-1.5057,-1.5181,-1.4676,-1.4817,-1.489,-1.4595,-1.4553,-1.6503,-2.2489,-2.0858,-2.0927,-2.69,-2.7585,-2.7412,-2.7241,-2.6923,-2.6401,-2.5615,-2.453,-2.3503,-2.2593,-2.1824,-2.1266,0.0,0.0,-1.5099,-1.4092,-1.2841,-1.1301,-0.9518,-0.627,-0.2683,0.1358,0.8351,1.299,1.5455,1.6374,1.7274,1.816,1.9736,2.101,2.212,2.3655,2.4772,2.5598,2.6168,2.5776,2.4837,2.4233,2.3268,2.2291,4.0582,4.0681,4.0765,4.084,4.0898,4.0953,4.1019,4.105,4.1051,4.0968,4.0578,3.9975,3.9042,3.7278,3.5354,3.328,3.1201,2.9278,2.7595,2.5844,2.4063,2.225,2.0565,1.8808,1.6986,1.5974,1.4498,1.2631,1.1225,0.9913,0.8631,0.7313,0.5865,0.4458,0.3469,0.2608,0.1806,0.0468,-0.087,-0.2274,-0.4749,-0.5877,-0.6113,-0.7363,-0.8081,-0.8463,-0.9111,-1.0729,-1.2736,-1.3748,-1.5533,-1.7452,-1.8205,-1.8492,-1.8158,-1.6302,-1.605,-1.643,-1.6479,-1.5265,-1.3989,-1.3989,-1.4135,-1.4507,-1.5282,-1.7025,-1.8454,-1.8272,-1.8193,-1.8054,-1.7829,-1.7951,-1.8491,-1.9709,-1.9504,-2.0351,-2.3732,-2.4255,-2.5052,-2.7116,-2.7021,-2.6573,-2.6016,-2.5205,-2.4399,-2.3578,-2.3084,-2.2634,-2.2253,-2.0709,-1.8842,-1.6631,-1.4984,-1.3194,-1.1327,-0.7777,-0.2736,0.3738,0.7728,1.0642,1.2591,1.4387,1.5479,1.5982,1.8383,1.9712,2.0299,2.2263,2.3477,2.4082,2.4836,2.4614,2.381,2.3393,2.2449,2.1431,4.0332,4.0415,4.0526,4.0604,4.0676,4.0762,4.0848,4.0914,4.0964,4.0954,4.0856,4.0554,3.9908,3.8116,3.629,3.4659,3.1538,2.8833,2.6886,2.4693,2.2563,2.0561,1.8757,1.6949,1.5151,1.4173,1.2583,1.0295,0.9601,0.8267,0.6321,0.5115,0.3809,0.2471,0.1539,0.0603,-0.0469,-0.1404,-0.2874,-0.4752,-0.6416,-0.7386,-0.8058,-1.02,-1.1268,-1.18,-1.3354,-1.4912,-1.6413,-1.7857,-1.9341,-2.0792,-2.2134,-2.2504,-2.2422,-2.2216,-2.0531,-1.8754,-1.8828,-1.7963,-1.706,-1.7155,-1.8248,-1.9339,-1.9446,-1.9615,-1.9757,-1.9705,-1.9722,-1.97,-1.953,-2.0507,-2.1346,-2.1306,-2.0236,-2.0322,-2.2998,-2.3385,-2.4346,-2.6958,-2.694,-2.6538,-2.6085,-2.5481,-2.4863,-2.4204,-2.3839,0.0,-2.3083,-2.2406,-2.093,-1.8489,-1.6652,-1.4792,-1.2868,-0.7734,-0.2204,0.3677,0.672,0.9035,1.064,1.2607,1.3859,1.4634,1.7104,1.8619,1.9544,2.145,2.2462,2.2878,2.3458,2.3185,2.2476,2.2211,2.1328,2.0408,3.9986,4.0082,4.0195,4.0243,4.0323,4.0424,4.0532,4.0615,4.0693,4.0762,4.0799,4.0779,4.0676,3.8753,3.699,3.5773,3.1789,2.832,2.5988,2.3296,2.0762,1.8441,1.6569,1.4695,1.2774,1.1659,0.9947,0.7778,0.7668,0.6286,0.3752,0.2746,0.169,0.0536,-0.0335,-0.1275,-0.2278,-0.3205,-0.4942,-0.6968,-0.7507,-0.8622,-1.0286,-1.3132,-1.4701,-1.564,-1.7893,-1.9017,-1.9755,-2.2051,-2.3073,-2.3811,-2.6133,-2.6808,-2.6725,-2.6908,-2.3671,-2.0022,-2.0123,-1.9907,-1.9606,-1.939,-2.1493,-2.3663,-2.3861,-2.2494,-2.1167,-2.1126,-2.1354,-2.1524,-2.1431,-2.3115,-2.4447,-2.4284,-2.194,-2.0975,-2.331,-2.3533,-2.4352,-2.6762,-2.6792,-2.6434,-2.6063,-2.5589,-2.5091,-2.4605,-2.4234,-2.3897,-2.3553,-2.3172,-2.209,-2.0139,-1.8266,-1.6221,-1.3888,-0.7365,-0.1994,0.2219,0.5394,0.7802,0.9454,1.1197,1.2692,1.3983,1.6238,1.8051,1.9505,2.1059,2.1799,2.1983,2.2296,2.1974,2.1342,2.1175,2.0544,1.9851,3.9438,3.9534,3.9622,3.963,3.9724,3.9831,3.9852,3.9961,4.0076,4.021,4.0314,4.0427,4.0524,3.8863,3.7259,3.6113,3.1891,2.8105,2.5265,2.2085,1.8921,1.5731,1.3787,1.178,0.9638,0.7124,0.5155,0.3943,0.2862,0.1738,0.0505,-0.0144,-0.0984,-0.1873,-0.2477,-0.3278,-0.414,-0.5196,-0.6379,-0.7627,-0.872,-1.0852,-1.352,-1.4562,-1.6322,-1.8324,-1.8962,-2.0477,-2.2256,-2.2719,-2.4185,-2.5851,-2.6217,-2.6241,-2.6154,-2.6293,-2.5783,-2.5252,-2.5697,-2.4264,-2.214,-2.0058,-2.1646,-2.3724,-2.3863,-2.529,-2.6637,-2.672,-2.6841,-2.6921,-2.6945,-2.7395,-2.684,-2.4019,-2.3327,-2.3091,-2.2963,-2.2887,-2.3844,-2.653,-2.6657,-2.6434,-2.6206,-2.5848,-2.5422,-2.4879,-2.4451,-2.4094,-2.3754,-2.3451,-2.2965,-2.2409,-2.0611,-1.7585,-1.3293,-0.8804,-0.425,0.0259,0.4056,0.6867,0.893,1.1128,1.2934,1.4354,1.6938,1.8749,1.9978,2.114,2.165,2.1664,2.1841,2.1746,2.1541,2.165,2.1348,2.1006,3.8859,3.8869,3.8925,3.8961,3.9014,3.907,3.9089,3.9151,3.9176,3.9145,3.9368,3.964,3.9869,3.8618,3.7465,3.6752,3.2996,2.8904,2.4762,2.0627,1.7178,1.4489,1.1432,0.8557,0.5844,0.3625,0.2011,0.1085,-0.0465,-0.1512,-0.2089,-0.3536,-0.4074,-0.3865,-0.44,-0.5064,-0.5855,-0.6837,-0.8686,-1.1014,-1.1868,-1.4122,-1.7119,-1.8767,-2.012,-2.1289,-2.2726,-2.3869,-2.467,-2.4604,-2.5286,-2.6134,-2.6079,-2.6043,-2.6026,-2.6063,-2.6258,-2.6452,-2.6759,-2.5995,-2.4894,-2.3846,-2.4591,-2.5619,-2.5795,-2.5727,-2.5594,-2.5666,-2.5736,-2.577,-2.5789,-2.7127,-2.7167,-2.3883,-2.3592,-2.3564,-2.2883,-2.2775,-2.3702,-2.626,-2.6521,-2.6415,-2.6222,-2.599,-2.5663,-2.5098,-2.4679,-2.4287,-2.394,-2.361,-2.3377,-2.329,-2.1164,-1.8272,-1.4611,-1.0481,-0.6195,-0.1736,0.2671,0.6002,0.8415,1.0933,1.2995,1.4694,1.6938,1.8696,2.0093,2.0944,2.1251,2.1202,2.141,2.1375,2.1326,2.1616,2.1568,2.1471,3.8212,3.8074,3.7987,3.8038,3.8031,3.8022,3.8136,3.8144,3.8047,3.7863,3.8124,3.8502,3.8897,3.8003,3.7317,3.7172,3.398,2.9843,2.4796,1.9586,1.5451,1.2553,0.8214,0.4696,0.217,0.0466,-0.0854,-0.1707,-0.3414,-0.439,-0.4607,-0.6358,-0.6745,-0.5844,-0.6302,-0.7225,-0.8491,-0.9282,-1.1696,-1.498,-1.5515,-1.7494,-2.0382,-2.2318,-2.3332,-2.3951,-2.5773,-2.633,-2.6118,-2.5974,-2.5864,-2.5844,-2.5807,-2.5807,-2.5828,-2.5901,-2.617,-2.645,-2.6485,-2.6555,-2.6674,-2.6876,-2.699,-2.7149,-2.7355,-2.5889,-2.449,-2.449,-2.4549,-2.4562,-2.4523,-2.6359,-2.7101,-2.4662,-2.4472,-2.4435,-2.3856,-2.372,-2.4361,-2.6151,-2.6417,-2.6399,-2.6239,-2.6099,-2.5811,-2.5346,-2.4879,-2.4436,-2.4051,-2.3739,-2.3551,-2.348,-2.1479,-1.9162,-1.6599,-1.238,-0.8065,-0.3641,0.1298,0.514,0.7897,1.062,1.2753,1.4529,1.6427,1.8074,1.9542,2.0257,2.0584,2.0597,2.0871,2.0934,2.0885,2.1264,2.141,2.1458,3.7594,3.7066,3.6802,3.6676,3.6624,3.6611,3.6707,3.6745,3.6636,3.64,3.6597,3.7005,3.7564,3.6896,3.6563,3.6972,3.4217,3.0493,2.5882,1.9482,1.3642,0.857,0.3312,0.0078,-0.0937,-0.2571,-0.3893,-0.4977,-0.6447,-0.7273,-0.7412,-0.7976,-0.8098,-0.8011,-0.8323,-1.0123,-1.2968,-1.3647,-1.5747,-1.8653,-1.9004,-2.0577,-2.2748,-2.2863,-2.4119,-2.5796,-2.5895,-2.5807,-2.5642,-2.5642,-2.5508,-2.5355,-2.5432,-2.5394,-2.5394,-2.5626,-2.5954,-2.6203,-2.6256,-2.6293,-2.6365,-2.6572,-2.6691,-2.6791,-2.7053,-2.6968,-2.6849,-2.6849,-2.6892,-2.6951,-2.6922,-2.7265,-2.7447,-2.7227,0.0,0.0,-2.6722,-2.649,-2.6319,-2.6315,-2.6295,-2.6295,-2.6295,-2.6118,-2.5864,-2.5605,-2.4974,-2.4451,-2.412,-2.3767,-2.3465,-2.3172,-2.236,-2.097,-1.8967,-1.4524,-0.998,-0.5377,0.0129,0.4279,0.7372,1.0116,1.2035,1.3322,1.5081,1.6637,1.8043,1.8867,1.949,1.9901,2.0169,2.0321,2.0472,2.0759,2.0858,2.0908,3.6886,3.6271,3.5874,3.5569,3.5402,3.5385,3.543,3.5217,3.4877,3.4277,3.4112,3.4096,3.426,3.4187,3.4418,3.5136,3.4033,3.0114,2.2596,1.7155,1.0563,0.2269,-0.2315,-0.4516,-0.4124,-0.498,-0.5912,-0.6835,-0.8143,-0.8837,-0.8974,-0.9603,-0.9676,-0.9302,-0.9812,-1.1642,-1.4506,-1.4995,-1.7741,-2.1741,-2.1814,-2.3189,-2.5145,-2.4927,-2.5159,-2.5605,-2.5454,-2.5285,-2.513,-2.5185,-2.5107,-2.5029,-2.5185,-2.524,-2.5355,-2.5626,-2.5775,-2.5917,-2.6026,-2.6151,-2.6258,-2.6382,-2.6469,-2.6556,-2.6759,-2.6808,-2.6858,-2.6858,-2.694,-2.699,-2.6891,-2.7038,-2.7169,-2.7137,0.0,-2.6989,-2.6825,-2.6691,-2.6537,-2.633,-2.6295,-2.626,-2.6118,-2.5937,-2.5701,-2.54,-2.4799,-2.4369,-2.4105,-2.3739,-2.3363,-2.2979,-2.2161,-2.0873,-1.9108,-1.5044,-1.0929,-0.6684,-0.1356,0.2694,0.5639,0.8628,1.0656,1.1859,1.3434,1.4974,1.6311,1.7324,1.8174,1.8939,1.95,1.9823,2.0055,2.0321,2.0422,2.0422,3.6174,3.5335,3.4781,3.4333,3.4071,3.384,3.379,3.3489,3.2893,3.1958,3.1359,3.0936,3.067,3.074,3.1057,3.1788,3.0753,2.6621,1.8485,1.0671,0.3216,-0.3828,-0.6988,-0.8188,-0.7331,-0.7651,-0.8121,-0.8812,-0.9952,-1.0521,-1.0648,-1.1309,-1.1397,-1.0989,-1.2053,-1.4071,-1.6781,-1.7669,-2.0529,-2.4454,-2.4275,-2.5002,-2.6142,-2.5852,-2.5476,-2.5107,-2.495,-2.4791,-2.467,-2.4751,-2.471,-2.4655,-2.4871,-2.5029,-2.5224,-2.5492,-2.5589,-2.5663,-2.5848,-2.599,-2.6063,-2.626,-2.6314,-2.64,-2.6537,-2.6589,-2.6657,-2.6657,-2.6708,-2.6742,-2.6691,-2.6792,-2.6842,-2.6809,-2.6759,-2.6708,-2.6657,-2.6606,-2.6503,-2.633,-2.626,-2.6118,-2.5937,-2.5663,-2.5384,-2.5114,-2.4599,-2.4147,-2.3867,-2.3436,-2.2979,-2.2498,-2.1445,-2.0053,-1.8413,-1.5189,-1.1615,-0.7736,-0.2779,0.1115,0.3972,0.6928,0.8942,1.0134,1.1628,1.303,1.435,1.5504,1.6557,1.7544,1.8352,1.8963,1.9384,1.9708,1.9926,2.0029,3.5547,3.4301,3.3427,3.2895,3.2376,3.2013,3.183,3.1471,3.0748,2.9332,2.8484,2.7734,2.7134,2.6551,2.6401,2.6824,2.3761,1.9482,1.3922,-0.0522,-0.9009,-0.9395,-1.0428,-1.0748,-1.033,-1.0609,-1.0873,-1.1125,-1.1899,-1.2465,-1.2751,-1.305,-1.3181,-1.3143,-1.5262,-1.7764,-2.0444,-2.2302,-2.4524,-2.6774,-2.6351,-2.5892,-2.5465,-2.5208,-2.4831,-2.4498,-2.4498,-2.44,-2.4302,-2.4302,-2.4302,-2.4317,-2.4457,-2.467,-2.4958,-2.524,-2.5355,-2.5454,-2.5626,-2.5701,-2.5811,-2.6189,-2.6295,-2.633,-2.645,-2.6502,-2.6502,-2.6502,-2.6502,-2.652,-2.6572,-2.6589,-2.6589,-2.6589,-2.6606,-2.6572,-2.652,-2.6485,-2.6434,-2.6295,-2.6118,-2.5937,-2.5701,-2.5323,-2.5013,-2.4815,-2.4369,-2.3867,-2.3319,-2.2799,-2.2161,-2.1506,-2.018,-1.8701,-1.6994,-1.4954,-1.2123,-0.8685,-0.4134,-0.0393,0.2443,0.5153,0.7015,0.827,0.9597,1.085,1.2097,1.3365,1.4554,1.5678,1.6789,1.7655,1.8333,1.8827,1.9251,1.9604,3.4791,3.3633,3.2826,3.213,3.1534,3.0984,3.0616,2.9596,2.8298,2.6762,2.535,2.4034,2.2897,2.236,2.1776,2.1053,1.8996,1.2887,0.1525,-0.9067,-1.5857,-1.7983,-1.6414,-1.5168,-1.447,-1.403,-1.3749,-1.3705,-1.3956,-1.4595,-1.553,-1.5753,-1.6164,-1.6779,-1.7628,-1.9419,-2.1813,-2.2422,-2.3912,-2.5855,-2.5582,-2.5259,-2.4847,-2.4614,-2.4426,-2.4219,-2.4151,-2.4067,-2.3967,-2.4151,-2.4151,-2.4151,-2.4416,-2.4605,-2.4695,-2.4886,-2.4966,-2.5005,-2.5208,-2.5285,-2.54,-2.5917,-2.6026,-2.6026,-2.6079,-2.6079,-2.6115,-2.6134,-2.6134,-2.617,-2.617,-2.6258,-2.631,-2.631,-2.6364,-2.6417,-2.6485,-2.6485,-2.6415,-2.6258,-2.5974,-2.5663,-2.5323,-2.491,-2.4589,-2.4328,-2.3909,-2.3494,-2.3024,-2.2253,-2.1397,-2.0542,-1.9184,-1.7684,-1.6162,-1.4384,-1.2297,-0.9831,-0.6241,-0.334,-0.0987,0.1773,0.3757,0.5101,0.6534,0.7955,0.9421,1.0705,1.224,1.385,1.5158,1.6285,1.7269,1.8058,1.8685,1.9251,3.3957,3.2864,3.2018,3.1291,3.0569,2.9813,2.8996,2.7604,2.599,2.4272,2.2537,2.0869,1.9236,1.8285,1.706,1.5369,1.0442,0.2948,-0.7606,-1.4922,-1.9929,-2.238,-2.1061,-1.9568,-1.7963,-1.7322,-1.6678,-1.6043,-1.6238,-1.6604,-1.7222,-1.7573,-1.8054,-1.8612,-1.9587,-2.0842,-2.2299,-2.3019,-2.4049,-2.5121,-2.4887,-2.4567,-2.4271,-2.3994,-2.3867,-2.3782,-2.361,-2.3566,-2.3625,-2.3711,-2.3797,-2.3882,-2.4193,-2.4317,-2.4385,-2.4467,-2.4508,-2.4549,-2.4791,-2.4871,-2.495,-2.5301,-2.5584,-2.5807,-2.5791,-2.5844,-2.5917,-2.5954,-2.5954,-2.599,-2.599,-2.6063,-2.6132,-2.6168,-2.6187,-2.6241,-2.6345,-2.631,-2.6187,-2.6043,-2.568,-2.5323,-2.4934,-2.4564,-2.4193,-2.3909,-2.3566,-2.3127,-2.2529,-2.1506,-2.0468,-1.9441,-1.8043,-1.669,-1.5371,-1.3895,-1.2364,-1.0698,-0.7983,-0.5708,-0.3748,-0.1246,0.0724,0.2185,0.3638,0.5147,0.6707,0.8159,0.9737,1.1507,1.304,1.4372,1.5504,1.6546,1.7412,1.8178,3.3107,3.2033,3.119,3.0372,2.9588,2.8546,2.7206,2.5595,2.3853,2.1901,2.0062,1.8239,1.631,1.4513,1.247,1.0042,0.0215,-0.8117,-1.3461,-1.8087,-2.1393,-2.3133,-2.3881,-2.3183,-2.0822,-2.0357,-1.9557,-1.8324,-1.853,-1.8566,-1.8352,-1.8896,-1.9235,-1.9493,-2.1274,-2.2097,-2.2274,-2.3828,-2.4502,-2.4461,-2.4147,-2.3909,-2.3653,-2.3348,-2.3231,-2.3216,-2.2934,-2.3038,-2.3275,-2.3127,-2.3304,-2.361,-2.3882,-2.394,-2.3967,-2.4036,-2.4063,-2.412,-2.4359,-2.4457,-2.4457,-2.4549,-2.5052,-2.553,-2.5626,-2.5717,-2.5844,-2.5844,-2.586,-2.5881,-2.5937,-2.5954,-2.599,-2.6132,-2.6026,-2.6026,-2.6132,-2.597,-2.5807,-2.5663,-2.5285,-2.495,-2.4589,-2.4219,-2.3839,-2.361,-2.326,-2.2694,-2.1899,-2.0667,-1.9465,-1.8286,-1.6968,-1.5738,-1.4706,-1.3614,-1.2512,-1.1399,-0.9521,-0.7762,-0.6051,-0.3944,-0.2173,-0.066,0.0793,0.2312,0.3893,0.552,0.7076,0.8631,1.0532,1.1959,1.3177,1.4381,1.5514,1.6623,3.2179,3.1321,3.0747,3.0054,2.9121,2.7999,2.6451,2.4246,2.2126,2.0275,1.8153,1.626,1.4606,1.226,0.9463,0.6108,-0.2676,-0.9772,-1.3778,-1.6859,-1.9216,-2.0778,-2.1883,-2.2347,-2.2093,-2.214,-2.1786,-2.0976,-2.0206,-2.0244,-2.1055,-2.1081,-2.1634,-2.2622,-2.3143,-2.3401,-2.3427,-2.38,-2.3809,-2.3566,-2.3392,-2.3157,-2.292,-2.274,-2.274,-2.2799,-2.2649,-2.2754,-2.3038,-2.3216,-2.3319,-2.3392,-2.3508,-2.3551,-2.3537,-2.3551,-2.3681,-2.3882,-2.3925,-2.4024,-2.4151,-2.4302,-2.4549,-2.4806,-2.5036,-2.5169,-2.5301,-2.541,-2.5448,-2.5432,-2.553,-2.5637,-2.5712,-2.5791,-2.5775,-2.5775,-2.5811,-2.5642,-2.547,-2.5394,-2.4989,-2.463,-2.4385,-2.3952,-2.361,-2.3392,-2.2934,-2.2314,-2.1547,-2.0181,-1.9008,-1.8015,-1.6698,-1.5575,-1.4706,-1.3803,-1.3025,-1.2297,-1.0905,-0.9793,-0.8787,-0.6957,-0.5455,-0.4148,-0.2576,-0.1057,0.0396,0.2047,0.3629,0.526,0.7136,0.873,1.023,1.1897,1.3433,1.4888,3.1205,3.0478,2.9884,2.9324,2.8195,2.6896,2.532,2.2867,2.0631,1.8991,1.6932,1.5011,1.3344,1.0561,0.6602,0.1152,-0.4803,-0.9463,-1.2276,-1.4487,-1.6359,-1.7833,-1.9261,-2.0279,-2.0891,-2.112,-2.1468,-2.195,-2.123,-2.1062,-2.1483,-2.1455,-2.182,-2.2483,-2.2575,-2.2725,-2.2844,-2.2934,-2.2844,-2.2694,-2.2466,-2.2328,-2.2249,-2.1894,-2.1955,-2.2156,-2.1969,-2.2095,-2.2434,-2.2768,-2.2873,-2.2859,-2.2965,-2.2965,-2.2995,-2.3054,-2.3157,-2.329,-2.3436,-2.3523,-2.3625,-2.3839,-2.4009,-2.4219,-2.4735,-2.4989,-2.5107,-2.5201,-2.524,-2.5333,-2.5378,-2.547,-2.5546,-2.5642,-2.5605,-2.5567,-2.553,-2.5355,-2.5162,-2.5005,-2.467,-2.4343,-2.4094,-2.3754,-2.3451,-2.3216,-2.2543,-2.1771,-2.1064,-1.9736,-1.8608,-1.7722,-1.6606,-1.57,-1.5059,-1.4231,-1.358,-1.3164,-1.1988,-1.1101,-1.0431,-0.9012,-0.7708,-0.6465,-0.4966,-0.3449,-0.1859,-0.0398,0.1061,0.2515,0.4281,0.5773,0.7255,0.9092,1.1164,1.3177,3.0334,2.956,2.8994,2.843,2.7124,2.5636,2.4028,2.1611,1.9496,1.8149,1.6188,1.4243,1.2546,0.8918,0.3839,-0.2948,-0.5973,-0.8358,-1.0157,-1.1879,-1.3359,-1.4746,-1.6202,-1.739,-1.8291,-1.8545,-1.9709,-2.1776,-2.1361,-2.1031,-2.0747,-2.0801,-2.0805,-2.0855,-2.1015,-2.1259,-2.1527,-2.1684,-2.1766,-2.1799,-2.1513,-2.1417,-2.1444,-2.0993,-2.1042,-2.1361,-2.1118,-2.1326,-2.1698,-2.2137,-2.2278,-2.2278,-2.2388,-2.242,-2.242,-2.2572,-2.2603,-2.2709,-2.2949,-2.3038,-2.3083,-2.3363,-2.3494,-2.3739,-2.4482,-2.4791,-2.4974,-2.5029,-2.5107,-2.5201,-2.5262,-2.5301,-2.5339,-2.5454,-2.5378,-2.5278,-2.5201,-2.5045,-2.4846,-2.4589,-2.44,-2.4135,-2.3797,-2.3581,-2.3319,-2.2994,-2.2146,-2.128,-2.057,-1.9399,-1.8363,-1.7579,-1.6673,-1.5941,-1.5468,-1.4715,-1.413,-1.389,-1.292,-1.2112,-1.1553,-1.0598,-0.9558,-0.8377,-0.7024,-0.5515,-0.3865,-0.2596,-0.1396,-0.0266,0.1388,0.2772,0.4085,0.6367,0.8811,1.1174,2.9561,2.8817,2.8208,2.7524,2.6096,2.459,2.3018,2.0804,1.8973,1.7844,1.5905,1.3923,1.2282,0.6247,0.0931,-0.2649,-0.5449,-0.7468,-0.8599,-0.9873,-1.0971,-1.1825,-1.2726,-1.3695,-1.4647,-1.5153,-1.704,-2.0483,-1.9767,-1.9554,-1.9678,-1.9383,-1.9325,-1.9544,-1.9685,-1.9991,-2.0356,-2.0617,-2.0693,-2.062,-2.057,-2.0421,-2.0245,-2.0144,-2.0295,-2.0573,-2.0523,-2.0772,-2.118,-2.1568,-2.1712,-2.1746,-2.1983,-2.2077,-2.2077,-2.2077,-2.2263,-2.2463,-2.2646,-2.2723,-2.2844,-2.3231,-2.3319,-2.3436,-2.3839,-2.4177,-2.4467,-2.463,-2.467,-2.471,-2.4862,-2.4902,-2.4942,-2.5045,-2.4982,-2.4902,-2.4862,-2.4701,-2.4539,-2.4539,-2.4234,-2.3925,-2.3653,-2.3348,-2.2949,-2.2555,-2.1718,-2.0993,-2.0271,-1.9303,-1.8518,-1.7854,-1.7022,-1.6285,-1.5816,-1.5001,-1.4478,-1.413,-1.389,-1.3407,-1.2736,-1.1926,-1.1281,-1.0752,-0.9227,-0.8016,-0.6976,-0.5588,-0.4653,-0.3916,-0.2321,-0.0993,0.0395,0.4208,0.6711,0.8478,2.8668,2.7894,2.7124,2.6096,2.4412,2.2731,2.1273,1.9358,1.7883,1.7123,1.5143,1.3225,1.1547,0.5378,0.0155,-0.2734,-0.4763,-0.624,-0.708,-0.7995,-0.8898,-0.9643,-1.0271,-1.0974,-1.1977,-1.2508,-1.3821,-1.6029,-1.7081,-1.7796,-1.8262,-1.7654,-1.75,-1.773,-1.775,-1.8074,-1.859,-1.8883,-1.9117,-1.9322,-1.9242,-1.9254,-1.9319,-1.9226,-1.9384,-1.9656,-1.9862,-2.0118,-2.0372,-2.0723,-2.0921,-2.1104,-2.1361,-2.1471,-2.1568,-2.1664,-2.1746,-2.1902,-2.2091,-2.217,-2.2296,-2.2783,-2.2918,-2.3008,-2.3348,-2.3523,-2.3782,-2.4245,-2.4385,-2.4426,-2.4523,-2.4523,-2.4523,-2.4605,-2.4564,-2.4467,-2.4426,-2.4317,-2.4193,-2.4109,-2.3897,-2.3668,-2.3581,-2.3098,-2.2646,-2.2231,-2.1299,-2.056,-2.0105,-1.9186,-1.8464,-1.8018,-1.7245,-1.6627,-1.6114,-1.541,-1.4951,-1.4616,-1.4478,-1.4061,-1.3407,-1.2911,-1.2336,-1.1757,-1.0431,-0.9227,-0.814,-0.6976,-0.6056,-0.5259,-0.4064,-0.2591,-0.0927,0.1648,0.349,0.5003]},{"header":{"parameterUnit":"m.s-1","parameterCategory":1,"la1":30.6,"la2":28.766,"lo1":-90.7593,"lo2":-88.6598,"dy":0.0162,"dx":0.0183,"nx":116,"ny":114,"refTime":"2023-09-12T18:00:00:Z","depth":0,"parameterNumber":3,"parameterNumberName":"V-component_of_WINDS"},"data":[0.0,0.0,0.0,0.0,0.0,0.0,0.0,0.0,0.0,0.0,0.0,0.0,0.0,0.0,0.0,0.0,0.0,0.0,0.0,0.0,0.0,0.0,0.0,0.0,0.0,0.0,0.0,0.0,0.0,0.0,0.0,0.0,0.0,0.0,0.0,0.0,0.0,0.0,0.0,0.0,0.0,0.0,0.0,0.0,0.0,0.0,0.0,0.0,0.0,0.0,0.0,0.0,0.0,0.0,0.0,0.0,0.0,0.0,0.0,0.0,0.0,0.0,0.0,0.0,0.0,0.0,0.0,0.0,0.0,0.0,0.0,0.0,0.0,0.0,0.0,0.0,0.0,0.0,0.0,0.0,0.0,0.0,0.0,0.0,0.0,0.0,0.0,0.0,0.0,0.0,0.0,0.0,0.0,0.0,0.0,0.0,0.0,0.0,0.0,0.0,0.0,0.0,0.0,0.0,0.0,0.0,0.0,0.0,0.0,0.0,0.0,0.0,0.0,0.0,0.0,0.0,0.0,0.0,0.0,0.0,0.0,0.0,0.0,0.0,0.0,0.0,0.0,0.0,0.0,0.0,0.0,0.0,0.0,0.0,0.0,0.0,0.0,0.0,0.0,0.0,0.0,0.0,0.0,0.0,0.0,0.0,0.0,0.0,0.0,0.0,0.0,0.0,0.0,0.0,0.0,0.0,0.0,0.0,0.0,0.0,0.0,0.0,0.0,0.0,0.0,0.0,0.0,0.0,0.0,0.0,0.0,0.0,0.0,0.0,0.0,0.0,0.0,0.0,0.0,0.0,0.0,0.0,0.0,0.0,0.0,0.0,0.0,0.0,0.0,0.0,0.0,0.0,0.0,0.0,0.0,0.0,0.0,0.0,0.0,0.0,0.0,0.0,0.0,0.0,0.0,0.0,0.0,0.0,0.0,0.0,0.0,0.0,0.0,0.0,0.0,0.0,0.0,0.0,0.0,0.0,0.0,0.0,0.0,0.0,0.0,0.0,0.0,0.0,0.0,0.0,0.0,0.0,0.0,0.0,0.0,0.0,0.0,0.0,0.0,0.0,0.0,0.0,0.0,0.0,0.0,0.0,0.0,0.0,0.0,0.0,0.0,0.0,0.0,0.0,0.0,0.0,0.0,0.0,0.0,0.0,0.0,0.0,0.0,0.0,0.0,0.0,0.0,0.0,0.0,0.0,0.0,0.0,0.0,0.0,0.0,0.0,0.0,0.0,0.0,0.0,0.0,0.0,0.0,0.0,0.0,0.0,0.0,0.0,0.0,0.0,0.0,0.0,0.0,0.0,0.0,0.0,0.0,0.0,0.0,0.0,0.0,0.0,0.0,0.0,0.0,0.0,0.0,0.0,0.0,0.0,0.0,0.0,0.0,0.0,0.0,0.0,0.0,0.0,0.0,0.0,0.0,0.0,0.0,0.0,0.0,0.0,0.0,0.0,0.0,0.0,0.0,0.0,0.0,0.0,0.0,0.0,0.0,0.0,0.0,0.0,0.0,0.0,0.0,0.0,0.0,0.0,0.0,0.0,0.0,0.0,0.0,0.0,0.0,0.0,0.0,0.0,0.0,0.0,0.0,0.0,0.0,0.0,0.0,0.0,0.0,0.0,0.0,0.0,0.0,0.0,0.0,0.0,0.0,0.0,0.0,0.0,0.0,0.0,0.0,0.0,0.0,0.0,0.0,0.0,0.0,0.0,0.0,0.0,0.0,0.0,0.0,0.0,0.0,0.0,0.0,0.0,0.0,0.0,0.0,0.0,0.0,0.0,0.0,0.0,0.0,0.0,0.0,0.0,0.0,0.0,0.0,0.0,0.0,0.0,0.0,0.0,0.0,0.0,0.0,0.0,0.0,0.0,0.0,0.0,0.0,0.0,0.0,0.0,0.0,0.0,0.0,0.0,0.0,0.0,0.0,0.0,0.0,0.0,0.0,0.0,0.0,0.0,0.0,0.0,0.0,0.0,0.0,0.0,0.0,0.0,0.0,0.0,0.0,0.0,0.0,0.0,0.0,0.0,0.0,0.0,0.0,0.0,0.0,0.0,0.0,0.0,0.0,0.0,0.0,0.0,0.0,0.0,0.0,0.0,0.0,0.0,0.0,0.0,0.0,0.0,0.0,0.0,0.0,0.0,0.0,0.0,0.0,0.0,0.0,0.0,0.0,0.0,0.0,0.0,0.0,0.0,0.0,0.0,0.0,0.0,0.0,0.0,0.0,0.0,0.0,0.0,0.0,0.0,0.0,0.0,0.0,0.0,0.0,0.0,0.0,0.0,0.0,0.0,0.0,0.0,0.0,0.0,0.0,0.0,0.0,0.0,0.0,0.0,0.0,0.0,0.0,0.0,0.0,0.0,0.0,0.0,0.0,0.0,0.0,0.0,0.0,0.0,0.0,0.0,0.0,0.0,0.0,0.0,0.0,0.0,0.0,0.0,0.0,0.0,0.0,0.0,0.0,0.0,0.0,0.0,0.0,0.0,0.0,0.0,0.0,0.0,0.0,0.0,0.0,0.0,0.0,0.0,0.0,0.0,0.0,0.0,0.0,0.0,0.0,0.0,0.0,0.0,0.0,0.0,0.0,0.0,0.0,0.0,0.0,0.0,0.0,0.0,0.0,0.0,0.0,0.0,0.0,0.0,0.0,0.0,0.0,0.0,0.0,0.0,0.0,0.0,0.0,0.0,0.0,0.0,0.0,0.0,0.0,0.0,0.0,0.0,0.0,0.0,0.0,0.0,0.0,0.0,0.0,0.0,0.0,0.0,0.0,0.0,0.0,0.0,0.0,0.0,0.0,0.0,0.0,0.0,0.0,0.0,0.0,0.0,0.0,0.0,0.0,0.0,0.0,0.0,0.0,0.0,0.0,0.0,0.0,0.0,0.0,0.0,0.0,0.0,0.0,0.0,0.0,0.0,0.0,0.0,0.0,0.0,0.0,0.0,0.0,0.0,0.0,0.0,0.0,0.0,0.0,0.0,0.0,0.0,0.0,0.0,0.0,0.0,0.0,0.0,0.0,0.0,0.0,0.0,0.0,0.0,0.0,0.0,0.0,0.0,0.0,0.0,0.0,0.0,0.0,0.0,0.0,0.0,0.0,0.0,0.0,0.0,0.0,0.0,0.0,0.0,0.0,0.0,0.0,0.0,0.0,0.0,0.0,0.0,0.0,0.0,0.0,0.0,0.0,0.0,0.0,0.0,0.0,0.0,0.0,0.0,0.0,0.0,0.0,0.0,0.0,0.0,0.0,0.0,0.0,0.0,0.0,0.0,0.0,0.0,0.0,0.0,0.0,0.0,0.0,0.0,0.0,0.0,0.0,0.0,0.0,0.0,0.0,0.0,0.0,0.0,0.0,0.0,0.0,0.0,0.0,0.0,0.0,0.0,0.0,0.0,0.0,0.0,0.0,0.0,0.0,0.0,0.0,0.0,0.0,0.0,0.0,0.0,0.0,0.0,0.0,0.0,0.0,0.0,0.0,0.0,0.0,0.0,0.0,0.0,0.0,0.0,0.0,0.0,0.0,0.0,0.0,0.0,0.0,0.0,0.0,0.0,0.0,0.0,0.0,0.0,0.0,0.0,0.0,0.0,0.0,0.0,0.0,0.0,0.0,0.0,0.0,0.0,0.0,0.0,0.0,0.0,0.0,0.0,0.0,0.0,0.0,0.0,0.0,0.0,0.0,0.0,0.0,0.0,0.0,0.0,0.0,0.0,0.0,0.0,0.0,0.0,0.0,0.0,0.0,0.0,0.0,0.0,0.0,0.0,0.0,0.0,0.0,0.0,0.0,0.0,0.0,0.0,0.0,0.0,0.0,0.0,0.0,0.0,0.0,0.0,0.0,0.0,0.0,0.0,0.0,0.0,0.0,0.0,0.0,0.0,0.0,0.0,0.0,0.0,0.0,0.0,0.0,0.0,0.0,0.0,0.0,0.0,0.0,0.0,0.0,0.0,0.0,0.0,0.0,0.0,0.0,0.0,0.0,0.0,0.0,0.0,0.0,0.0,0.0,0.0,0.0,0.0,0.0,0.0,0.0,0.0,0.0,0.0,0.0,0.0,0.0,0.0,0.0,0.0,0.0,0.0,0.0,0.0,0.0,0.0,0.0,0.0,0.0,0.0,0.0,0.0,0.0,0.0,0.0,0.0,0.0,0.0,0.0,0.0,0.0,0.0,0.0,0.0,0.0,0.0,0.0,0.0,0.0,0.0,0.0,0.0,0.0,0.0,0.0,0.0,0.0,0.0,0.0,0.0,0.0,0.0,0.0,0.0,0.0,0.0,0.0,0.0,0.0,0.0,0.0,0.0,0.0,0.0,0.0,0.0,0.0,0.0,0.0,0.0,0.0,0.0,0.0,0.0,0.0,0.0,0.0,0.0,0.0,0.0,0.0,0.0,0.0,0.0,0.0,0.0,0.0,0.0,0.0,0.0,0.0,0.0,0.0,0.0,0.0,0.0,0.0,0.0,0.0,0.0,0.0,0.0,0.0,0.0,0.0,0.0,0.0,0.0,0.0,0.0,0.0,0.0,0.0,0.0,0.0,0.0,0.0,0.0,0.0,0.0,0.0,0.0,0.0,0.0,0.0,0.0,0.0,0.0,0.0,0.0,0.0,0.0,0.0,0.0,0.0,0.0,0.0,0.0,0.0,0.0,0.0,0.0,0.0,0.0,0.0,0.0,0.0,0.0,0.0,0.0,0.0,0.0,0.0,0.0,0.0,0.0,0.0,0.0,0.0,0.0,0.0,0.0,0.0,0.0,0.0,0.0,0.0,0.0,0.0,0.0,0.0,0.0,0.0,0.0,0.0,0.0,0.0,0.0,0.0,0.0,0.0,0.0,0.0,0.0,0.0,0.0,0.0,0.0,0.0,0.0,0.0,0.0,0.0,0.0,0.0,0.0,0.0,0.0,0.0,0.0,0.0,0.0,0.0,0.0,0.0,0.0,0.0,0.0,0.0,0.0,0.0,0.0,0.0,0.0,0.0,0.0,0.0,0.0,0.0,0.0,0.0,0.0,0.0,0.0,0.0,0.0,0.0,0.0,0.0,0.0,0.0,0.0,0.0,0.0,0.0,0.0,0.0,0.0,0.0,0.0,0.0,0.0,0.0,0.0,0.0,0.0,0.0,0.0,0.0,0.0,0.0,0.0,0.0,0.0,0.0,0.0,0.0,0.0,0.0,0.0,0.0,0.0,0.0,0.0,0.0,0.0,0.0,0.0,0.0,0.0,0.0,0.0,0.0,0.0,0.0,0.0,0.0,0.0,0.0,0.0,0.0,0.0,0.0,0.0,0.0,0.0,0.0,0.0,0.0,0.0,0.0,0.0,0.0,0.0,0.0,0.0,0.0,0.0,0.0,0.0,0.0,0.0,0.0,0.0,0.0,0.0,0.0,0.0,0.0,0.0,0.0,0.0,0.0,0.0,0.0,0.0,0.0,0.0,0.0,0.0,0.0,0.0,0.0,0.0,0.0,0.0,0.0,0.0,0.0,0.0,0.0,0.0,0.0,0.0,0.0,0.0,0.0,0.0,0.0,0.0,0.0,0.0,0.0,0.0,0.0,0.0,0.0,0.0,0.0,0.0,0.0,0.0,0.0,0.0,0.0,0.0,0.0,0.0,0.0,0.0,0.0,0.0,0.0,0.0,0.0,0.0,0.0,0.0,0.0,0.0,0.0,0.0,0.0,0.0,0.0,0.0,0.0,0.0,0.0,0.0,0.0,0.0,0.0,0.0,0.0,0.0,0.0,0.0,0.0,0.0,0.0,0.0,0.0,0.0,0.0,0.0,0.0,0.0,0.0,0.0,0.0,0.0,0.0,0.0,0.0,0.0,0.0,0.0,0.0,0.0,0.0,0.0,0.0,0.0,0.0,0.0,0.0,0.0,0.0,0.0,0.0,0.0,0.0,0.0,0.0,0.0,0.0,0.0,0.0,0.0,0.0,0.0,0.0,0.0,0.0,0.0,0.0,0.0,0.0,0.0,0.0,0.0,0.0,0.0,0.0,0.0,0.0,0.0,0.0,0.0,0.0,0.0,0.0,0.0,0.0,0.0,0.0,0.0,0.0,0.0,0.0,0.0,0.0,0.0,0.0,0.0,0.0,0.0,-0.8861,-0.8445,0.0,0.0,0.0,0.0,0.0,0.0,0.0,0.0,0.0,0.0,0.0,0.0,0.0,0.0,0.0,0.0,0.0,0.0,0.0,0.0,0.0,0.0,0.0,0.0,0.0,0.0,0.0,0.0,0.0,0.0,0.0,0.0,0.0,0.0,0.0,0.0,0.0,0.0,0.0,0.0,0.0,0.0,0.0,0.0,0.0,0.0,0.0,0.0,0.0,0.0,0.0,0.0,0.0,0.0,0.0,0.0,0.0,0.0,0.0,0.0,0.0,0.0,0.0,0.0,0.0,0.0,0.0,0.0,0.0,0.0,0.0,0.0,0.0,0.0,0.0,0.0,0.0,0.0,0.0,0.0,0.0,0.0,0.0,0.0,0.0,0.0,0.0,0.0,0.0,0.0,0.0,0.0,0.0,0.0,0.0,0.0,0.0,0.0,0.0,0.0,0.0,0.0,0.0,0.0,0.0,0.0,0.0,0.0,0.0,0.0,0.0,0.0,0.0,0.0,-0.9865,-0.937,0.0,0.0,0.0,0.0,0.0,0.0,0.0,0.0,0.0,0.0,0.0,0.0,0.0,0.0,0.0,0.0,0.0,0.0,0.0,0.0,0.0,0.0,0.0,0.0,0.0,0.0,0.0,0.0,0.0,0.0,0.0,0.0,0.0,0.0,0.0,0.0,0.0,0.0,0.0,0.0,0.0,0.0,0.0,0.0,0.0,0.0,0.0,0.0,0.0,0.0,0.0,0.0,0.0,0.0,0.0,0.0,0.0,0.0,0.0,0.0,0.0,0.0,0.0,0.0,0.0,0.0,0.0,0.0,0.0,0.0,0.0,0.0,0.0,0.0,0.0,0.0,0.0,0.0,0.0,0.0,0.0,0.0,0.0,0.0,0.0,0.0,0.0,0.0,0.0,0.0,0.0,0.0,0.0,0.0,0.0,0.0,0.0,0.0,0.0,0.0,0.0,0.0,0.0,0.0,0.0,0.0,0.0,0.0,-1.0933,-1.1059,-1.1185,-1.131,-1.1428,-1.1428,-1.0933,-1.0491,-1.0174,-0.9907,0.0,0.0,0.0,0.0,0.0,0.0,0.0,0.0,0.0,0.0,0.0,0.0,0.0,0.0,0.0,0.0,0.0,0.0,0.0,0.0,0.0,0.0,0.0,0.0,0.0,0.0,0.0,0.0,0.0,0.0,0.0,0.0,0.0,0.0,0.0,0.0,0.0,0.0,-0.5672,-0.5481,-0.5418,-0.5491,0.0,0.0,0.0,0.0,0.0,0.0,0.0,0.0,0.0,0.0,0.0,0.0,0.0,0.0,0.0,0.0,0.0,0.0,0.0,0.0,0.0,0.0,0.0,0.0,0.0,0.0,0.0,0.0,0.0,0.0,0.0,0.0,0.0,0.0,0.0,0.0,0.0,0.0,0.0,0.0,0.0,0.0,0.0,0.0,-0.9479,-1.0058,0.0,0.0,0.0,0.0,0.0,0.0,0.0,0.0,0.0,0.0,0.0,0.0,0.0,-1.1553,-1.1498,-1.1435,-1.1435,-1.1498,-1.1498,-1.1498,-1.156,-1.1685,-1.1802,-1.1996,-1.2174,0.0,-1.1115,-1.0856,0.0,0.0,0.0,0.0,0.0,0.0,0.0,0.0,0.0,0.0,0.0,0.0,0.0,0.0,0.0,0.0,0.0,0.0,0.0,0.0,0.0,0.0,0.0,0.0,0.0,0.0,0.0,0.0,0.0,0.0,0.0,0.0,0.0,0.0,0.0,0.0,-0.7307,-0.7111,-0.7167,-0.6911,-0.685,-0.6863,-0.6396,-0.5935,-0.5484,-0.5745,0.0,0.0,0.0,0.0,0.0,0.0,0.0,0.0,0.0,0.0,0.0,0.0,0.0,0.0,0.0,0.0,0.0,0.0,0.0,0.0,0.0,0.0,0.0,0.0,0.0,0.0,0.0,0.0,0.0,0.0,0.0,0.0,0.0,0.0,0.0,0.0,0.0,0.0,0.0,-0.9728,-1.0295,-1.0681,-1.0933,-1.1178,0.0,0.0,0.0,0.0,0.0,0.0,0.0,0.0,0.0,-1.2174,-1.2174,-1.2243,-1.2243,-1.2243,-1.2297,-1.2413,-1.2413,-1.2413,-1.2405,-1.2536,-1.272,-1.2903,-1.3155,-1.3086,-1.2781,-1.2089,-1.1586,-1.1205,0.0,0.0,0.0,0.0,-1.0249,-1.0319,0.0,0.0,0.0,0.0,0.0,0.0,0.0,0.0,0.0,0.0,0.0,0.0,0.0,0.0,0.0,-1.1421,0.0,0.0,0.0,0.0,0.0,0.0,0.0,0.0,0.0,0.0,0.0,0.0,-0.8667,-0.8538,-0.8661,-0.8463,-0.8339,-0.8285,-0.835,-0.7697,-0.6597,-0.6854,-0.7181,0.0,0.0,0.0,0.0,0.0,0.0,0.0,0.0,0.0,0.0,0.0,0.0,0.0,0.0,0.0,0.0,0.0,0.0,0.0,0.0,0.0,0.0,0.0,0.0,0.0,0.0,0.0,0.0,0.0,0.0,0.0,0.0,0.0,0.0,0.0,0.0,0.0,0.0,-1.0308,-1.0744,-1.1122,-1.131,-1.1435,0.0,0.0,0.0,0.0,0.0,0.0,-1.249,-1.2544,-1.2666,-1.285,-1.294,-1.305,-1.3244,-1.3397,-1.3501,-1.3599,-1.3599,-1.3599,-1.3599,-1.3793,-1.3925,-1.4048,-1.4232,-1.4425,-1.4407,-1.3327,-1.2696,-1.2451,-1.2328,-1.2197,-1.2012,-1.2012,-1.195,-1.1896,0.0,0.0,0.0,0.0,0.0,0.0,0.0,0.0,0.0,0.0,0.0,0.0,0.0,0.0,-1.2683,-1.2421,-1.2182,-1.1996,0.0,0.0,0.0,0.0,0.0,0.0,0.0,0.0,0.0,-0.9952,-0.9888,-0.9888,-0.9888,-1.0078,-1.0078,-0.9888,-1.0078,-0.9308,-0.7962,-0.8415,-0.8865,-0.939,0.0,0.0,0.0,0.0,0.0,0.0,0.0,0.0,0.0,0.0,0.0,0.0,0.0,0.0,0.0,0.0,0.0,0.0,0.0,0.0,0.0,0.0,0.0,0.0,0.0,0.0,0.0,0.0,0.0,0.0,0.0,0.0,0.0,0.0,0.0,0.0,0.0,0.0,0.0,-1.124,-1.1435,0.0,0.0,0.0,0.0,-1.2243,-1.256,-1.2805,-1.2989,-1.3155,-1.3398,-1.37,-1.4118,-1.4363,-1.4488,-1.4923,-1.5174,-1.5174,-1.5174,-1.5174,-1.5174,-1.5303,-1.5368,-1.5432,-1.5743,-1.5871,-1.5806,-1.4486,-1.3821,-1.3623,-1.3623,-1.3502,-1.3381,-1.3381,-1.3381,-1.3381,0.0,0.0,0.0,0.0,0.0,0.0,0.0,0.0,0.0,0.0,0.0,0.0,0.0,-1.3761,-1.3467,-1.3147,-1.2964,-1.2903,-1.2956,0.0,0.0,0.0,0.0,0.0,0.0,0.0,-1.1413,-1.1288,-1.1226,-1.1288,-1.1476,-1.1648,-1.164,-1.1454,-1.1586,-1.126,-1.0746,-1.0002,-1.0015,-1.0451,-1.0521,-1.0703,0.0,0.0,0.0,0.0,0.0,0.0,0.0,0.0,0.0,0.0,0.0,0.0,0.0,0.0,0.0,0.0,0.0,0.0,0.0,0.0,0.0,0.0,0.0,0.0,0.0,0.0,0.0,0.0,0.0,0.0,0.0,0.0,0.0,0.0,0.0,0.0,0.0,-1.1435,-1.1622,0.0,-1.1996,-1.2367,-1.2825,-1.3285,-1.3622,-1.4053,-1.4547,-1.4683,-1.4818,-1.5088,-1.5224,-1.5351,-1.5523,-1.567,-1.5808,-1.5872,-1.601,-1.6074,-1.6083,-1.6265,-1.6392,-1.6456,-1.6583,-1.6646,-1.6617,-1.6129,-1.5534,-1.4897,-1.4648,-1.4488,-1.4488,-1.4488,-1.4359,-1.4291,0.0,0.0,0.0,0.0,0.0,0.0,0.0,0.0,0.0,0.0,0.0,-1.4656,-1.4588,-1.424,-1.4001,-1.3932,-1.3812,-1.3803,-1.4043,0.0,0.0,0.0,0.0,0.0,0.0,-1.2658,-1.2351,-1.2343,-1.229,-1.2421,-1.2666,-1.2895,-1.2948,-1.2887,-1.3061,-1.3122,-1.3045,-1.2289,-1.1866,-1.1764,-1.1888,-1.2012,-1.2197,0.0,0.0,0.0,0.0,0.0,0.0,0.0,0.0,0.0,0.0,0.0,0.0,0.0,0.0,0.0,0.0,0.0,0.0,0.0,0.0,0.0,0.0,0.0,0.0,0.0,0.0,0.0,0.0,0.0,0.0,0.0,0.0,0.0,0.0,-1.1247,-1.1373,-1.1622,-1.1872,-1.2103,-1.2523,-1.3037,-1.3613,-1.4285,-1.47,-1.5142,-1.567,-1.568,-1.5817,-1.6028,-1.6224,-1.641,-1.6529,-1.6946,-1.7222,-1.7288,-1.7708,-1.7853,-1.7853,-1.7881,-1.794,-1.7995,-1.7843,-1.7782,-1.7772,-1.7567,-1.7136,-1.6517,-1.5914,-1.5689,-1.5749,-1.5689,-1.5568,-1.5428,0.0,0.0,0.0,0.0,0.0,0.0,0.0,0.0,0.0,0.0,-1.5059,-1.4765,-1.4765,-1.4419,-1.4359,-1.4715,-1.4588,-1.4765,-1.5225,-1.5235,0.0,0.0,0.0,0.0,-1.407,-1.37,-1.3381,-1.307,-1.326,-1.3329,-1.3329,-1.3821,-1.407,-1.407,-1.4538,-1.4756,-1.4787,-1.5051,-1.4473,-1.3442,-1.3683,-1.3683,-1.3571,0.0,0.0,0.0,0.0,0.0,0.0,0.0,0.0,0.0,0.0,0.0,0.0,0.0,0.0,0.0,0.0,0.0,0.0,0.0,0.0,0.0,0.0,0.0,0.0,0.0,0.0,0.0,0.0,0.0,0.0,0.0,0.0,0.0,-1.1303,-1.1303,-1.1428,-1.1817,-1.2135,-1.264,-1.3371,-1.403,-1.4691,-1.5201,-1.5753,-1.6028,-1.6121,-1.6249,-1.6395,-1.6616,-1.7187,-1.7534,-1.7675,-1.8927,-1.9581,-1.9581,-2.0234,-2.0523,-2.0502,-2.0243,-2.0091,-2.006,-1.9607,-1.9407,-1.9309,-1.8749,-1.8508,-1.8402,-1.7403,-1.7159,-1.7284,-1.7096,-1.7034,-1.6971,0.0,0.0,0.0,0.0,0.0,0.0,0.0,0.0,0.0,0.0,-1.6187,-1.5853,-1.5853,-1.5575,-1.5468,-1.5584,-1.5642,-1.5806,-1.614,0.0,0.0,0.0,0.0,0.0,-1.4734,-1.424,-1.4052,-1.4103,-1.4163,-1.4231,-1.435,-1.4824,-1.5059,-1.5177,-1.5633,-1.5948,-1.6167,-1.6507,-1.6497,-1.6193,-1.5303,-1.4737,-1.4469,0.0,0.0,0.0,0.0,0.0,0.0,0.0,0.0,0.0,0.0,0.0,0.0,0.0,0.0,0.0,0.0,0.0,0.0,0.0,0.0,0.0,0.0,0.0,0.0,0.0,0.0,0.0,0.0,0.0,0.0,0.0,-1.1622,-1.1677,-1.1677,-1.1677,-1.1899,-1.2528,-1.287,-1.3443,-1.4258,-1.4874,-1.5551,-1.6346,-1.6646,-1.7187,-1.8144,-1.8174,-1.8527,-1.9182,-1.9373,-1.9573,-1.991,-2.024,-2.0576,-2.0855,-2.1215,-2.1409,-2.1516,-2.1603,-2.1616,-2.1616,-2.1473,-2.1281,-2.1018,-2.0888,-2.0698,-2.0411,-1.8459,-1.7698,-1.7657,-1.7698,-1.7513,-1.7159,0.0,0.0,0.0,0.0,0.0,0.0,0.0,0.0,0.0,0.0,-1.718,-1.6743,-1.6754,-1.6436,-1.6275,-1.6492,-1.6606,-1.6765,-1.7157,0.0,0.0,0.0,0.0,-1.5652,-1.5362,-1.501,-1.4834,-1.4883,-1.4883,-1.4942,-1.5069,-1.5526,-1.5816,-1.6151,-1.6652,-1.709,-1.7424,-1.782,-1.7972,-1.8015,-1.7224,-1.6404,-1.569,-1.5449,-1.4991,-1.4469,-1.4043,-1.37,-1.3407,-1.3155,0.0,0.0,0.0,0.0,0.0,0.0,0.0,0.0,0.0,0.0,0.0,0.0,0.0,0.0,0.0,0.0,0.0,0.0,0.0,0.0,0.0,0.0,0.0,0.0,-1.2054,-1.2334,-1.2453,-1.2334,-1.2528,-1.3259,-1.368,-1.4267,-1.5169,-1.5805,-1.6506,-1.7445,-1.7619,-1.8184,-1.9232,-1.9404,-1.9728,-2.0329,-2.0634,-2.0917,-2.1199,-2.1664,-2.2055,-2.2265,-2.2759,-2.299,-2.3096,-2.3052,-2.311,-2.3098,-2.2879,-2.265,-2.2389,-2.2252,-2.2114,-2.1785,0.0,0.0,0.0,0.0,-1.8626,-1.8022,0.0,0.0,0.0,0.0,0.0,0.0,0.0,0.0,0.0,0.0,0.0,-1.7677,-1.7644,-1.7224,-1.7112,-1.7644,-1.7644,-1.7809,0.0,0.0,0.0,-1.7179,-1.6684,-1.6343,-1.6093,-1.5874,-1.57,-1.5575,-1.5575,-1.5633,-1.5816,-1.6161,-1.6549,-1.6989,-1.76,-1.8104,-1.8536,-1.8975,-1.9146,-1.9198,-1.9146,-1.8255,-1.6933,-1.6539,-1.5968,-1.5284,-1.4883,-1.4478,-1.407,-1.389,0.0,0.0,0.0,0.0,0.0,0.0,0.0,0.0,0.0,0.0,0.0,0.0,0.0,0.0,0.0,0.0,0.0,0.0,0.0,0.0,0.0,0.0,0.0,0.0,-1.2696,-1.318,-1.3501,-1.3389,-1.3453,-1.4015,-1.4578,-1.527,-1.6233,-1.6758,-1.7436,-1.8399,-1.865,-1.9039,-1.9763,-2.0134,0.0,0.0,0.0,-2.2004,-2.2073,-2.3142,-2.3723,-2.3734,-2.4436,-2.4779,-2.485,-2.4622,-2.4501,-2.4465,-2.4054,-2.3783,-2.357,-2.3423,-2.322,-2.2925,-2.2148,-2.1768,-2.1633,-2.0874,-2.0084,-1.9281,0.0,0.0,0.0,0.0,0.0,0.0,0.0,0.0,0.0,-2.0508,-1.9812,-1.9359,-1.9319,-1.9044,-1.898,-1.9245,-1.923,-1.915,0.0,0.0,-1.8494,-1.7929,-1.76,-1.7335,-1.7101,-1.6989,-1.6866,-1.6866,-1.6866,-1.6866,-1.6922,-1.7335,-1.771,-1.8015,-1.878,-1.9307,-1.9683,-2.0003,-2.0207,-2.0258,-2.0156,-1.9202,-1.782,-1.7257,-1.6641,-1.6026,-1.5342,-1.4951,-1.4734,-1.4249,-1.413,-1.401,-1.3761,0.0,0.0,0.0,0.0,0.0,0.0,0.0,0.0,0.0,0.0,0.0,0.0,0.0,0.0,0.0,0.0,0.0,0.0,0.0,0.0,-1.3115,-1.3474,-1.3922,-1.4572,-1.4992,-1.5294,-1.5431,-1.5842,-1.6526,-1.7614,-1.7919,-1.8411,-1.9058,-1.9305,-1.9855,-2.0739,-2.1188,-2.1951,-2.3218,-2.358,-2.3927,-2.4354,-2.4602,-2.4874,-2.5168,-2.5334,0.0,-2.5676,-2.5578,-2.5611,-2.5599,-2.5684,-2.5566,-2.5371,-2.5383,-2.5151,-2.4624,-2.3098,-2.2582,-2.2662,-2.207,-2.1384,-2.0718,0.0,0.0,0.0,0.0,0.0,0.0,0.0,0.0,0.0,0.0,-2.1183,-2.0756,-2.0756,-2.0445,-2.0369,-2.0654,-2.0631,0.0,0.0,-1.954,-1.9133,-1.8506,-1.8278,-1.805,-1.7831,-1.7765,-1.771,-1.7644,-1.7644,-1.7699,-1.7863,-1.8135,-1.8525,-1.9004,-1.9567,-2.008,-2.0547,-2.0809,-2.097,-2.1055,-2.0871,-2.0245,-1.9347,-1.8501,-1.7754,-1.6989,-1.6312,-1.5874,-1.5478,-1.4951,-1.4784,-1.4666,-1.4369,-1.424,-1.424,0.0,0.0,0.0,0.0,0.0,0.0,0.0,0.0,0.0,0.0,0.0,0.0,0.0,0.0,-1.3388,-1.3467,0.0,-1.368,-1.4106,-1.4586,-1.505,-1.5636,-1.6437,-1.6899,-1.6682,-1.7038,-1.7567,-1.8476,-1.8759,-1.9078,-1.9718,-2.0022,-2.0592,-2.1584,-2.2273,-2.3116,-2.4032,-2.4527,-2.4945,-2.5312,-2.5535,-2.5688,-2.591,-2.5968,-2.6176,-2.6314,-2.6314,-2.6383,-2.6589,-2.6714,-2.6645,-2.6564,-2.6371,-2.6094,-2.5742,-2.4723,-2.402,-2.3602,-2.3041,-2.2445,-2.1733,0.0,0.0,0.0,0.0,0.0,0.0,0.0,0.0,0.0,0.0,0.0,-2.2104,-2.2104,-2.1796,-2.1749,0.0,0.0,0.0,0.0,-2.0232,-1.9708,-1.8999,-1.8934,-1.8762,-1.859,-1.8643,-1.859,-1.8417,-1.8471,-1.8566,-1.8845,-1.898,-1.9359,-1.9952,-2.0346,-2.0782,-2.1237,-2.1506,-2.1664,-2.1746,-2.1471,-2.1215,-2.0894,-1.9901,-1.8963,-1.8007,-1.739,-1.6775,-1.6228,-1.5758,-1.5478,-1.5323,-1.4951,-1.4824,-1.4824,-1.4706,-1.4824,0.0,0.0,0.0,0.0,0.0,0.0,0.0,0.0,0.0,-1.413,-1.3812,-1.3813,-1.39,-1.4096,-1.4288,-1.4644,-1.5133,-1.5668,-1.6147,-1.6649,-1.752,-1.8142,-1.7996,-1.8165,-1.8577,-1.9081,-1.9341,-1.9728,-2.0377,-2.0856,-2.1458,-2.2306,-2.3224,-2.397,-2.4478,-2.5111,-2.5535,-2.5746,-2.6119,-2.627,-2.627,-2.6533,-2.6726,-2.6794,-2.685,-2.7053,-2.7403,-2.7469,-2.7443,-2.7364,-2.704,-2.6769,-2.6552,-2.6164,-2.5489,-2.4618,-2.3991,-2.3375,-2.2708,0.0,0.0,0.0,0.0,0.0,0.0,0.0,0.0,0.0,0.0,0.0,0.0,0.0,0.0,0.0,0.0,0.0,0.0,0.0,-2.0917,-2.0396,-1.9695,-1.9798,-1.9798,-1.9643,-1.9734,-1.9734,-1.9592,-1.9734,-1.9837,-2.0016,-2.0258,-2.0597,-2.1028,-2.1444,-2.1793,-2.2077,-2.2217,-2.2324,-2.2278,-2.2044,-2.1841,-2.1602,-2.1033,-2.0016,-1.8774,-1.7941,-1.7401,-1.7022,-1.6368,-1.6093,-1.5941,-1.5468,-1.5294,-1.5294,-1.5294,0.0,-1.5758,-1.5758,-1.5526,-1.5303,-1.5147,-1.5088,-1.5088,0.0,0.0,-1.497,-1.4656,-1.4884,-1.5152,-1.4969,-1.5332,-1.5697,-1.6081,-1.6324,-1.6822,-1.776,-1.8171,-1.8658,-1.9538,-1.937,-1.9311,-1.973,-1.9984,-2.0472,-2.1314,-2.1725,-2.2424,-2.3372,-2.3897,-2.455,-2.5394,-2.5688,-2.6037,-2.6383,-2.6589,-2.6658,-2.6658,-2.6998,-2.7201,-2.7268,-2.7523,-2.7709,-2.7789,-2.8039,-2.8157,-2.8157,-2.7842,-2.7564,-2.7351,-2.6837,-2.6402,-2.6052,-2.5228,-2.4554,-2.3965,0.0,0.0,0.0,0.0,0.0,0.0,0.0,0.0,0.0,0.0,0.0,0.0,0.0,0.0,0.0,0.0,0.0,0.0,-2.2321,-2.169,-2.1104,-2.0547,-2.0497,-2.0446,-2.0396,-2.0446,-2.0396,-2.0258,-2.0396,-2.056,-2.0785,-2.1068,-2.1396,-2.1779,-2.2063,-2.2342,-2.2632,-2.2572,-2.2572,-2.254,-2.2217,-2.1996,-2.1746,-2.118,-2.0536,-1.9708,-1.8975,-1.8321,0.0,0.0,-1.7,-1.6673,-1.6436,-1.6275,-1.6228,-1.6228,-1.6389,0.0,-1.6343,-1.5989,-1.5652,0.0,-1.5371,-1.5254,-1.5156,-1.5156,-1.5164,-1.5144,-1.5331,-1.5604,-1.5909,-1.6207,-1.659,-1.7043,-1.7394,-1.7827,-1.8302,-1.9,-1.9669,-2.0163,-2.0432,-2.0562,-2.0675,-2.0903,-2.1363,-2.2014,-2.2628,-2.3224,-2.3751,-2.4394,-2.4969,-2.5606,-2.5828,-2.6107,-2.6589,-2.6782,-2.6985,-2.7188,-2.7456,-2.7723,-2.7908,-2.8105,-2.8352,-2.8675,-2.8944,-2.9085,-2.9022,-2.8803,-2.8532,-2.8195,-2.7683,-2.7217,-2.6756,-2.5734,-2.518,-2.4777,0.0,0.0,0.0,0.0,0.0,0.0,0.0,0.0,0.0,0.0,0.0,0.0,0.0,0.0,0.0,0.0,0.0,0.0,0.0,-2.2483,-2.1874,-2.1286,-2.1237,0.0,-2.1104,-2.1153,-2.1104,-2.0908,-2.1104,-2.1299,-2.1568,-2.1841,-2.217,-2.2495,-2.2709,-2.2889,-2.3038,-2.2889,-2.2799,-2.2754,-2.2402,-2.2137,-2.1841,-2.1326,-2.0885,-2.0472,-1.972,-1.9093,0.0,0.0,-1.7897,-1.7556,-1.739,-1.7245,-1.7088,-1.7134,-1.7134,-1.7067,-1.6797,0.0,0.0,-1.5788,-1.5604,-1.5362,-1.5254,-1.5264,-1.5321,-1.5552,-1.5733,-1.6109,-1.6703,-1.7007,-1.736,-1.789,-1.8228,-1.8598,-1.8955,-1.9732,-2.0392,-2.0822,-2.1363,-2.1731,-2.1807,-2.1883,-2.2176,-2.2703,-2.3298,-2.3813,-2.4189,-2.4826,-2.5324,-2.5676,-2.5898,-2.6314,-2.685,-2.7108,-2.7443,-2.7776,-2.8039,-2.83,-2.861,-2.8803,-2.9121,-2.9512,-2.9651,-2.9741,-2.9727,-2.9512,-2.931,-2.9044,-2.8532,-2.8012,-2.7497,-2.6483,-2.5873,-2.5382,0.0,0.0,0.0,0.0,0.0,0.0,0.0,0.0,0.0,0.0,0.0,0.0,0.0,0.0,0.0,0.0,0.0,0.0,0.0,-2.326,-2.2618,-2.1996,-2.2091,-2.2044,-2.1793,-2.203,-2.2044,-2.1746,-2.2044,-2.2231,-2.237,-2.2709,-2.2994,-2.3275,-2.3407,-2.3466,-2.3466,-2.3216,-2.3038,-2.2844,-2.254,-2.2324,-2.2137,-2.1616,-2.1229,-2.0835,-1.9914,0.0,0.0,0.0,-1.8709,-1.8608,-1.8321,-1.8061,0.0,-1.805,-1.7788,-1.7412,-1.7067,-1.656,-1.6066,-1.5914,-1.5662,-1.541,-1.541,-1.541,-1.5537,-1.5977,-1.6406,-1.6792,-1.7305,-1.7715,-1.8135,-1.8475,-1.8553,-1.8926,-1.9969,-2.0332,-2.0812,-2.1649,-2.209,-2.2628,-2.315,-2.2703,-2.2703,-2.3519,-2.3751,-2.425,-2.504,-2.5182,-2.5465,-2.591,-2.6233,-2.662,-2.7162,-2.7577,-2.8039,-2.8481,-2.8894,-2.9149,-2.931,-2.9623,-2.9898,-3.005,-3.005,-3.005,-3.005,-2.9884,-2.9808,-2.9747,-2.9275,-2.8844,-2.8457,-2.7696,-2.6756,-2.5828,0.0,0.0,0.0,0.0,0.0,0.0,0.0,0.0,0.0,0.0,0.0,0.0,0.0,0.0,0.0,0.0,0.0,0.0,0.0,-2.4044,-2.3522,-2.3113,-2.3054,-2.2965,-2.2875,-2.2965,-2.2875,-2.2589,-2.2785,-2.2934,-2.2994,-2.326,-2.3465,-2.361,-2.3668,-2.3668,-2.3523,-2.3113,-2.2889,-2.2754,-2.2402,-2.2137,-2.1902,-2.1568,-2.1166,-2.0822,0.0,0.0,0.0,0.0,0.0,-1.9371,-1.9133,-1.8934,-1.8697,-1.8494,-1.8116,-1.7678,-1.7234,-1.6684,-1.6181,-1.5972,-1.5662,-1.541,-1.541,-1.541,-1.5615,-1.6357,-1.6684,-1.7135,-1.7856,-1.834,-1.8676,-1.8744,-1.9246,-1.9792,-2.0312,-2.1063,-2.1847,-2.2531,-2.2927,-2.3446,-2.4043,-2.3666,-2.3604,-2.4127,-2.4478,-2.4826,-2.5123,-2.5324,-2.5676,-2.6094,-2.6564,-2.704,-2.7577,-2.8157,-2.8675,-2.9044,-2.9526,-2.9837,-2.9993,-3.0068,-3.0266,-3.0462,-3.0462,-3.0462,-3.0401,-3.0387,-3.0251,-3.0129,-2.9851,-2.9477,-2.9008,-2.843,-2.7696,-2.6892,0.0,0.0,0.0,0.0,0.0,0.0,0.0,0.0,0.0,0.0,0.0,0.0,0.0,0.0,0.0,0.0,0.0,0.0,0.0,0.0,-2.4415,-2.4168,-2.4044,-2.396,-2.3903,-2.396,-2.3834,-2.3621,-2.3706,-2.3736,-2.3767,-2.3937,-2.4036,-2.4078,-2.4051,-2.3925,-2.3696,-2.3304,-2.3038,-2.2799,-2.248,-2.2217,-2.1996,-2.1664,-2.1313,0.0,0.0,0.0,0.0,0.0,0.0,-1.9914,-1.9617,-1.9408,-1.9133,-1.8721,-1.829,-1.7854,-1.7468,-1.6965,-1.6513,-1.6306,-1.5951,-1.5642,-1.5584,-1.5645,-1.5909,-1.6645,-1.71,-1.7546,-1.8342,-1.8702,-1.8993,-1.9304,-1.9835,-2.039,-2.1002,-2.1826,-2.2628,-2.3224,-2.3677,-2.4116,-2.4634,-2.4478,-2.4406,-2.4694,-2.4981,-2.5182,-2.5253,-2.5746,-2.6164,-2.6496,-2.704,-2.7643,-2.8249,-2.8739,-2.9233,-2.9685,-3.0083,-3.0341,-3.0387,-3.0387,-3.0507,-3.0568,-3.0568,-3.0568,-3.0568,-3.0568,-3.0507,-3.0387,-3.0219,-2.9898,-2.9435,-2.9008,-2.843,-2.7762,0.0,0.0,0.0,0.0,0.0,0.0,0.0,0.0,0.0,0.0,0.0,0.0,0.0,0.0,0.0,0.0,0.0,0.0,0.0,0.0,0.0,-2.5057,-2.5073,-2.5019,-2.4909,-2.5003,-2.4996,-2.4776,-2.4792,-2.4752,-2.4664,-2.4799,-2.4775,-2.463,-2.4564,-2.4317,-2.3982,-2.364,-2.3363,-2.3083,-2.2844,-2.2572,-2.237,-2.1935,0.0,0.0,0.0,0.0,0.0,0.0,0.0,-2.0067,-1.9862,-1.9488,-1.9081,-1.8721,-1.8356,-1.803,-1.7767,-1.7357,-1.6955,-1.6807,-1.6467,-1.6056,-1.5931,-1.6108,-1.6435,-1.6944,-1.75,-1.8127,0.0,0.0,-1.9114,-1.9971,-2.0216,-2.0689,-2.1943,-2.2585,-2.3276,-2.3897,-2.4273,-2.4706,-2.504,-2.5111,-2.5123,-2.5123,-2.5241,-2.5382,-2.5606,-2.6302,-2.685,-2.704,-2.7709,-2.8365,-2.9099,-2.9261,-2.9685,-3.0312,-3.0507,-3.0568,-3.0568,-3.0568,-3.0568,-3.0568,-3.0628,-3.0628,-3.0628,-3.0642,-3.0642,-3.0628,-3.0387,-3.0129,-2.9808,-2.9435,-2.9008,-2.8522,0.0,0.0,0.0,0.0,0.0,0.0,0.0,0.0,0.0,0.0,0.0,0.0,0.0,0.0,0.0,0.0,0.0,0.0,0.0,0.0,0.0,0.0,0.0,0.0,0.0,0.0,0.0,0.0,0.0,-2.5713,-2.547,-2.5481,-2.5384,0.0,-2.4918,-2.4599,-2.4287,-2.3782,-2.348,-2.329,0.0,-2.2754,-2.2572,0.0,0.0,0.0,0.0,0.0,0.0,0.0,0.0,0.0,-1.9251,-1.8869,-1.8494,-1.8267,-1.8018,-1.7767,-1.759,-1.72,-1.6864,-1.6807,-1.6467,-1.6114,-1.6056,-1.6343,-1.686,-1.7421,-1.8134,-1.8923,-1.952,-1.9881,-2.0122,-2.0149,-2.0635,-2.1211,-2.1932,-2.2661,-2.3383,-2.4227,-2.4694,-2.504,-2.5241,-2.5394,-2.5535,-2.5688,-2.5758,-2.5886,-2.6151,-2.6756,-2.7229,-2.7577,-2.8365,-2.8958,-2.9261,-2.9747,-3.019,-3.0507,-3.0568,-3.0568,-3.0568,-3.0568,-3.0568,-3.0628,-3.0702,-3.0762,-3.0762,-3.0895,-3.0955,-3.0955,-3.0762,-3.0568,-3.0326,-2.987,-2.9435,-2.9058,0.0,0.0,0.0,0.0,0.0,0.0,0.0,0.0,0.0,0.0,0.0,0.0,0.0,0.0,0.0,0.0,0.0,0.0,0.0,0.0,0.0,0.0,0.0,0.0,0.0,0.0,0.0,0.0,0.0,0.0,0.0,-2.6175,-2.6013,-2.5795,-2.5443,-2.5059,-2.4695,0.0,0.0,0.0,0.0,0.0,0.0,0.0,0.0,0.0,0.0,0.0,0.0,0.0,0.0,-1.8655,-1.8494,-1.8213,-1.7886,-1.7655,0.0,-1.7412,-1.7357,-1.72,-1.7043,-1.7043,-1.6751,-1.6498,-1.6601,-1.7054,-1.7572,-1.8155,-1.9008,-1.9748,-2.0085,-2.0347,-2.0587,-2.0614,-2.1,-2.1476,-2.2017,-2.2908,-2.3723,-2.4331,-2.4897,-2.5241,-2.5312,-2.5465,-2.5746,-2.6037,-2.6233,-2.6496,-2.6756,-2.7484,-2.8026,-2.8379,-2.9008,-2.9512,-2.9747,-3.019,-3.0507,-3.0568,-3.0568,-3.0642,-3.0702,-3.0702,-3.0762,-3.0821,-3.094,-3.0999,-3.1058,-3.1234,-3.1234,-3.119,-3.0999,-3.0747,-3.0568,-3.019,-2.9808,-2.9498,0.0,0.0,0.0,0.0,0.0,0.0,0.0,0.0,0.0,0.0,0.0,0.0,0.0,0.0,0.0,0.0,0.0,0.0,0.0,0.0,0.0,0.0,0.0,0.0,0.0,0.0,0.0,0.0,0.0,0.0,0.0,0.0,0.0,0.0,0.0,0.0,0.0,0.0,0.0,0.0,0.0,0.0,0.0,0.0,0.0,0.0,0.0,0.0,0.0,0.0,-1.8104,-1.805,-1.7667,-1.7446,-1.7224,-1.6955,-1.6899,-1.6955,-1.7078,-1.7145,-1.7166,-1.7222,-1.7088,-1.696,-1.7201,-1.7758,-1.843,-1.8932,-1.9874,-2.056,-2.0593,-2.0658,-2.0857,-2.1041,0.0,-2.1575,-2.2139,-2.3201,-2.3977,-2.4255,-2.4859,-2.5312,-2.5312,-2.5535,-2.5816,-2.622,-2.6837,-2.7175,-2.7364,-2.8338,-2.9008,-2.9275,-2.9637,-3.0007,-3.0326,-3.0507,-3.0568,-3.0568,-3.0642,-3.0702,-3.0821,-3.0881,-3.0999,-3.119,-3.1351,-3.1394,-3.1452,-3.1552,-3.1552,-3.1394,-3.1146,-3.0911,-3.0642,-3.0447,-3.0129,-2.9884,0.0,0.0,0.0,0.0,0.0,0.0,0.0,0.0,0.0,0.0,-2.6775,0.0,0.0,0.0,0.0,0.0,0.0,0.0,0.0,0.0,0.0,0.0,0.0,0.0,0.0,0.0,0.0,0.0,0.0,0.0,0.0,0.0,0.0,0.0,0.0,0.0,0.0,0.0,0.0,0.0,0.0,0.0,0.0,0.0,0.0,0.0,0.0,0.0,0.0,0.0,-1.7556,-1.7168,-1.6899,-1.6627,-1.6457,-1.6457,-1.64,-1.6457,-1.6627,-1.6581,-1.6524,-1.6694,-1.6591,-1.6555,-1.68,-1.7819,0.0,0.0,-2.0392,-2.1273,-2.1434,-2.1509,-2.1469,-2.122,-2.1273,-2.1521,-2.1797,-2.2771,-2.3588,-2.4001,-2.4777,-2.5312,-2.5312,-2.5606,-2.6037,-2.6577,-2.7377,-2.7894,-2.8091,-2.8789,-2.9498,-3.0068,-3.019,-3.0312,-3.0568,-3.0568,-3.0568,-3.0568,-3.0702,-3.0821,-3.097,-3.1161,-3.1336,-3.1625,-3.1811,-3.1925,-3.2079,-3.2176,-3.2079,-3.1868,-3.1682,-3.1351,-3.1014,-3.0762,-3.0507,-3.019,0.0,0.0,0.0,0.0,0.0,0.0,0.0,0.0,0.0,0.0,-2.6452,-2.6452,0.0,0.0,0.0,0.0,0.0,0.0,0.0,0.0,0.0,0.0,0.0,0.0,0.0,0.0,0.0,0.0,0.0,0.0,0.0,0.0,0.0,0.0,0.0,0.0,0.0,0.0,0.0,0.0,0.0,0.0,0.0,0.0,0.0,0.0,0.0,0.0,0.0,0.0,-1.7446,-1.7022,-1.641,-1.6192,-1.6077,-1.5884,-1.5894,-1.6009,-1.6171,-1.6228,-1.6228,-1.6343,-1.641,-1.6644,-1.7048,0.0,0.0,0.0,-2.0679,-2.1346,-2.1651,-2.1761,-2.1675,-2.1336,-2.1474,-2.1568,-2.1567,-2.2367,-2.3148,-2.3656,-2.4441,-2.5011,-2.5288,-2.5676,-2.6107,-2.6658,-2.751,-2.8235,-2.8688,-2.9435,-3.0007,-3.0447,-3.0447,-3.0507,-3.0568,-3.0568,-3.0642,-3.0702,-3.0866,-3.1043,-3.1379,-3.1567,-3.1796,-3.2064,-3.2231,-3.2342,-3.2453,-3.2578,-3.2484,-3.2191,-3.1966,-3.1625,-3.1278,-3.1058,-3.0762,-3.0447,0.0,0.0,0.0,0.0,0.0,0.0,0.0,-2.6435,-2.6314,-2.6225,-2.601,-2.5937,-2.6082,-2.6082,0.0,0.0,0.0,0.0,0.0,0.0,0.0,0.0,0.0,0.0,0.0,0.0,0.0,-2.6971,0.0,0.0,0.0,0.0,0.0,0.0,0.0,0.0,0.0,0.0,0.0,0.0,0.0,0.0,0.0,0.0,0.0,0.0,0.0,0.0,0.0,0.0,-1.7611,-1.719,-1.6363,-1.6029,-1.5904,-1.5546,-1.5604,-1.573,-1.5768,-1.5874,-1.5941,-1.5941,-1.6171,-1.6618,-1.7196,-1.7937,0.0,-1.9918,-2.0686,-2.1283,-2.1575,-2.1803,-2.1862,0.0,-2.1612,-2.1624,-2.14,-2.211,-2.2847,-2.3356,-2.407,-2.4723,-2.5252,-2.5676,-2.6176,-2.6714,-2.7762,-2.8638,-2.9289,-2.996,-3.0447,-3.0568,-3.0568,-3.0568,-3.0568,-3.0642,-3.0702,-3.0881,-3.1029,-3.1379,-3.1781,-3.2023,-3.2302,-3.2578,-3.2672,-3.2711,-3.2765,-3.292,-3.2827,-3.2468,-3.2262,-3.1966,-3.1625,-3.1409,-3.1058,-3.0687,0.0,0.0,0.0,0.0,0.0,0.0,0.0,-2.6295,-2.617,-2.5954,-2.5659,-2.5454,-2.5492,-2.5626,0.0,0.0,0.0,0.0,0.0,0.0,0.0,0.0,0.0,0.0,0.0,0.0,0.0,-2.6573,-2.6505,0.0,0.0,0.0,0.0,0.0,0.0,-2.4471,0.0,0.0,0.0,0.0,0.0,0.0,0.0,0.0,0.0,0.0,0.0,0.0,0.0,0.0,0.0,-1.7678,-1.6976,-1.641,-1.6009,-1.573,0.0,0.0,-1.5478,-1.5468,-1.5468,-1.5468,-1.572,-1.6087,-1.6757,0.0,-1.8703,-1.9375,-2.0498,-2.1356,-2.1416,-2.1812,-2.2061,-2.1761,0.0,-2.1572,-2.1296,-2.194,-2.2728,-2.3246,0.0,-2.4723,-2.5252,-2.5804,-2.6358,-2.6905,-2.8495,-2.9602,-2.9988,-3.0341,-3.0568,-3.0568,-3.0568,-3.0568,-3.0568,-3.0702,-3.0866,-3.097,-3.1452,-3.1796,-3.2135,-3.2453,-3.2726,-3.3043,-3.3043,-3.3134,-3.324,-3.3256,-3.3096,-3.2843,-3.2843,-3.2444,-3.1996,-3.2079,-3.161,-3.097,0.0,0.0,0.0,0.0,0.0,0.0,0.0,-2.6134,-2.597,-2.5749,-2.5432,-2.5224,-2.5224,-2.5262,-2.5301,0.0,0.0,0.0,0.0,0.0,0.0,0.0,0.0,0.0,0.0,0.0,0.0,-2.5652,-2.5631,0.0,0.0,0.0,0.0,0.0,0.0,-2.3593,-2.3275,0.0,0.0,0.0,0.0,0.0,0.0,0.0,0.0,0.0,0.0,0.0,0.0,0.0,0.0,0.0,-1.7323,-1.7032,0.0,0.0,-1.5951,-1.5894,-1.5662,-1.5478,-1.541,-1.541,-1.5662,-1.6029,-1.6581,0.0,-1.8137,-1.8952,-1.97,-2.0357,-2.0961,-2.1246,-2.1495,0.0,0.0,0.0,-2.1498,-2.1863,-2.232,-2.2906,-2.3616,-2.4345,-2.4933,-2.5632,-2.644,-2.7497,-2.8817,-2.9741,-3.005,-3.0401,-3.0568,-3.0568,-3.0568,-3.0568,-3.0568,-3.0702,-3.0984,-3.1306,-3.1682,-3.215,-3.2609,-3.2812,-3.3027,-3.3203,-3.3203,-3.3256,-3.3309,-3.3309,-3.3203,-3.3005,-3.2951,-3.2664,-3.2342,-3.2247,-3.1853,-3.1379,0.0,0.0,0.0,0.0,0.0,0.0,-2.6007,-2.586,-2.5659,-2.5448,-2.524,-2.5068,-2.5068,-2.5045,-2.5045,-2.5217,0.0,0.0,0.0,0.0,0.0,0.0,0.0,0.0,0.0,0.0,0.0,-2.491,-2.4815,-2.4623,0.0,0.0,-2.3864,-2.3537,0.0,0.0,0.0,0.0,0.0,0.0,0.0,0.0,0.0,0.0,0.0,0.0,0.0,0.0,0.0,0.0,0.0,0.0,0.0,0.0,0.0,0.0,-1.6285,-1.6239,-1.5894,-1.571,-1.5526,-1.5478,-1.573,-1.6029,0.0,0.0,-1.7567,-1.8318,-1.8849,-1.9401,-2.0321,-2.0661,-2.0941,0.0,0.0,-2.1698,-2.1698,-2.1812,-2.2127,-2.265,-2.337,-2.4032,-2.4755,-2.5704,-2.6837,-2.8105,-2.9085,-2.9741,-3.005,-3.0401,-3.0568,-3.0568,-3.0568,-3.0568,-3.0568,-3.0762,-3.1102,-3.1552,-3.1966,-3.2428,-3.2951,-3.3096,-3.3203,-3.3309,-3.3309,-3.3309,-3.3309,-3.3309,-3.3256,-3.315,-3.3058,-3.292,-3.2726,-3.2523,-3.2191,-3.1796,0.0,0.0,0.0,0.0,0.0,0.0,0.0,-2.5416,-2.5317,-2.5045,-2.5005,-2.5005,-2.5005,-2.5005,-2.5005,-2.5005,0.0,0.0,0.0,0.0,0.0,0.0,0.0,0.0,0.0,0.0,0.0,0.0,0.0,-2.3794,-2.3595,-2.3246,-2.2979,-2.2694,0.0,0.0,0.0,0.0,0.0,0.0,0.0,0.0,0.0,0.0,0.0,0.0,0.0,0.0,0.0,0.0,0.0,0.0,0.0,0.0,0.0,0.0,-1.6694,-1.6694,-1.6228,-1.5989,-1.5874,-1.573,-1.5798,-1.5972,0.0,0.0,-1.7123,-1.7423,-1.8047,-1.8712,-1.9315,-1.9996,-2.0684,-2.1307,0.0,0.0,-2.1698,-2.1812,-2.2127,-2.265,-2.337,-2.4032,-2.4755,-2.6223,-2.7577,-2.8522,-2.9226,-2.9741,-3.005,-3.0401,-3.0568,-3.0568,-3.0568,-3.0568,-3.0568,-3.0955,-3.1292,-3.1667,-3.2176,-3.2633,-3.3096,-3.3256,-3.3309,-3.3309,-3.3309,-3.3309,-3.3309,-3.3309,-3.3309,-3.3309,-3.3309,-3.3203,-3.3096,-3.3096,-3.2703,-3.2135,0.0,0.0,0.0,0.0,0.0,0.0,0.0,-2.4974,-2.4974,-2.4855,-2.4846,-2.4902,-2.5005,-2.5005,-2.4966,-2.4862,0.0,0.0,0.0,0.0,0.0,0.0,0.0,0.0,0.0,0.0,0.0,0.0,0.0,0.0,0.0,0.0,-2.2449,-2.2077,-2.1746,-2.1471,0.0,0.0,0.0,0.0,0.0,0.0,0.0,0.0,0.0,0.0,0.0,0.0,0.0,0.0,0.0,0.0,0.0,0.0,0.0,0.0,0.0,0.0,-1.6694,-1.64,-1.6114,-1.5884,-1.5846,-1.5904,-1.5999,0.0,-1.657,-1.6853,-1.7151,-1.7611,-1.8583,-1.905,-1.9672,-2.0882,-2.1221,0.0,0.0,0.0,0.0,-2.2088,-2.3466,-2.483,-2.5952,-2.7126,-2.7973,-2.8522,-2.9338,-2.9837,-3.0111,-3.0401,-3.0568,-3.0568,-3.0568,-3.0642,-3.0762,-3.1058,-3.1524,-3.2079,-3.2398,-3.278,-3.3256,-3.3309,-3.3309,-3.3309,-3.3309,-3.3309,-3.3309,-3.3309,-3.3309,-3.3309,-3.3309,-3.3256,-3.3203,-3.315,-3.2935,-3.2547,0.0,0.0,0.0,0.0,0.0,0.0,0.0,-2.4492,-2.4533,-2.4533,-2.463,-2.4766,-2.4846,-2.4886,-2.4862,-2.4701,0.0,0.0,0.0,0.0,0.0,0.0,0.0,0.0,0.0,0.0,0.0,0.0,0.0,0.0,0.0,0.0,0.0,-2.1471,-2.1082,0.0,0.0,0.0,0.0,0.0,0.0,0.0,-1.8193,0.0,0.0,0.0,0.0,0.0,0.0,0.0,0.0,0.0,0.0,0.0,0.0,0.0,-1.7134,-1.7301,0.0,-1.6694,-1.641,-1.6056,-1.5951,0.0,0.0,0.0,-1.6192,-1.6306,-1.642,-1.6806,-1.7899,-1.8384,-1.9004,-2.0478,-2.0967,-2.1296,0.0,0.0,-2.2017,-2.2714,-2.4025,-2.5405,-2.6857,-2.7762,-2.8495,-2.883,-2.9526,-3.0021,-3.0158,-3.0522,-3.0702,-3.0702,-3.0702,-3.0762,-3.0866,-3.1278,-3.1739,-3.2302,-3.2563,-3.2904,-3.3309,-3.3309,-3.3309,-3.3309,-3.3309,-3.3309,0.0,-3.3309,-3.3309,-3.3309,-3.3309,-3.3309,-3.3309,-3.3203,-3.3096,-3.2788,0.0,0.0,0.0,0.0,0.0,0.0,0.0,0.0,0.0,0.0,-2.4369,-2.4589,-2.4589,-2.4686,-2.4701,0.0,0.0,0.0,0.0,0.0,0.0,0.0,0.0,0.0,0.0,0.0,0.0,-2.242,-2.2109,-2.1793,-2.1506,0.0,0.0,0.0,0.0,0.0,0.0,0.0,0.0,0.0,0.0,0.0,0.0,0.0,0.0,0.0,0.0,0.0,0.0,0.0,0.0,0.0,0.0,0.0,0.0,0.0,0.0,0.0,0.0,-1.6853,-1.6694,-1.6228,-1.6009,0.0,0.0,0.0,0.0,0.0,-1.5856,-1.6185,-1.7308,-1.7904,-1.8706,-2.0147,-2.0828,-2.1296,-2.1635,-2.1812,-2.2495,-2.4116,-2.4937,-2.5897,-2.7433,-2.8338,-2.898,-2.931,-2.9837,-3.0158,-3.0312,-3.0642,-3.0821,-3.0821,-3.0821,-3.0925,-3.1029,-3.1495,-3.1951,-3.2453,-3.2773,-3.3058,-3.3309,-3.3309,-3.3309,-3.3309,-3.3309,-3.3309,-3.3309,-3.3309,-3.3309,-3.3309,-3.3309,-3.3309,-3.3309,-3.3309,-3.3171,-3.287,0.0,0.0,0.0,0.0,0.0,0.0,0.0,0.0,0.0,0.0,0.0,-2.4245,-2.4343,-2.44,0.0,0.0,0.0,0.0,0.0,0.0,0.0,0.0,0.0,0.0,0.0,0.0,0.0,-2.1827,-2.1527,-2.1237,-2.1006,-2.0772,0.0,0.0,0.0,0.0,0.0,0.0,0.0,0.0,0.0,0.0,0.0,0.0,0.0,0.0,-1.641,-1.641,0.0,0.0,0.0,0.0,0.0,0.0,0.0,0.0,-1.6513,-1.6684,-1.6513,0.0,-1.6581,-1.6171,-1.5894,-1.5672,0.0,0.0,0.0,0.0,0.0,0.0,0.0,-1.7657,-1.8385,-1.9943,-2.0518,-2.0978,-2.1411,-2.1862,-2.2696,-2.4335,-2.5154,-2.6293,-2.8128,-2.8867,-2.931,-2.9685,-3.0007,-3.0266,-3.0312,-3.0642,-3.0821,-3.0821,-3.1161,-3.1379,-3.1552,-3.191,-3.2318,-3.2773,-3.2951,-3.315,-3.3309,-3.3309,-3.3309,-3.3309,-3.3309,-3.3309,-3.3309,-3.3309,-3.3309,-3.3309,-3.3309,-3.3309,-3.3309,-3.3309,-3.2872,-3.2217,0.0,0.0,0.0,0.0,0.0,0.0,0.0,0.0,0.0,0.0,0.0,0.0,0.0,0.0,0.0,0.0,0.0,0.0,0.0,0.0,0.0,0.0,0.0,0.0,0.0,0.0,0.0,0.0,0.0,-2.0534,0.0,0.0,0.0,0.0,0.0,0.0,0.0,0.0,0.0,0.0,-1.7245,0.0,0.0,0.0,0.0,0.0,-1.5941,-1.5884,0.0,-1.5816,-1.5758,-1.5768,0.0,0.0,0.0,0.0,-1.6066,-1.6249,-1.6134,-1.6296,-1.64,-1.6104,-1.5836,-1.5672,-1.5478,0.0,0.0,0.0,0.0,0.0,0.0,0.0,-1.8509,-2.0008,-2.0646,-2.1106,-2.1663,-2.2111,-2.2996,-2.4785,-2.5597,-2.681,-2.8671,-2.9338,-2.9775,-3.0007,-3.0251,-3.0447,-3.0507,-3.0866,-3.1043,-3.1102,-3.1552,-3.1853,-3.1868,-3.2176,-3.2578,-3.3005,-3.3096,-3.3203,-3.3309,-3.3309,-3.3309,-3.3309,-3.3309,-3.3309,-3.3309,-3.3309,-3.3309,-3.3309,-3.3309,-3.3309,-3.3261,-3.2909,-3.2494,-3.1934,0.0,0.0,0.0,0.0,0.0,0.0,0.0,0.0,0.0,0.0,0.0,0.0,0.0,0.0,0.0,0.0,0.0,0.0,0.0,0.0,0.0,0.0,0.0,0.0,0.0,0.0,0.0,0.0,0.0,0.0,0.0,0.0,-1.9356,0.0,0.0,0.0,0.0,0.0,0.0,0.0,-1.6627,0.0,0.0,0.0,0.0,0.0,0.0,0.0,0.0,-1.541,-1.541,-1.541,-1.541,0.0,0.0,0.0,0.0,0.0,-1.5798,-1.6019,-1.6181,-1.5941,-1.5778,-1.5672,-1.5478,0.0,0.0,0.0,0.0,0.0,0.0,-1.7957,0.0,0.0,-2.1019,-2.1612,-2.2185,-2.2543,-2.3417,-2.5266,-2.6158,-2.7305,-2.9038,-2.9741,-3.0158,-3.0312,-3.0507,-3.0702,-3.0821,-3.1161,-3.1394,-3.1552,-3.1966,-3.215,-3.2094,-3.2453,-3.2796,-3.315,-3.3256,-3.3309,-3.3309,-3.3309,-3.3309,-3.3309,-3.3309,-3.3309,-3.3309,-3.3309,-3.3346,-3.3346,-3.3346,-3.3282,-3.3124,-3.2435,-3.1986,-3.1608,0.0,0.0,0.0,0.0,0.0,0.0,0.0,0.0,0.0,0.0,0.0,0.0,0.0,0.0,0.0,0.0,0.0,0.0,0.0,0.0,0.0,0.0,0.0,0.0,0.0,0.0,0.0,0.0,0.0,0.0,-1.9291,-1.9052,-1.8625,0.0,0.0,0.0,-1.7168,-1.6909,-1.6637,-1.64,-1.6104,0.0,0.0,0.0,0.0,0.0,0.0,0.0,0.0,-1.541,-1.541,-1.541,-1.541,0.0,0.0,0.0,0.0,0.0,-1.5478,-1.5604,-1.5788,-1.5904,-1.5788,-1.5672,-1.5672,0.0,0.0,0.0,0.0,0.0,0.0,-1.8468,-1.9473,0.0,-2.1714,-2.2285,-2.2531,-2.2957,-2.3978,-2.5752,-2.6451,-2.755,-2.951,-2.9913,-3.0233,-3.0507,-3.0702,-3.0821,-3.097,-3.1321,-3.1552,-3.1682,-3.2023,-3.2287,-3.2492,-3.2757,-3.2989,-3.3256,-3.3309,-3.3309,-3.3309,-3.3309,-3.3309,-3.3309,-3.3309,-3.3309,-3.3309,-3.3398,-3.345,-3.3503,-3.3607,-3.3291,-3.2697,-3.2501,-3.1607,-3.0337,0.0,0.0,0.0,0.0,0.0,0.0,0.0,0.0,0.0,0.0,0.0,0.0,0.0,0.0,0.0,0.0,0.0,0.0,0.0,0.0,0.0,0.0,0.0,0.0,0.0,0.0,0.0,0.0,0.0,-1.8881,-1.8774,-1.8356,-1.7975,-1.7523,0.0,0.0,-1.6627,-1.64,-1.6181,-1.5961,0.0,0.0,0.0,0.0,0.0,0.0,0.0,0.0,0.0,0.0,-1.541,-1.541,-1.541,0.0,0.0,0.0,0.0,0.0,-1.541,-1.5604,-1.5798,-1.5856,-1.5856,-1.5856,-1.5894,-1.5826,0.0,0.0,0.0,0.0,0.0,0.0,-2.0189,-2.1444,-2.2173,-2.2604,-2.2836,-2.3305,-2.4136,-2.5561,-2.6552,-2.7714,-2.9153,-2.9883,-3.0341,-3.0702,-3.0807,-3.1043,-3.1379,-3.1667,-3.1951,-3.216,-3.2413,-3.2648,-3.285,-3.2935,-3.3112,-3.3309,-3.3309,-3.3309,-3.3309,-3.3309,-3.3309,-3.3309,-3.3309,-3.3346,-3.3398,-3.3555,-3.3642,-3.3713,-3.343,-3.311,-3.274,-3.1839,-3.0846,-2.9811,0.0,0.0,0.0,0.0,0.0,0.0,0.0,0.0,0.0,0.0,0.0,0.0,0.0,0.0,0.0,0.0,0.0,0.0,0.0,0.0,0.0,0.0,0.0,0.0,0.0,0.0,-1.921,-1.8881,-1.8679,-1.841,-1.8084,-1.7645,-1.7256,0.0,0.0,0.0,-1.6124,-1.5999,-1.5826,-1.5614,0.0,0.0,0.0,0.0,0.0,0.0,0.0,0.0,0.0,0.0,0.0,0.0,0.0,0.0,0.0,-1.541,-1.541,-1.541,-1.541,-1.5604,-1.5856,-1.5856,0.0,-1.6019,-1.6181,-1.6228,0.0,0.0,0.0,0.0,0.0,-1.9772,-2.107,-2.2175,-2.2616,-2.2909,-2.3198,-2.3649,-2.4315,-2.5381,-2.6758,-2.7914,-2.8905,-2.9772,-3.0447,-3.0762,-3.0984,-3.1278,-3.1739,-3.2079,-3.2398,-3.2672,-3.2827,-3.2951,-3.3096,-3.3096,-3.315,-3.3309,-3.3309,-3.3309,-3.3309,-3.3346,-3.3361,-3.3346,-3.3398,-3.3503,-3.3607,-3.3797,-3.3853,-3.3759,-3.334,-3.2966,-3.2447,-3.1089,-3.0235,-2.9722,0.0,0.0,0.0,0.0,0.0,0.0,0.0,0.0,0.0,0.0,0.0,0.0,0.0,0.0,0.0,0.0,0.0,0.0,0.0,0.0,0.0,0.0,0.0,0.0,0.0,-1.9448,-1.9028,-1.8614,-1.8182,-1.7678,-1.7067,-1.6797,-1.657,-1.6343,0.0,0.0,-1.573,-1.5536,-1.541,-1.541,-1.541,0.0,0.0,0.0,0.0,0.0,0.0,0.0,0.0,0.0,0.0,0.0,0.0,0.0,-1.541,-1.541,-1.541,-1.541,-1.541,-1.5546,-1.573,-1.573,-1.6029,0.0,-1.6524,-1.657,0.0,-1.6761,0.0,0.0,0.0,-2.085,-2.2372,-2.2775,-2.2957,-2.3198,-2.3509,-2.3956,-2.4678,-2.5761,-2.7034,-2.8133,-2.9066,-2.9846,-3.0447,-3.0762,-3.1117,-3.1452,-3.1925,-3.2247,-3.2523,-3.2843,-3.2897,-3.2951,-3.3096,-3.3096,-3.315,-3.3309,-3.3309,-3.3309,-3.3293,-3.345,-3.3503,-3.3503,-3.3761,-3.3848,-3.3899,-3.43,-3.4055,-3.3483,-3.3653,-3.2826,-3.1419,-3.0629,-3.0248,-3.0146,0.0,0.0,0.0,0.0,0.0,0.0,0.0,0.0,0.0,0.0,0.0,0.0,0.0,0.0,0.0,0.0,0.0,0.0,0.0,0.0,0.0,0.0,0.0,-1.9875,-1.9656,-1.9344,-1.8975,-1.8464,-1.7733,-1.7123,-1.674,-1.6457,0.0,0.0,0.0,0.0,-1.5536,-1.541,-1.541,-1.541,-1.541,-1.541,0.0,0.0,0.0,0.0,0.0,0.0,0.0,0.0,-1.541,-1.541,0.0,0.0,-1.541,0.0,-1.5478,-1.5604,-1.5604,-1.5778,-1.5951,-1.5951,-1.6296,0.0,0.0,-1.6976,-1.7245,-1.7468,-1.8473,0.0,0.0,0.0,-2.2482,-2.2739,-2.2969,-2.3198,-2.3569,-2.4015,-2.4558,-2.526,-2.6566,-2.7655,-2.8511,-2.9376,-3.0147,-3.0925,-3.1278,-3.1667,-3.2247,-3.2539,-3.2827,-3.315,-3.315,-3.3203,-3.3361,-3.3361,-3.345,-3.3642,-3.3503,-3.3503,-3.3642,-3.3761,-3.3848,-3.4,-3.4101,-3.399,-3.3713,-3.3968,-3.3664,-3.3015,-3.2763,-3.2007,-3.1075,-3.0792,-3.0551,-3.0359,0.0,0.0,0.0,0.0,0.0,0.0,0.0,0.0,0.0,0.0,0.0,0.0,0.0,0.0,0.0,0.0,0.0,0.0,0.0,0.0,0.0,0.0,0.0,-1.9823,-1.9565,-1.9291,-1.8881,-1.8313,-1.729,-1.6627,-1.6353,0.0,0.0,0.0,0.0,0.0,0.0,-1.541,-1.541,-1.541,-1.541,-1.541,0.0,0.0,0.0,0.0,0.0,0.0,0.0,0.0,0.0,0.0,0.0,0.0,0.0,0.0,0.0,-1.5672,-1.5672,-1.5894,-1.6114,0.0,0.0,0.0,-1.6864,-1.7256,-1.7645,-1.7963,-1.9169,-2.05,-2.1796,0.0,-2.2604,-2.28,-2.2969,-2.3198,-2.3569,-2.4015,-2.4523,-2.4948,-2.6274,-2.7384,-2.7869,-2.8771,-2.9624,-3.0424,-3.0919,-3.1479,-3.2074,-3.2648,-3.3112,-3.3346,-3.345,-3.3555,-3.3658,-3.3694,-3.3848,-3.4101,-3.3707,-3.3724,-3.405,-3.4101,-3.412,-3.4104,-3.4201,-3.3917,-3.3425,-3.3623,-3.3278,-3.257,-3.1993,-3.1446,-3.0992,-3.0952,-3.0773,-3.051,0.0,0.0,0.0,0.0,0.0,0.0,0.0,0.0,0.0,0.0,0.0,0.0,0.0,0.0,0.0,0.0,0.0,0.0,0.0,0.0,0.0,0.0,0.0,-1.9656,-1.942,-1.9158,-1.8667,-1.8084,-1.6909,-1.6181,-1.5914,-1.5546,0.0,0.0,0.0,0.0,0.0,0.0,-1.541,-1.541,-1.541,-1.541,-1.541,0.0,0.0,0.0,0.0,0.0,0.0,0.0,-1.541,0.0,0.0,0.0,0.0,0.0,-1.5546,-1.5672,-1.5672,-1.5894,-1.6114,0.0,0.0,0.0,-1.6955,-1.7357,-1.7822,-1.8325,-1.9574,-2.0957,-2.2153,-2.2665,-2.2969,-2.3078,-2.3078,-2.3198,-2.3569,-2.4118,-2.4637,-2.4948,-2.6372,-2.7269,-2.7324,-2.8121,-2.8779,-2.9098,-2.9997,-3.0815,-3.1366,-3.2476,-3.3187,-3.3487,-3.3729,-3.3882,-3.3882,-3.4134,-3.4333,-3.4464,-3.3964,-3.3919,-3.43,-3.4578,-3.431,-3.371,-3.4001,-3.3673,-3.3031,-3.3288,-3.2949,-3.2246,-3.1478,-3.119,-3.119,-3.1072,-3.0855,-3.0651,0.0,0.0,0.0,0.0,0.0,0.0,0.0,0.0,0.0,0.0,0.0,0.0,0.0,0.0,0.0,0.0,0.0,0.0,0.0,0.0,0.0,0.0,0.0,0.0,0.0,0.0,-1.7799,-1.7468,-1.6684,-1.6181,0.0,0.0,0.0,-1.541,0.0,0.0,0.0,0.0,-1.541,-1.541,-1.541,-1.541,-1.541,0.0,0.0,0.0,0.0,0.0,0.0,0.0,0.0,0.0,0.0,0.0,0.0,-1.541,-1.5604,-1.5856,-1.5951,-1.6296,0.0,-1.6729,0.0,0.0,0.0,-1.7755,0.0,0.0,-2.0427,-2.1144,-2.2347,-2.28,-2.2909,-2.2969,-2.315,-2.3463,-2.376,-2.4189,-2.4637,-2.5118,-2.5827,-2.6564,-2.7115,-2.7551,-2.8187,-2.9013,-2.966,-3.0251,-3.0794,-3.1408,-3.1823,-3.2024,-3.2255,-3.2434,-3.2626,-3.2847,-3.3143,-3.3461,-3.3422,-3.3662,-3.4134,-3.3818,-3.3627,-3.3549,-3.3583,-3.3237,-3.2611,-3.207,-3.1715,-3.1495,-3.1275,-3.119,-3.119,-3.1072,-3.0855,-3.0651,0.0,0.0,0.0,0.0,0.0,0.0,0.0,0.0,0.0,0.0,0.0,0.0,0.0,0.0,0.0,0.0,0.0,0.0,0.0,0.0,0.0,0.0,0.0,0.0,0.0,-1.7854,-1.7357,0.0,0.0,0.0,0.0,0.0,0.0,-1.541,0.0,-1.541,0.0,0.0,-1.541,-1.541,-1.541,-1.541,-1.541,0.0,0.0,0.0,0.0,0.0,0.0,0.0,0.0,0.0,0.0,0.0,0.0,-1.541,-1.5662,-1.5914,-1.6066,-1.6457,0.0,-1.7088,-1.7368,-1.7645,-1.7931,0.0,0.0,0.0,-2.077,-2.1272,-2.2541,-2.2909,-2.2969,-2.2969,-2.321,-2.3522,-2.3832,-2.4319,-2.4765,-2.5174,-2.5674,-2.6198,-2.6745,-2.7075,-2.7559,-2.837,-2.9034,-2.9657,-3.0149,-3.0817,-3.1306,-3.1485,-3.1726,-3.1994,-3.2272,-3.2574,-3.2857,-3.316,-3.3126,-3.327,-3.3584,-3.3474,-3.3303,-3.3121,-3.271,-3.2337,-3.1992,-3.1416,-3.119,-3.119,-3.119,-3.119,-3.119,-3.1072,-3.0855,-3.0651,0.0,0.0,0.0,0.0,0.0,0.0,0.0,0.0,0.0,0.0,0.0,0.0,0.0,0.0,0.0,0.0,0.0,0.0,0.0,0.0,0.0,0.0,0.0,0.0,0.0,0.0,0.0,0.0,0.0,0.0,0.0,0.0,-1.541,-1.541,0.0,-1.541,-1.541,-1.541,-1.541,-1.541,-1.541,-1.5362,-1.5362,-1.5362,0.0,0.0,0.0,0.0,0.0,0.0,0.0,0.0,-1.541,0.0,-1.541,-1.541,-1.5662,-1.5961,-1.6114,0.0,0.0,-1.7323,-1.7545,0.0,-1.8313,-1.8518,-1.8963,-2.0199,0.0,-2.1457,-2.265,-2.3017,-2.3078,-2.3078,-2.3271,-2.3522,-2.3891,-2.4447,-2.4892,-2.5174,-2.5729,-2.6111,-2.6286,-2.6553,-2.6937,-2.735,-2.8333,-2.9073,-2.9503,-3.049,-3.1116,-3.139,-3.1785,-3.2063,-3.2302,-3.2744,-3.306,-3.3186,-3.2849,-3.2698,-3.2715,-3.3248,-3.314,-3.2434,-3.164,-3.1295,-3.1312,-3.123,-3.119,-3.119,-3.119,-3.123,-3.119,-3.1072,-3.0895,-3.0733,0.0,0.0,0.0,0.0,0.0,0.0,0.0,0.0,0.0,0.0,0.0,0.0,0.0,0.0,0.0,0.0,0.0,0.0,0.0,0.0,0.0,0.0,0.0,0.0,0.0,0.0,0.0,0.0,0.0,0.0,0.0,0.0,0.0,-1.541,0.0,-1.541,-1.541,-1.541,-1.541,-1.541,-1.5313,-1.5264,-1.5205,-1.5147,-1.5088,0.0,0.0,0.0,0.0,0.0,0.0,0.0,-1.5362,-1.541,-1.541,-1.541,-1.571,-1.6114,-1.64,-1.6909,0.0,0.0,-1.803,-1.8313,-1.8518,-1.8679,-1.9149,-2.0427,-2.0941,-2.1457,-2.265,-2.3017,-2.3078,-2.3078,-2.339,-2.3675,-2.4028,-2.4607,-2.5075,-2.5369,-2.5743,-2.6002,-2.6111,-2.6418,-2.6803,-2.735,-2.8011,-2.8547,-2.8965,-2.9454,-2.975,-2.9796,-3.0145,-3.0456,-3.0691,-3.1125,-3.1453,-3.1749,-3.1829,-3.1874,-3.1874,-3.1991,-3.1897,-3.1572,-3.1363,-3.1274,-3.123,-3.119,-3.119,-3.119,-3.1252,-3.1274,-3.1274,-3.119,-3.1112,-3.1032,0.0,0.0,0.0,0.0,0.0,0.0,0.0,0.0,0.0,0.0,0.0,0.0,0.0,0.0,0.0,0.0,0.0,0.0,0.0,0.0,0.0,0.0,0.0,0.0,0.0,0.0,0.0,0.0,0.0,0.0,0.0,0.0,0.0,-1.541,0.0,-1.541,-1.541,-1.541,-1.5362,-1.5313,-1.5205,-1.5156,-1.5098,-1.5039,-1.497,-1.497,-1.497,0.0,0.0,0.0,0.0,0.0,0.0,0.0,-1.541,-1.5536,-1.5826,-1.6171,-1.6513,0.0,0.0,-1.7799,0.0,-1.8247,-1.8506,-1.8667,-1.9083,-2.0414,-2.0827,-2.1329,-2.265,-2.2969,-2.3017,-2.3078,-2.3378,-2.3734,-2.4073,-2.4593,-2.5131,-2.5439,-2.5798,-2.6056,-2.6258,-2.663,-2.7063,-2.7539,-2.8088,-2.8493,-2.8794,-2.9137,-2.935,-2.9412,-2.9738,-3.0044,-3.0359,-3.0757,-3.114,-3.1466,-3.1654,-3.1728,-3.1709,-3.1542,-3.1411,-3.1295,-3.1295,-3.1274,-3.1252,-3.1308,-3.1346,-3.1346,-3.1428,-3.1449,-3.1466,-3.1406,-3.113,-3.073,0.0,0.0,0.0,0.0,0.0,0.0,0.0,0.0,0.0,0.0,0.0,0.0,0.0,0.0,0.0,0.0,0.0,0.0,0.0,0.0,0.0,0.0,0.0,0.0,0.0,0.0,0.0,0.0,0.0,0.0,0.0,0.0,0.0,-1.541,0.0,-1.541,-1.541,-1.541,-1.5313,-1.5215,-1.5156,-1.5098,-1.497,-1.4911,-1.4911,-1.4911,-1.4911,-1.4911,-1.4921,-1.4911,0.0,0.0,0.0,0.0,-1.542,-1.5556,-1.5836,-1.6171,-1.6457,0.0,-1.7434,-1.7799,-1.7897,0.0,-1.8452,-1.856,-1.8963,-2.0232,-2.0644,-2.1202,-2.259,-2.2848,-2.2969,-2.3138,-2.345,-2.3793,-2.4118,-2.465,-2.5188,-2.555,-2.5853,-2.6218,-2.6525,-2.6959,-2.7372,-2.7775,-2.8332,-2.8716,-2.8826,-2.9183,-2.9457,-2.9547,-2.9886,-3.0215,-3.0551,-3.1015,-3.1368,-3.1654,-3.1875,-3.1912,-3.1873,-3.1562,-3.1411,-3.1334,-3.1334,-3.1372,-3.1411,-3.15,-3.1555,-3.1576,-3.1617,-3.1568,-3.1465,-3.1465,-3.093,-3.0189,0.0,0.0,0.0,0.0,0.0,0.0,0.0,0.0,0.0,0.0,0.0,0.0,0.0,0.0,0.0,0.0,0.0,0.0,-1.6864,0.0,0.0,-1.6864,-1.674,0.0,0.0,0.0,0.0,0.0,0.0,0.0,0.0,0.0,0.0,-1.541,0.0,0.0,-1.541,-1.541,-1.5313,-1.5215,-1.5088,-1.4911,-1.4715,-1.4625,-1.4575,-1.4575,-1.4575,-1.4575,-1.4565,-1.4725,-1.4775,0.0,0.0,0.0,-1.5205,-1.5274,-1.5662,-1.6114,0.0,0.0,-1.7523,0.0,-1.7897,-1.8018,0.0,0.0,-1.8768,0.0,-2.0529,-2.1214,-2.2481,-2.28,-2.2969,-2.3343,-2.3641,-2.3995,-2.4408,-2.4878,-2.5342,-2.5784,-2.6016,-2.6272,-2.6727,-2.7063,-2.7509,-2.7925,-2.8527,-2.892,-2.9029,-2.9412,-2.9665,-2.9766,-3.0097,-3.0435,-3.0764,-3.11,-3.1487,-3.1858,-3.2055,-3.2144,-3.2144,-3.1985,-3.1768,-3.1542,-3.1542,-3.1654,-3.1821,-3.1783,-3.1783,-3.1839,-3.1875,-3.1496,-3.0976,-3.0923,-3.0422,-2.9746,0.0,0.0,0.0,0.0,0.0,0.0,0.0,0.0,0.0,0.0,0.0,0.0,0.0,0.0,0.0,-1.6909,-1.6751,-1.6694,-1.6694,-1.6694,-1.6637,-1.6591,-1.6545,-1.6477,0.0,0.0,0.0,0.0,0.0,0.0,0.0,-1.541,-1.541,0.0,0.0,0.0,0.0,-1.541,-1.5313,-1.5098,-1.5029,-1.4852,-1.4556,-1.4506,-1.4515,-1.4515,-1.4515,-1.4515,-1.4506,-1.4556,-1.4666,-1.4715,-1.4784,0.0,0.0,0.0,-1.5498,-1.5951,-1.6239,-1.6581,-1.6909,0.0,-1.7346,-1.7512,-1.792,-1.7986,-1.829,-1.9342,-2.0038,-2.0864,-2.2287,-2.2726,-2.303,-2.345,-2.3819,-2.4171,-2.4593,-2.5005,-2.5397,-2.5839,-2.615,-2.6525,-2.7011,-2.7494,-2.7978,-2.8479,-2.8982,-2.9364,-2.9499,-2.9913,-3.0172,-3.0251,-3.0584,-3.0908,-3.1223,-3.1528,-3.1932,-3.2419,-3.2588,-3.2672,-3.2621,-3.2519,-3.2231,-3.1841,-3.1912,-3.202,-3.2144,-3.2179,-3.1952,-3.1584,-3.1601,-3.1112,-3.0414,-3.0347,-2.9859,-2.9147,0.0,0.0,0.0,0.0,0.0,0.0,0.0,0.0,0.0,0.0,0.0,0.0,0.0,0.0,0.0,0.0,-1.6591,-1.6524,-1.6524,-1.6524,-1.6477,-1.6384,-1.6384,-1.6384,-1.6384,0.0,0.0,0.0,0.0,0.0,-1.541,-1.541,-1.541,0.0,-1.541,-1.541,0.0,0.0,-1.5245,-1.5029,-1.5029,-1.4862,-1.4625,-1.4625,-1.4625,-1.4625,-1.4625,-1.4565,-1.4565,-1.4565,-1.4616,-1.4666,-1.4666,-1.4784,0.0,0.0,0.0,-1.5672,0.0,0.0,-1.6353,-1.6637,-1.6797,-1.7022,0.0,0.0,-1.7734,-1.8657,-1.9356,-2.0252,-2.1765,-2.2506,-2.309,-2.3569,-2.3923,-2.4332,-2.4878,-2.523,-2.5564,-2.6111,-2.6472,-2.6916,-2.7479,-2.8012,-2.8559,-2.909,-2.9572,-2.9924,-3.0054,-3.0477,-3.0764,-3.0851,-3.0997,-3.1339,-3.186,-3.2162,-3.2535,-3.2939,-3.3081,-3.3021,-3.2823,-3.2727,-3.2335,-3.1786,-3.221,-3.2315,-3.2221,-3.2323,-3.1862,-3.1122,-3.1168,-3.0659,-2.9863,-2.9814,-2.9308,-2.8627,0.0,0.0,0.0,0.0,0.0,0.0,0.0,0.0,0.0,0.0,0.0,0.0,0.0,-1.6627,-1.6524,-1.6431,-1.6431,-1.6431,-1.6431,-1.6431,-1.6431,-1.6384,-1.6384,0.0,-1.6384,-1.6384,0.0,0.0,0.0,0.0,-1.541,-1.541,-1.541,-1.541,-1.541,-1.541,-1.541,0.0,0.0,-1.5215,-1.5215,-1.5098,-1.498,-1.498,-1.498,-1.498,-1.498,-1.4843,-1.4715,-1.4715,-1.4606,-1.4506,-1.4506,-1.4616,-1.4715,0.0,0.0,0.0,0.0,-1.5989,0.0,-1.6524,-1.6637,0.0,0.0,0.0,-1.7059,-1.7915,-1.844,-1.9229,-2.0734,-2.2007,-2.3103,-2.3772,-2.4086,-2.4509,-2.53,-2.5646,-2.615,-2.6855,-2.7152,-2.753,-2.8192,-2.8732,-2.9257,-2.9705,-3.0251,-3.0625,-3.0747,-3.1128,-3.1397,-3.1528,-3.1202,-3.1496,-3.2555,-3.3001,-3.3262,-3.3291,-3.3455,-3.3158,-3.2347,-3.2347,-3.1901,-3.1211,-3.2433,-3.2545,-3.1924,-3.1924,-3.1428,-3.0641,-3.0641,-3.0177,-2.9515,-2.9376,-2.8849,-2.8225,0.0,0.0,0.0,0.0,0.0,0.0,0.0,0.0,0.0,0.0,0.0,0.0,0.0,-1.6477,-1.6431,-1.6384,-1.6384,-1.6384,-1.6384,-1.6384,-1.6384,-1.6384,-1.6384,-1.6384,-1.6384,-1.6384,0.0,0.0,0.0,-1.573,-1.541,-1.541,-1.541,-1.541,-1.541,-1.541,-1.541,-1.541,0.0,0.0,-1.5215,-1.5098,-1.497,-1.497,-1.497,-1.5029,-1.5098,-1.5088,-1.5029,-1.5029,-1.497,-1.4921,-1.4862,-1.4784,-1.4715,-1.4715,-1.4725,-1.4862,0.0,0.0,0.0,-1.6077,-1.6306,-1.6477,-1.6545,-1.6545,-1.6701,-1.7134,-1.769,-1.8402,-1.9344,-2.0984,-2.2605,-2.3577,-2.4015,-2.4567,-2.5287,-2.5701,-2.6204,-2.6982,-2.7429,-2.778,-2.8015,-2.8558,-2.8929,-2.8966,-2.9365,-2.9705,-2.9907,-3.0282,-3.0559,-3.0709,-3.0674,-3.0919,-3.1639,-3.192,-3.2133,-3.221,-3.2366,-3.2269,-3.1974,-3.1974,-3.1808,-3.1568,-3.2034,-3.1944,-3.1447,-3.1465,-3.0939,-3.017,-3.0206,-2.9656,-2.8864,-2.8802,-2.8595,-2.8327,0.0,0.0,0.0,0.0,0.0,0.0,0.0,0.0,0.0,0.0,0.0,0.0,0.0,0.0,-1.6384,-1.6384,-1.6384,-1.6384,-1.6384,-1.6384,-1.6384,-1.6384,-1.6384,-1.6384,-1.6384,-1.6384,0.0,0.0,0.0,0.0,0.0,-1.541,-1.541,-1.541,-1.541,-1.541,0.0,0.0,0.0,-1.5264,-1.5264,-1.5196,-1.5137,-1.5205,-1.5264,-1.5313,-1.543,-1.5498,-1.5498,-1.5498,-1.5439,-1.5323,-1.5205,-1.4951,-1.4715,-1.4666,-1.4616,-1.4675,-1.5039,0.0,0.0,0.0,-1.6087,-1.6259,-1.6306,-1.6259,-1.6316,-1.6524,-1.6984,-1.7528,-1.8269,-1.9645,-2.1158,-2.2602,-2.3269,-2.388,-2.4682,-2.5194,-2.5773,-2.6609,-2.723,-2.7659,-2.7874,-2.8461,-2.8826,-2.8797,-2.9195,-2.9523,-2.969,-3.005,-3.0206,-3.0141,-3.0517,-3.0785,-3.0906,-3.1341,-3.1607,-3.17,-3.1849,-3.1784,-3.1504,-3.1526,-3.1355,-3.1094,-3.1094,-3.1024,-3.0917,-3.0956,-3.043,-2.9612,-2.9667,-2.9265,-2.8687,-2.8687,-2.8619,-2.8569,0.0,0.0,0.0,0.0,0.0,0.0,0.0,0.0,0.0,0.0,0.0,0.0,0.0,0.0,0.0,-1.6384,-1.6384,-1.6384,-1.6384,-1.6384,-1.6384,-1.6384,-1.6384,-1.6384,-1.6384,-1.6374,0.0,0.0,0.0,0.0,0.0,0.0,-1.541,-1.541,-1.541,-1.541,-1.541,0.0,-1.541,-1.541,-1.541,-1.541,-1.541,-1.5614,-1.5778,-1.5931,-1.6046,-1.6114,-1.6114,-1.6114,-1.5884,-1.5594,-1.5468,-1.5059,-1.4715,-1.4565,-1.4616,-1.4715,0.0,0.0,0.0,0.0,0.0,0.0,-1.6056,-1.6019,-1.5904,-1.6056,-1.6171,-1.6592,-1.7546,-1.7991,-1.8885,-2.0871,-2.172,-2.2523,-2.3434,-2.4162,-2.4903,-2.5772,-2.6494,-2.7185,-2.7825,-2.8431,-2.8948,-2.9334,-2.9787,-3.0106,-3.0242,-3.051,-3.046,-2.9996,-3.087,-3.1046,-3.0469,-3.1384,-3.1821,-3.1843,-3.2028,-3.1694,-3.0885,-3.0941,-3.0508,-2.9717,-2.9717,-2.998,-3.0401,-3.0446,-2.9898,-2.9017,-2.9067,-2.9085,-2.9017,-2.9017,-2.8952,-2.8905,0.0,0.0,0.0,0.0,0.0,0.0,0.0,0.0,0.0,0.0,0.0,0.0,0.0,0.0,-1.6384,-1.6384,-1.6384,-1.6384,-1.6384,-1.6384,-1.6384,-1.6384,-1.6384,-1.6384,-1.6384,-1.6249,0.0,0.0,0.0,0.0,0.0,0.0,0.0,0.0,-1.541,-1.541,-1.541,-1.541,0.0,-1.541,-1.5546,-1.5662,-1.5758,-1.5941,-1.6171,-1.64,-1.6581,-1.6684,-1.6729,-1.6637,-1.6524,-1.6353,-1.5778,-1.5381,-1.5029,-1.4725,-1.4656,-1.4715,-1.497,0.0,0.0,0.0,0.0,0.0,-1.5961,-1.5914,-1.5856,-1.5652,-1.5642,-1.574,-1.6151,-1.6461,-1.7009,-1.8036,-2.0021,-2.1763,-2.2897,-2.3664,-2.4566,-2.571,-2.651,-2.7035,-2.724,-2.7847,-2.8202,-2.8108,-2.85,-2.8816,-2.8981,-2.9344,-2.9545,-2.9561,-2.9869,-2.9969,-2.9846,-3.0149,-3.0321,-3.0377,-3.0486,-3.0442,-3.0248,-3.026,-3.0146,-2.9924,-2.9924,-2.9956,-3.0021,-2.9905,-2.9615,-2.9228,-2.9289,-2.9286,-2.9237,-2.9237,-2.9175,-2.9112,0.0,0.0,0.0,0.0,0.0,0.0,0.0,0.0,0.0,0.0,0.0,0.0,0.0,0.0,0.0,-1.6384,-1.6384,-1.6384,-1.6384,-1.6384,-1.6384,-1.6384,-1.6384,-1.6384,-1.6384,-1.6181,-1.6009,0.0,0.0,0.0,0.0,0.0,0.0,0.0,0.0,0.0,0.0,0.0,0.0,-1.541,-1.5614,-1.5836,-1.5989,-1.6332,-1.6729,-1.7067,-1.719,-1.7346,-1.7446,-1.7256,-1.7043,-1.6694,-1.6009,-1.5614,-1.5323,-1.4961,-1.4843,-1.4902,-1.5029,-1.5254,-1.5478,-1.573,0.0,0.0,-1.5914,-1.5856,-1.573,-1.5546,-1.5478,-1.5478,-1.5662,-1.5894,-1.6239,-1.6797,-1.8419,-2.0061,-2.1498,-2.2474,-2.3473,-2.4641,-2.5555,-2.623,-2.6492,-2.7232,-2.7708,-2.7766,-2.8192,-2.859,-2.8906,-2.9196,-2.9418,-2.9608,-2.9663,-2.9736,-2.977,-2.9823,-2.9891,-2.9937,-3.0015,-3.0094,-3.0118,-3.0161,-3.0161,-3.0138,-3.0123,-3.0064,-2.9969,-2.9857,-2.9681,-2.9474,-2.9513,-2.9472,-2.9429,-2.9468,-2.9429,-2.9349,0.0,0.0,0.0,0.0,0.0,0.0,0.0,0.0,0.0,0.0,0.0,0.0,0.0,0.0,0.0,0.0,-1.6384,-1.6384,-1.6384,-1.6384,0.0,-1.6384,-1.6384,-1.6384,-1.6384,-1.6181,-1.6009,-1.5914,0.0,0.0,0.0,0.0,0.0,0.0,0.0,0.0,0.0,0.0,0.0,-1.542,-1.5662,-1.5951,-1.6285,-1.6899,-1.739,-1.7831,-1.7952,-1.8061,-1.8104,-1.781,-1.7323,-1.6751,-1.6161,-1.5884,-1.5672,-1.5205,-1.5147,-1.5274,-1.5215,-1.5313,-1.542,-1.5614,-1.5672,0.0,-1.5856,-1.5798,-1.5682,-1.5672,-1.5546,-1.5536,-1.5788,-1.5904,-1.6134,-1.6705,-1.72,-1.8081,-1.9736,-2.0864,-2.1979,-2.3128,-2.4142,-2.5028,-2.5713,-2.669,-2.7452,-2.7964,-2.8578,-2.9092,-2.9551,-2.9695,-2.9815,-2.9946,-3.0015,-3.0026,-3.0018,-3.0085,-3.0128,-3.0131,-3.0254,-3.0323,-3.0309,-3.0402,-3.039,-3.0316,-3.0299,-3.0228,-3.0122,-3.0118,-2.9969,-2.9734,-2.9716,-2.97,-2.9645,-2.9701,-2.9683,-2.9626,-1.0421,0.0,0.0,0.0,0.0,0.0,0.0,0.0,0.0,0.0,0.0,0.0,0.0,0.0,0.0,0.0,-1.6384,-1.6384,-1.6384,-1.6384,0.0,-1.6384,-1.6384,-1.6384,-1.6384,-1.6087,-1.5914,-1.5914,0.0,0.0,0.0,0.0,0.0,0.0,0.0,0.0,0.0,0.0,0.0,-1.5264,-1.5951,-1.6457,-1.6899,-1.7512,-1.8007,-1.8452,-1.8572,-1.8625,-1.8572,-1.8018,-1.759,-1.7099,-1.6761,-1.641,-1.6124,-1.5826,-1.5662,-1.5556,-1.5274,-1.5215,-1.5264,-1.542,-1.5478,0.0,-1.5672,-1.574,-1.5624,-1.5332,-1.5498,-1.5662,-1.5662,-1.6056,-1.6446,-1.6627,-1.7234,-1.8027,-1.9008,-1.9991,-2.1037,-2.2072,-2.323,-2.4261,-2.5096,-2.6268,-2.7274,-2.7949,-2.8953,-2.9657,-2.9975,-3.006,-3.0158,-3.0294,-3.0251,-3.0251,-3.0232,-3.0263,-3.0294,-3.034,-3.0432,-3.0452,-3.0462,-3.053,-3.053,-3.0458,-3.0406,-3.034,-3.026,-3.026,-3.0133,-2.9931,-2.9937,-2.9907,-2.9839,-2.9857,-2.9839,-2.9855,-0.9907,0.0,0.0,0.0,0.0,0.0,0.0,0.0,0.0,0.0,0.0,0.0,0.0,0.0,0.0,0.0,0.0,0.0,0.0,0.0,0.0,0.0,-1.6431,-1.6374,-1.6249,-1.6029,-1.5856,-1.5798,0.0,0.0,0.0,0.0,0.0,0.0,0.0,0.0,0.0,0.0,-1.5254,-1.5371,-1.5884,-1.6446,-1.7067,-1.7843,-1.8441,-1.8999,-1.9158,-1.9052,-1.8839,-1.829,-1.7854,-1.7534,-1.7145,-1.6853,-1.6684,-1.6343,-1.6056,-1.5836,-1.5604,-1.543,-1.5313,-1.5362,-1.541,0.0,0.0,-1.5662,-1.5778,-1.5662,-1.5999,-1.64,-1.6492,-1.6933,-1.7324,-1.7335,-1.7863,-1.8489,-1.9113,-1.9927,-2.0743,-2.1486,-2.2936,-2.4127,-2.4689,-2.6133,-2.7568,-2.8796,-2.9574,-3.01,-3.0282,-3.0362,-3.0434,-3.0506,-3.047,-3.0453,-3.0442,-3.0453,-3.0482,-3.0559,-3.0582,-3.0595,-3.0591,-3.0622,-3.0637,-3.0595,-3.054,-3.0482,-3.0441,-3.0409,-3.0344,-3.0234,-3.0147,-3.006,-2.9992,-3.0041,-3.0047,-3.0056,-0.9332,0.0,0.0,0.0,0.0,0.0,0.0,0.0,0.0,0.0,0.0,0.0,0.0,0.0,0.0,0.0,0.0,0.0,0.0,0.0,0.0,0.0,-1.642,-1.6249,-1.6066,-1.5904,-1.5798,-1.5672,0.0,0.0,0.0,0.0,0.0,0.0,0.0,0.0,0.0,0.0,0.0,-1.542,-1.5816,-1.6436,-1.729,-1.8159,-1.8934,-1.9525,-1.9668,-1.9448,-1.9093,-1.8655,-1.8333,-1.8061,-1.7634,-1.7468,-1.7412,-1.7011,-1.6616,-1.6332,-1.6104,-1.5816,-1.5526,-1.5526,-1.5526,-1.5526,0.0,0.0,0.0,-1.6218,-1.6729,-1.7234,-1.749,-1.7984,-1.8352,-1.8352,-1.8903,-1.9441,-1.98,-2.0669,-2.1295,-2.1459,-2.3142,-2.4333,-2.4554,-2.6269,-2.8019,-2.9679,-3.0129,-3.0404,-3.0528,-3.061,-3.0633,-3.0634,-3.0631,-3.0639,-3.065,-3.0633,-3.0671,-3.0722,-3.0716,-3.072,-3.0711,-3.0728,-3.0704,-3.0704,-3.0649,-3.0626,-3.0602,-3.0557,-3.0528,-3.0491,-3.034,-3.0209,-3.019,-3.0241,-3.0271,-3.0279,-0.8888,-0.9332,0.0,0.0,0.0,0.0,0.0,0.0,0.0,0.0,0.0,0.0,0.0,0.0,0.0,0.0,0.0,0.0,-1.6955,-1.6853,0.0,0.0,-1.6239,-1.6066,-1.5914,-1.5798,-1.574,0.0,0.0,0.0,0.0,0.0,0.0,0.0,-1.5672,0.0,0.0,0.0,-1.5303,-1.5264,-1.5979,-1.6877,-1.7897,-1.875,-1.9448,-1.9939,-2.008,-1.9965,-1.9643,-1.9239,-1.8975,-1.8827,-1.8506,-1.8452,-1.8387,-1.8038,-1.76,-1.7168,-1.6821,-1.6379,-1.5999,-1.5999,-1.5931,-1.5931,-1.6114,0.0,-1.657,-1.6719,0.0,-1.7831,-1.7984,0.0,0.0,-1.9322,-2.0129,-2.089,-2.1205,-2.2738,-2.3473,-2.2643,-2.3876,-2.4839,-2.4925,-2.6705,-2.8378,-2.9711,-3.023,-3.0534,-3.0673,-3.073,-3.0772,-3.078,-3.0779,-3.0778,-3.0775,-3.0786,-3.078,-3.0788,-3.0791,-3.0788,-3.0794,-3.079,-3.0765,-3.0697,-3.0684,-3.0691,-3.0691,-3.0632,-3.0579,-3.0591,-3.0501,-3.0469,-3.046,-3.0451,-3.0501,-3.0565,-0.8366,-0.9011,0.0,0.0,0.0,0.0,0.0,0.0,0.0,0.0,0.0,0.0,0.0,-1.6684,-1.7011,-1.7457,-1.7512,-1.7512,-1.7512,-1.719,0.0,0.0,-1.642,-1.6134,-1.5924,-1.5856,0.0,0.0,-1.542,0.0,0.0,0.0,0.0,0.0,-1.5604,0.0,-1.5604,0.0,-1.572,-1.5778,-1.6503,-1.7435,-1.8417,-1.9016,-1.9747,-2.0586,-2.0736,-2.0673,-2.0446,-2.0093,-1.994,-1.9773,-1.9579,-1.9527,-1.9475,-1.9162,-1.8715,-1.8232,-1.7961,-1.7368,-1.6888,-1.6922,-1.6765,-1.6616,-1.6899,-1.7179,-1.7457,-1.771,0.0,0.0,0.0,0.0,0.0,0.0,-2.1755,-2.2599,-2.3182,-2.4644,-2.5195,-2.3903,-2.5168,-2.6478,-2.7209,-2.7969,-2.8898,-3.0003,-3.0335,-3.0527,-3.0579,-3.0678,-3.0751,-3.0794,-3.0804,-3.0791,-3.0806,-3.0792,-3.0799,-3.08,-3.08,-3.0818,-3.0852,-3.0827,-3.0784,-3.076,-3.0757,-3.0765,-3.0763,-3.0739,-3.0715,-3.0711,-3.0646,-3.0622,-3.0629,-3.0629,-3.063,-3.0659,-0.7647,0.0,0.0,0.0,0.0,0.0,0.0,0.0,0.0,0.0,0.0,0.0,-1.6467,-1.6853,-1.729,-1.7897,-1.8018,-1.8018,-1.8007,-1.7634,-1.7245,-1.6864,-1.6591,-1.6249,-1.5904,-1.5856,-1.573,0.0,0.0,0.0,0.0,0.0,0.0,0.0,0.0,-1.5604,-1.5788,0.0,-1.6134,-1.6285,-1.7011,-1.8093,-1.919,-1.9631,-2.0359,-2.118,-2.1375,-2.1361,-2.1237,-2.1006,-2.0881,-2.0855,-2.0706,-2.0693,-2.0693,-2.0458,-2.0016,-1.9634,-1.9492,-1.8867,-1.824,-1.8335,-1.8035,-1.7743,-1.795,-1.8244,-1.8525,-1.8886,-1.9619,0.0,0.0,0.0,0.0,0.0,0.0,-2.4247,-2.5078,-2.6363,-2.6766,-2.548,-2.6535,-2.7788,-2.8885,-2.8874,-2.9218,-3.0193,-3.0406,-3.052,-3.0574,-3.0669,-3.0743,-3.0808,-3.0787,-3.0778,-3.0798,-3.0802,-3.0804,-3.0808,-3.081,-3.0835,-3.0879,-3.082,-3.0801,-3.0839,-3.084,-3.0837,-3.0832,-3.0811,-3.079,-3.0808,-3.0746,-3.0735,-3.0734,-3.0724,-3.0736,-3.0735,-0.6671,-0.7852,0.0,0.0,0.0,0.0,0.0,0.0,0.0,-1.3881,-1.4706,-1.5526,-1.6239,-1.6853,-1.7457,-1.8038,-1.829,-1.8356,-1.8278,-1.8007,-1.7623,-1.7011,-1.674,-1.64,-1.5931,-1.5778,-1.5604,0.0,0.0,0.0,0.0,0.0,0.0,0.0,0.0,-1.5778,-1.5931,-1.6249,-1.6477,-1.6627,-1.739,-1.878,-2.0422,-2.1068,-2.141,-2.1616,-2.1888,-2.1996,-2.1949,-2.1793,-2.1874,-2.2021,-2.1899,-2.1965,-2.2122,-2.1983,-2.1722,-2.1505,-2.1363,-2.082,-2.0328,-2.0328,-1.9877,-1.9465,-1.9608,-1.9684,-1.9812,-2.008,-2.067,-2.1224,-2.1424,0.0,0.0,0.0,0.0,0.0,0.0,-2.7907,-2.8331,-2.7481,-2.7812,-2.8357,-2.9121,-2.8958,-2.9194,-3.0135,-3.0387,-3.0578,-3.0781,-3.0794,-3.0808,-3.0808,-3.0736,-3.0728,-3.0808,-3.0803,-3.0799,-3.081,-3.0798,-3.0796,-3.0797,-3.0797,-3.0836,-3.0895,-3.0896,-3.0897,-3.0897,-3.084,-3.0801,-3.0801,-3.0796,-3.0792,-3.0806,-3.0808,-3.0808,-3.0804,0.0,0.0,0.0,0.0,0.0,0.0,0.0,-1.2037,-1.3113,-1.3941,-1.5216,-1.6152,-1.6524,-1.7301,-1.7969,-1.841,-1.8667,-1.8786,-1.8774,-1.8506,-1.8116,-1.7623,-1.739,-1.7112,-1.6662,-1.6524,-1.6181,0.0,0.0,0.0,0.0,0.0,0.0,0.0,0.0,-1.5546,0.0,-1.657,-1.7022,-1.7468,-1.8821,-2.0067,-2.1091,-2.1506,-2.1841,-2.217,-2.2586,-2.2768,-2.2859,-2.2875,-2.2995,-2.3157,-2.3201,-2.336,-2.3518,-2.3516,-2.337,-2.3169,-2.3111,-2.2703,-2.2214,-2.2181,-2.1815,-2.1456,-2.1511,-2.1572,-2.168,-2.1992,-2.2628,-2.321,-2.3492,0.0,0.0,0.0,0.0,0.0,0.0,-2.4285,-2.1216,-2.0327,-2.5007,-2.6361,-2.1477,-1.9758,-1.8959,-1.9004,-1.8594,-2.1878,-3.0024,-2.9216,-2.9153,-3.0615,-3.0689,-3.0678,-3.0683,-3.0671,-3.0691,-3.0736,-3.0734,-3.073,-3.0732,-3.0774,-3.0816,-3.0821,-3.0821,-3.0823,-3.0847,-3.087,-3.087,-3.0871,-3.0879,-3.0878,-3.0857,-3.0816,-3.0798,-3.0798,-0.6263,0.0,0.0,0.0,-0.9351,-1.0071,-1.0797,-1.1992,-1.3154,-1.4064,-1.5433,-1.6398,-1.6698,-1.7525,-1.8204,-1.8553,-1.8827,-1.904,-1.9158,-1.8934,-1.8655,-1.8333,-1.8147,-1.7875,-1.739,-1.7123,-1.6673,-1.6036,0.0,-1.5508,0.0,0.0,0.0,0.0,0.0,-1.5536,-1.6093,-1.6888,-1.7623,-1.829,-1.9876,-2.0966,-2.1704,-2.2142,-2.248,-2.2814,-2.3216,-2.348,-2.3653,-2.3736,-2.3948,-2.4241,-2.4358,-2.4585,-2.4808,-2.4916,-2.4907,-2.4859,-2.4904,-2.4617,-2.4288,-2.4304,-2.3955,-2.3559,-2.362,-2.362,-2.3646,-2.3931,-2.4481,-2.5009,-2.5363,-2.5866,0.0,0.0,0.0,0.0,0.0,-2.0582,-1.6199,-1.2619,-1.6737,-1.7701,-1.2154,-1.1416,-1.1171,-1.0844,-1.1711,-1.605,-2.4735,-2.5521,-2.6583,-2.8508,-2.9913,-3.0568,-3.0462,-3.0482,-3.0537,-3.0591,-3.0622,-3.0633,-3.0677,-3.0726,-3.0782,-3.0801,-3.0804,-3.0791,-3.0819,-3.0877,-3.0899,-3.0899,-3.0892,-3.0896,-3.0897,-3.085,-3.0816,-3.0794,-0.5741,-0.6817,-0.8037,-0.9027,-0.9782,-1.0465,-1.1011,-1.2037,-1.3184,-1.4172,-1.544,-1.6403,-1.6698,-1.76,-1.8283,-1.8623,-1.8887,-1.9141,-1.9405,-1.9316,-1.9186,-1.904,-1.8845,-1.8555,-1.8201,-1.771,-1.7101,-1.6368,0.0,0.0,0.0,0.0,0.0,0.0,-1.5128,0.0,-1.6358,-1.7324,-1.8267,-1.9239,-2.0534,-2.1513,-2.2267,-2.2995,-2.3363,-2.3537,-2.3782,-2.4051,-2.4385,-2.4446,-2.4784,-2.5192,-2.5319,-2.564,-2.6002,-2.6197,-2.637,-2.6505,-2.6653,-2.6551,-2.6449,-2.6576,-2.6215,-2.5832,-2.5816,-2.5715,-2.5681,-2.5815,-2.621,-2.6627,-2.6957,-2.728,0.0,0.0,0.0,0.0,0.0,-1.704,-1.3153,-0.477,-0.3354,-0.2687,-0.162,-0.3996,-0.5449,-0.5115,-0.8923,-1.2402,-1.501,-1.9624,-2.2936,-2.4607,-2.8242,-3.0159,-3.0171,-3.0247,-3.0317,-3.0392,-3.0443,-3.0518,-3.0605,-3.0665,-3.0728,-3.0798,-3.081,-3.0801,-3.0791,-3.0877,-3.0899,-3.0899,-3.0899,-3.0899,-3.0905,-3.0892,-3.086,-3.0801,-0.5725,-0.6872,-0.8014,-0.8911,-0.9448,-0.9921,-1.0396,-1.195,-1.334,-1.4291,-1.5895,-1.7016,-1.7298,-1.8322,-1.9061,-1.9333,-1.9583,-1.9806,-1.9969,-1.9682,-1.9552,-1.9592,-1.954,-1.9423,-1.9226,-1.8804,-1.8159,-1.7324,-1.6797,0.0,-1.5498,0.0,0.0,0.0,0.0,-1.5999,-1.6765,-1.7841,-1.9282,-2.0858,-2.1657,-2.2406,-2.3128,-2.3767,-2.4379,-2.4847,-2.4639,-2.4735,-2.4997,-2.5291,-2.5647,-2.6013,-2.6212,-2.6573,-2.7,-2.723,-2.7531,-2.7745,-2.7832,-2.7906,-2.7923,-2.7913,-2.7787,-2.7592,-2.7528,-2.7471,-2.747,-2.7606,-2.797,-2.8332,-2.8568,-2.8806,-2.8978,0.0,0.0,0.0,-1.9383,-1.2692,-0.5168,0.3975,1.1149,1.3452,0.8474,0.8239,0.9378,1.1733,0.8163,0.3165,-0.2967,-0.9615,-1.5727,-2.1228,-2.3933,-2.676,-2.9798,-2.9863,-2.9904,-3.0032,-3.026,-3.0409,-3.053,-3.0593,-3.0656,-3.0742,-3.0722,-3.075,-3.0798,-3.081,-3.0823,-3.0829,-3.0873,-3.0897,-3.0898,-3.0907,-3.0899,-3.088,-0.55,-0.6496,-0.7557,-0.8475,-0.8956,-0.9663,-1.0742,-1.2294,-1.3618,-1.4603,-1.6182,-1.7281,-1.7504,-1.8425,-1.9179,-1.9477,-1.9887,-2.0145,-2.0189,-2.0163,-2.0139,-2.0067,-2.0105,-2.0105,-2.0055,-1.9604,-1.891,-1.8038,-1.729,0.0,-1.5894,0.0,0.0,0.0,0.0,-1.656,-1.7413,-1.9036,-2.0631,-2.2081,-2.2665,-2.3333,0.0,-2.4527,-2.516,-2.5726,-2.5709,-2.5709,-2.5835,-2.6123,-2.6471,-2.6824,-2.7092,-2.746,-2.7826,-2.8103,-2.8406,-2.8651,-2.8801,-2.8926,-2.9057,-2.9081,-2.9064,-2.9026,-2.8946,-2.8919,-2.89,-2.8987,-2.9261,-2.9511,-2.9613,-2.9721,-2.9823,-2.9871,-2.9898,-2.6096,-1.5207,-0.8937,-0.0892,1.1498,1.8715,2.1434,1.8312,1.7789,1.8546,2.0734,1.7036,1.2119,0.6127,-0.0997,-0.7476,-1.3114,-1.8903,-2.3223,-2.5909,-2.7949,-2.9137,-2.951,-2.9839,-3.0144,-3.043,-3.0511,-3.0613,-3.0704,-3.0704,-3.073,-3.0769,-3.0794,-3.0794,-3.0804,-3.0849,-3.0874,-3.0898,-3.0894,-3.0907,-3.0907,-0.5321,-0.5941,-0.6791,-0.7795,-0.8475,-0.9528,-1.1329,-1.2652,-1.3825,-1.4982,-1.6324,-1.7232,-1.7517,-1.8315,-1.9048,-1.9418,-1.9994,-2.0351,-2.0355,-2.0719,-2.0805,-2.0564,-2.0677,-2.0738,-2.0709,-2.0207,-1.9527,-1.8685,-1.7655,0.0,0.0,0.0,0.0,0.0,0.0,0.0,0.0,-2.0667,-2.2132,-2.304,-2.3664,-2.4333,-2.4934,-2.5325,-2.5859,-2.6437,-2.6822,-2.6822,-2.669,-2.6935,-2.7251,-2.7613,-2.7913,-2.826,-2.8579,-2.8846,-2.9124,-2.9344,-2.9531,-2.9737,-2.9908,-3.0043,-3.01,-3.0094,-3.0095,-3.0031,-2.9991,-2.9966,-3.0084,-3.0195,-3.0195,-3.0211,-3.0257,-3.0372,-3.0171,-2.4777,-0.9791,-0.6282,0.0748,1.7007,2.1379,0.0,2.6152,2.4549,2.3821,2.4916,2.1136,1.7167,1.3452,0.67,0.1153,-0.2771,-1.2174,-1.7688,-1.8802,-2.3731,-2.6616,-2.7387,-2.8781,-2.9696,-3.0164,-3.0333,-3.0472,-3.0599,-3.0599,-3.063,-3.0678,-3.0725,-3.0763,-3.0804,-3.0816,-3.086,-3.0901,-3.0898,-3.0897,-3.0896,-0.5243,-0.5709,-0.6325,-0.7169,-0.8012,-0.9079,-1.0738,-1.2131,-1.3375,-1.4537,-1.5886,-1.6991,-1.7833,-1.8665,-1.9479,-2.0176,-2.0492,-2.0902,-2.135,-2.1186,-2.1188,-2.1329,-2.1458,-2.1425,-2.1277,-2.0858,-2.0295,-1.9592,-1.859,0.0,0.0,0.0,0.0,0.0,0.0,0.0,-2.0479,-2.1937,0.0,-2.4081,-2.4745,-2.54,-2.5986,-2.6319,-2.6819,-2.7387,-2.773,-2.7643,-2.7374,-2.7619,-2.7977,-2.837,-2.8649,-2.8966,-2.9269,-2.947,-2.9737,-2.9956,-3.0043,-3.0182,-3.0325,-3.0451,-3.0539,-3.0586,-3.0576,-3.0524,-3.044,-3.0342,-3.0251,-3.0206,-3.0199,-3.0294,-3.0378,-3.0409,-3.0178,-2.4858,-1.0166,-0.6694,0.0362,1.6655,2.088,2.3458,2.6065,2.6382,2.6893,2.8029,2.515,2.2478,2.0506,1.4179,0.8928,0.0,0.002,-0.3953,0.0,-1.3446,-1.7499,-1.8863,-2.5468,-2.8897,-2.9472,-2.9666,-2.9897,-3.0119,-3.0131,-3.0253,-3.0452,-3.0472,-3.0593,-3.0817,-3.0849,-3.0899,-3.0899,-3.0905,-3.0895,-3.0898,-0.5026,-0.5231,-0.5752,-0.6715,-0.7363,-0.8238,-1.0012,-1.1328,-1.2778,-1.453,-1.5816,-1.6959,-1.7872,-1.8731,-1.9507,-2.0161,-2.0843,-2.1341,-2.1583,-2.1886,-2.2048,-2.2075,-2.1968,-2.1931,-2.1983,-2.1327,-2.0759,-2.0207,-1.9226,0.0,0.0,0.0,0.0,0.0,0.0,-2.0241,0.0,0.0,-2.4199,-2.5195,-2.5733,-2.6335,-2.6901,-2.7213,-2.7642,-2.8156,-2.8445,-2.8584,-2.8581,-2.8536,-2.8768,-2.9113,-2.9345,-2.9599,-2.9845,-2.9999,-3.0183,-3.0329,-3.0385,-3.0477,-3.0574,-3.067,-3.0735,-3.074,-3.07,-3.0622,-3.0502,-3.0317,-3.0202,-3.0088,-3.0107,-3.0199,-3.0275,-3.0255,-3.0032,-2.4742,-1.0137,-0.6761,0.0166,1.6184,2.0351,2.2918,2.5378,2.6813,2.8133,2.9472,2.831,2.6785,2.4984,2.0443,1.6621,0.0,0.0,0.0,0.2176,0.0,-0.7756,-0.9473,-1.7588,-2.1893,-2.2852,-2.7034,-2.9119,-2.9432,-2.9435,-2.9609,-2.9947,-3.017,-3.0337,-3.0498,-3.0642,-3.0681,-3.0685,-3.0697,-3.0704,-3.0765,-0.458,-0.4809,-0.5196,-0.6197,-0.6651,-0.7501,-0.9237,-1.0498,-1.2037,-1.4394,-1.5754,-1.6881,-1.7794,-1.8607,-1.9396,-2.0031,-2.0985,-2.1649,-2.1752,-2.2439,-2.2863,-2.2829,-2.2682,-2.2668,-2.2948,-2.2095,-2.1488,-2.1067,-2.0029,0.0,0.0,0.0,0.0,0.0,0.0,0.0,0.0,0.0,-2.5266,-2.625,-2.6721,-2.7261,-2.7798,-2.8049,-2.8427,-2.885,-2.9111,-2.9435,-2.9699,-2.9468,-2.9555,-2.9779,-2.9979,-3.0145,-3.0309,-3.0433,-3.0509,-3.0579,-3.0633,-3.0672,-3.0723,-3.0798,-3.08,-3.076,-3.0691,-3.0559,-3.0405,-3.0177,-3.0003,-2.9899,-2.9908,-3.0023,-3.0087,-3.0032,-2.9798,-2.4552,-1.0047,-0.674,0.0,1.568,1.9698,2.2133,2.4457,2.6415,2.8213,2.9763,3.0209,2.9625,2.7866,0.0,0.0,0.0,1.5384,1.182,1.1282,0.0,0.2108,0.0147,-0.8166,-1.267,-1.3869,-2.0246,-2.3405,-2.3927,-2.552,-2.7438,-2.9471,-2.9964,-3.021,-3.0286,-3.0494,-3.0594,-3.0594,-3.0583,-3.0539,-3.0421,-0.4022,-0.436,-0.4785,-0.5366,-0.6,-0.6944,-0.8449,-0.9811,-1.1452,-1.3745,-1.5259,-1.6464,-1.7638,-1.8529,-1.9396,-2.0031,-2.0933,-2.169,-2.2286,-2.2761,-2.3211,-2.348,-2.3879,-2.4177,-2.4305,-2.3649,-2.3102,-2.2672,-2.1265,-2.0281,0.0,0.0,0.0,0.0,0.0,0.0,-2.45,-2.5553,-2.6488,-2.7287,-2.7784,-2.8252,-2.8682,-2.8924,-2.9209,-2.9525,-2.9741,-2.9998,-3.024,-3.0333,-3.0297,-3.026,-3.0397,-3.0503,-3.0585,-3.0648,-3.0726,-3.0775,-3.0781,-3.0781,-3.0795,-3.0801,-3.075,-3.0684,-3.0626,-3.0456,-3.0252,-2.9977,-2.9732,-2.957,-2.9644,-2.975,-2.9817,-2.975,-2.9551,-2.4408,-1.0029,-0.6928,-0.0397,1.5107,1.879,2.1009,2.3421,2.5332,2.7091,2.8717,2.9815,2.9962,2.8994,0.0,0.0,2.6589,2.412,2.304,2.3621,1.6432,1.1827,0.9801,0.1302,-0.3201,-0.4053,-0.5644,-0.6712,-0.7714,-1.4474,-2.1892,-2.9288,-3.0067,-3.0404,-3.0501,-3.0761,-3.0853,-3.0867,-3.0859,-3.0515,-2.9807,-0.2915,-0.3291,-0.3754,-0.4274,-0.4964,-0.5892,-0.7469,-0.8854,-1.0401,-1.2306,-1.4279,-1.5974,-1.7097,-1.7978,-1.8787,-1.9726,-2.0677,-2.1628,-2.2641,-2.3258,-2.3865,-2.4527,-2.464,-2.4902,-2.5386,-2.4926,-2.4464,-2.3917,-2.3008,-2.2164,0.0,0.0,0.0,0.0,0.0,-2.4981,-2.6033,-2.6822,-2.7553,-2.8206,-2.8549,-2.8935,-2.9305,-2.9492,-2.9753,-3.0042,-3.02,-3.035,-3.0492,-3.0596,-3.0583,-3.0541,-3.0599,-3.0669,-3.0721,-3.0741,-3.0757,-3.074,-3.075,-3.072,-3.0678,-3.0671,-3.0626,-3.0539,-3.0428,-3.0312,-3.0098,-2.9836,-2.9589,-2.9453,-2.9474,-2.9513,-2.9513,-2.9377,-2.5637,-1.9184,-0.9044,-0.3277,0.4034,1.5133,1.7932,1.9862,2.196,2.4116,2.609,2.7743,2.9283,3.0053,2.9821,0.0,0.0,2.9031,0.0,2.7006,2.7346,2.4198,2.186,2.0219,1.1979,0.7762,0.7077,0.1661,-0.2031,-0.446,-1.0383,-1.4335,-1.6717,-1.8198,-1.883,-1.898,-2.0251,-2.0759,-2.0766,-2.0753,-2.0628,-2.035,-0.1402,-0.1951,-0.2597,-0.3132,-0.378,-0.476,-0.6218,-0.7681,-0.9147,-1.0645,-1.2845,-1.4848,-1.6412,-1.7285,-1.823,-1.9264,-2.0355,-2.1491,-2.2665,-2.3424,-2.4319,-2.5272,-2.543,-2.5856,-2.6698,-2.6423,-2.6107,-2.5749,-2.4865,-2.403,-2.3334,0.0,0.0,0.0,-2.5657,-2.6576,-2.7408,-2.7994,-2.8529,-2.9029,-2.9289,-2.9557,-2.9818,-2.9992,-3.0192,-3.0399,-3.0502,-3.0565,-3.0605,-3.0652,-3.0632,-3.062,-3.0673,-3.0721,-3.0742,-3.0747,-3.0685,-3.0615,-3.0615,-3.0558,-3.0501,-3.0479,-3.0422,-3.0362,-3.0203,-3.008,-2.9931,-2.9681,-2.9513,-2.9412,-2.9453,-2.9433,-2.8648,-2.6399,-2.1628,-1.4963,-0.5625,0.0436,0.6934,1.4935,1.7125,1.8718,2.0691,2.2869,2.4889,2.6568,2.8196,2.9433,3.015,0.0,0.0,0.0,0.0,0.0,2.889,2.8683,2.7948,2.6684,2.0567,1.746,1.683,0.9952,0.425,-0.0428,-0.4355,-0.6731,-0.7959,-0.9853,-1.0772,-1.1145,-1.2782,-1.3276,-1.3067,-1.294,-1.267,-1.2303,0.0358,-0.0626,-0.1522,-0.1879,-0.2728,-0.3644,-0.4679,-0.6095,-0.7558,-0.8851,-1.0735,-1.2927,-1.5417,-1.6715,-1.7813,-1.87,-1.9944,-2.1089,-2.2212,-2.3255,-2.4381,-2.5619,-2.6428,-2.7369,-2.834,-2.8255,-2.827,-2.8462,-2.6716,-2.5837,-2.5726,-2.5529,-2.5761,-2.6415,-2.7198,-2.7923,-2.8529,-2.9054,-2.9454,-2.9699,-2.9986,-3.0162,-3.0308,-3.036,-3.0482,-3.0602,-3.0605,-3.0599,-3.0608,-3.06,-3.0506,-3.0442,-3.0637,-3.0661,-3.0603,-3.0599,-3.0509,-3.0395,-3.0395,-3.0353,-3.0294,-3.022,-3.0151,-3.008,-2.9934,-2.9803,-2.9663,-2.9531,-2.9453,-2.9433,-2.9569,-2.9491,-2.7086,-1.9971,-1.8439,-1.3168,0.0981,0.3454,0.6701,1.4505,1.628,1.7707,1.9648,2.1583,2.3458,2.5209,2.6385,2.7871,2.9811,0.0,0.0,2.979,2.9658,0.0,2.9288,2.9213,2.864,2.7578,2.6079,2.5084,2.4469,2.1107,1.5188,0.747,0.582,0.0536,-0.7044,-0.8801,-0.9994,-1.0789,-1.1676,-1.1591,-1.0881,-1.0412,-0.9429,-0.8036,0.2149,0.1433,0.0717,0.0179,-0.1069,-0.2303,-0.3101,-0.4124,-0.5456,-0.7242,-0.917,-1.101,-1.2647,-1.4768,-1.6706,-1.8162,-1.9344,-2.076,-2.2408,-2.3551,-2.4724,-2.6028,-2.699,-2.7936,-2.8978,-2.9453,-2.9692,-2.9671,-2.9092,-2.8384,-2.7504,-2.7195,-2.7344,-2.7852,-2.8424,-2.8959,-2.94,-2.971,-2.9966,-3.0172,-3.0277,-3.0364,-3.0423,-3.041,-3.0435,-3.0466,-3.0419,-3.0366,-3.0318,-3.0224,-3.0094,-2.998,-2.9966,-3.0164,-3.0413,-3.04,-3.0239,-3.0068,-3.0068,-2.9975,-2.9893,-2.9861,-2.9815,-2.9732,-2.9589,-2.9454,-2.9351,-2.9349,-2.9347,-2.9368,-2.9451,-2.939,-2.7017,-1.9997,-1.4475,-0.7829,0.1571,0.7252,1.1484,1.4427,1.5429,1.6522,1.8128,2.0086,2.1863,2.3477,2.4632,2.6226,2.8349,0.0,0.0,0.0,2.9232,0.0,2.957,2.9787,2.9709,2.9376,2.8789,2.8024,2.7005,2.2378,1.9519,1.7952,1.3742,1.1176,0.9733,0.6912,0.5447,0.4709,0.267,0.2368,0.3151,0.3685,0.4676,0.5752,0.3583,0.3136,0.2599,0.1882,0.0537,-0.0626,-0.1433,-0.2592,-0.3815,-0.5068,-0.7161,-0.9146,-1.0658,-1.2921,-1.5191,-1.7326,-1.8926,-2.061,-2.2433,-2.3761,-2.5148,-2.6625,-2.767,-2.8685,-2.9805,-3.0501,-3.093,-3.106,-3.0924,-3.0211,-2.8905,-2.8879,-2.892,-2.9015,-2.9416,-2.9775,-3.0032,-3.0201,-3.0354,-3.0472,-3.0446,-3.0422,-3.0414,-3.0314,-3.0277,-3.024,-3.0175,-3.0094,-2.9594,-2.682,-2.5758,-2.5139,-2.2422,-2.1715,-2.2971,-2.842,-2.9877,-2.9727,-2.9725,-2.9623,-2.9533,-2.9551,-2.9513,-2.8734,-2.6003,-2.5301,-2.526,-2.5369,-2.5511,-2.5643,-2.5739,-2.5725,-2.2604,-1.3153,-0.9609,-0.4625,0.507,1.0493,1.3683,1.441,1.504,1.5938,1.7335,1.9044,2.0603,2.1993,2.3018,2.4255,0.0,0.0,2.7756,2.8094,2.8581,2.9061,2.9589,2.9964,3.0091,2.9978,2.9457,2.8569,2.7192,2.3598,2.2399,2.2985,1.9124,1.7945,1.8386,1.5519,1.3949,1.3074,1.1119,1.0994,1.194,1.2728,1.3812,1.4804,0.4837,0.4567,0.4119,0.3224,0.2238,0.1253,0.0269,-0.1254,-0.2416,-0.2765,-0.4896,-0.7144,-0.9242,-1.1112,-1.3422,-1.6367,-1.8583,-2.0534,-2.2384,-2.4058,-2.5713,-2.7282,-2.8481,-2.9592,-3.0751,-3.1363,-3.1967,-3.2623,-3.2254,-3.1401,-3.0068,-3.0519,-3.0409,-2.9855,-3.0182,-3.0362,-3.0441,-3.0547,-3.0609,-3.0584,-3.052,-3.0404,-3.026,-3.0129,-3.0029,-2.9956,-2.9874,-2.9448,-2.7884,-2.1191,-1.841,-1.6652,-1.0211,-0.801,-1.0495,-2.413,-2.8019,-2.7911,-2.7917,-2.8215,-2.8529,-2.8529,-2.8482,-2.673,-2.0173,-1.8266,-1.7933,-1.8123,-1.8461,-1.8803,-1.8934,-1.8966,-1.4859,-0.2215,-0.4815,-0.369,0.9924,1.2282,1.3075,1.4332,1.5001,1.5864,1.7034,1.8401,1.9634,2.0703,2.154,2.2118,0.0,0.0,2.6284,2.6926,2.7695,2.8506,2.9293,2.9817,2.9919,2.9617,2.8651,2.7388,2.5849,2.4974,2.4217,2.356,2.2308,2.1195,2.0092,1.7906,1.6396,1.5305,1.443,1.4807,1.5976,1.7047,1.8343,1.9549,0.6337,0.5808,0.5186,0.4563,0.3578,0.2594,0.1701,0.0627,-0.0537,-0.1968,-0.2926,-0.4202,-0.6446,-0.9208,-1.2087,-1.4904,-1.7833,-2.0501,-2.2747,-2.4633,-2.6376,-2.7972,-2.9233,-3.0393,-3.1448,-3.2039,-3.2755,-3.3561,-3.3068,-3.2425,-3.1657,-3.1366,-3.0893,-3.0279,-3.0447,-3.0573,-3.063,-3.066,-3.0652,-3.0599,-3.0413,-3.0235,-3.0048,-2.9807,-2.9641,-2.9514,-2.9341,-2.5744,-2.0783,-1.8837,-1.4358,-0.9279,-0.7494,-0.6868,-0.7708,-1.2118,-1.3231,-1.301,-1.3167,-1.6953,-2.0837,-2.0837,-2.0857,-2.0432,-1.8788,-1.4349,-1.0654,-1.0925,-1.1094,-1.1281,-1.1634,-1.1769,-1.0784,-0.7516,-0.793,-0.5548,0.36,0.5377,0.7839,1.3593,1.4824,1.5575,1.6415,1.7567,1.8638,1.9697,2.0333,2.0832,2.121,2.2403,2.3794,2.5366,2.6485,2.7507,2.839,2.9278,2.9777,2.9904,2.9351,2.8654,2.7788,2.6636,2.6017,2.5826,2.4175,2.3182,2.2643,2.0312,1.8927,1.8312,1.731,1.7557,1.8602,1.9369,2.0571,2.1713,0.7566,0.7217,0.6691,0.6068,0.5265,0.4374,0.3484,0.2592,0.1609,0.0447,-0.0535,-0.2037,-0.4282,-0.6978,-0.9979,-1.3478,-1.7392,-2.0757,-2.3372,-2.557,-2.7493,-2.9093,-3.031,-3.1379,-3.2307,-3.2791,-3.3433,-3.4207,-3.4043,-3.3467,-3.2516,-3.2293,-3.1588,-3.0545,-3.0645,-3.0697,-3.0699,-3.0632,-3.0549,-3.0432,-3.0185,-2.9902,-2.9303,-2.5895,-2.4442,-2.3797,-2.0368,-1.6561,-1.2651,-0.905,-0.5092,-0.109,0.2229,0.3363,0.3251,0.2384,-0.2339,-0.7387,-0.7464,-1.0215,-1.3091,-1.3223,-1.0965,-0.8712,-0.876,-0.8326,-0.7982,-0.8212,-0.8473,-0.8719,-0.8952,-0.6663,-0.4781,-0.487,-0.7216,-0.6408,0.1155,0.282,0.6014,1.3514,1.501,1.571,1.6379,1.7268,1.8147,1.9081,1.9565,0.0,2.0422,2.1077,2.2249,2.4095,2.5399,2.6548,2.7596,2.8865,2.9664,2.9951,2.9698,2.9323,2.8842,2.7824,2.72,2.6813,2.5239,2.4265,2.3603,2.1638,2.0673,2.033,1.9597,1.9889,2.0686,2.117,2.2086,2.2965,0.8956,0.8794,0.8452,0.7822,0.7291,0.6584,0.5606,0.4807,0.4098,0.3566,0.2227,0.0445,-0.1954,-0.4244,-0.7358,-1.1883,-1.6636,-2.0765,-2.4023,-2.6564,-2.8709,-3.0389,-3.1493,-3.2432,-3.3277,-3.3622,-3.4127,-3.4725,-3.495,-3.4332,-3.2931,-3.305,-3.2241,-3.0698,-3.074,-3.0735,-3.0658,-3.0496,-3.0342,-3.0183,-2.9832,-2.8877,-2.6972,-2.0813,-1.7597,-1.5572,-0.9364,-0.6317,-0.4289,0.2075,0.5115,0.7223,1.3243,1.5245,1.5352,1.5069,0.6287,-0.3306,-0.3413,-0.4322,-0.553,-0.6914,-0.2164,0.2801,0.2613,-0.108,-0.4596,-0.478,-0.5176,-0.5466,-0.5592,-0.1161,0.2031,0.0795,-0.4017,-0.5327,0.1171,0.2733,0.6072,1.3857,1.5313,1.5961,1.6524,1.7179,1.7897,1.8625,1.9105,1.9525,1.9939,2.0321,2.1239,2.2864,2.424,2.5584,2.6966,2.8477,2.9444,2.9859,2.9829,2.9635,2.9314,2.8609,2.785,2.7005,2.5735,2.4619,2.3661,2.2289,2.1704,2.1602,2.1251,2.15,2.21,2.2314,2.2817,2.3346,1.1123,1.0778,1.0524,1.0341,0.9812,0.9196,0.8562,0.8039,0.7337,0.6189,0.6025,0.5053,0.2567,-0.0594,-0.4575,-0.9508,-1.4702,-1.9588,-2.408,-2.7152,-2.97,-3.1724,-3.2679,-3.3497,-3.4175,-3.4626,-3.5013,-3.5288,-3.5373,-3.4605,-3.3062,-3.3086,-3.2211,-3.0626,-3.0623,-3.0547,-3.0423,-3.024,-3.0013,-2.9761,-2.9439,-2.5566,-1.9857,-1.8389,-1.394,-0.8302,-0.6949,-0.2469,0.3029,0.4416,0.9042,1.4477,1.5753,1.6239,1.6343,1.6192,1.4439,1.2384,1.1576,0.7072,0.1112,-0.5048,-0.1514,0.3387,0.3089,0.6658,0.9959,0.9791,0.9571,0.9401,0.9212,0.9701,0.8206,0.2419,0.0764,0.0806,0.2566,0.3574,0.6837,1.4255,1.5546,1.5961,1.6296,1.6786,1.739,1.8159,1.8762,1.9251,1.9668,2.0029,2.0497,2.0988,2.2493,2.4426,2.6807,2.7922,2.8868,2.9647,2.9803,2.9745,2.9437,2.8615,2.7738,2.6854,2.535,2.4215,2.3391,2.2374,2.1935,2.1949,2.1746,2.1841,2.2016,2.1935,2.2203,2.2526,1.3002,1.2911,1.2741,1.2565,1.2207,1.1759,1.1486,1.1134,1.068,1.0032,0.9542,0.8245,0.5692,0.2955,-0.1063,-0.6729,-1.1847,-1.7196,-2.299,-2.7498,-3.083,-3.293,-3.3679,-3.432,-3.4924,-3.5224,-3.5412,-3.5511,-3.5505,-3.4635,-3.2981,-3.2955,-3.2027,-3.038,-3.0347,-3.0263,-3.012,-2.9912,-2.755,-2.3892,-2.3545,-1.8998,-1.1987,-0.7822,-0.3865,-0.0046,0.4058,0.7756,1.0855,1.1148,1.3516,1.641,1.6534,1.6591,1.6581,1.6524,1.6249,1.5894,1.5371,1.2819,0.9432,0.6001,0.7343,0.9388,0.9071,0.8484,0.807,0.797,0.7807,0.7695,0.77,1.021,1.0157,0.3516,0.2376,0.2633,0.3471,0.4118,0.7246,1.4706,1.5778,1.6029,1.6306,1.6637,1.7067,1.782,1.8429,1.8975,1.9473,1.9811,2.0055,2.0156,2.2108,2.4138,2.6224,2.7483,2.8534,2.9441,2.9783,2.9832,2.9588,2.8669,2.771,2.6646,2.535,2.4256,2.3319,2.2558,2.2296,2.2342,2.217,2.2231,2.2278,2.1996,2.2044,2.2137,1.4956,1.5094,1.5155,1.5079,1.4885,1.4691,1.4448,1.4261,1.413,1.4062,1.322,1.1679,0.9159,0.6615,0.2528,-0.3579,-0.8709,-1.4555,-2.146,-2.6835,-3.0991,-3.3799,-3.4545,-3.5078,-3.548,-3.5563,-3.5576,-3.5545,-3.5461,-3.4507,-3.2783,-3.2708,-3.1732,-3.0062,-2.997,-2.8976,-2.7345,-2.7149,-2.2954,-1.642,-1.5997,-1.1361,-0.4054,0.1707,0.5387,0.8189,1.3848,1.6056,1.64,1.6627,1.6797,1.6864,1.692,1.692,1.6853,1.674,1.6353,1.5972,1.5914,1.572,1.5478,1.5205,1.4961,1.4588,1.424,1.0003,0.6163,0.6163,0.6007,0.5954,0.6114,0.9921,1.1434,0.6436,0.5481,0.5641,0.6504,0.6914,0.9351,1.5251,1.5951,1.6019,1.6316,1.6467,1.6842,1.7501,1.8159,1.875,1.9303,1.9656,1.985,1.9965,2.1857,2.3663,2.5317,2.6854,2.8124,2.9129,2.9718,2.9913,2.9731,2.8787,2.7822,2.6759,2.5661,2.465,2.3706,2.3098,2.286,2.2875,2.2678,2.2646,2.2692,2.231,2.217,2.2123,1.6738,1.7284,1.7751,1.8186,1.816,1.8054,1.7903,1.7823,1.7869,1.7951,1.7456,1.6186,1.4138,1.0493,0.5873,0.0081,-0.5573,-1.2011,-1.9592,-2.4383,-2.9089,-3.4055,-3.5196,-3.5722,-3.5769,-3.565,-3.5549,-3.5414,-3.5215,-3.4216,-3.2425,-3.2291,-3.1313,-2.9639,-2.9513,-2.5863,-1.978,-1.9581,-1.5408,-0.8847,-0.8312,-0.3536,0.345,0.4496,0.9379,1.5808,1.6497,1.692,1.7134,1.7134,1.7368,1.759,1.7479,1.7534,1.7534,1.7123,1.6694,1.6374,1.6327,1.6192,1.5999,1.573,1.5488,1.5235,1.4765,1.4264,1.3902,1.3902,1.3776,1.3658,1.3717,1.3817,1.376,1.328,0.0,0.0,1.4059,1.4533,1.5195,1.5968,1.6114,1.6114,1.6114,1.64,1.6797,1.719,1.8061,1.8762,1.9186,1.9592,1.9952,2.0321,2.1126,2.2292,2.3845,2.5802,2.742,2.866,2.957,2.9969,2.9845,2.8968,2.8182,2.7467,2.652,2.5619,2.4721,2.4148,2.3749,2.3508,2.3304,2.3172,2.3038,2.2754,2.2663,2.2618,1.829,1.8982,1.9681,2.0227,2.0439,2.043,2.0352,2.0641,2.106,2.1732,2.1627,2.069,1.8602,1.5221,1.0935,0.5644,0.0817,-0.647,-1.7105,-2.0535,-2.5982,-3.4613,-3.5315,-3.5495,-3.5503,-3.5433,-3.5329,-3.5162,-3.4923,-3.3866,-3.2089,-3.1907,-3.0924,-2.928,-2.9114,-2.5108,-1.8484,-1.819,-1.1411,-0.0854,-0.0333,0.4455,1.1327,1.1889,1.4234,1.719,1.7412,1.7623,1.7843,1.7799,1.7909,1.8018,1.7799,1.7755,1.759,1.7123,1.6899,1.6751,1.6581,1.642,1.6249,1.6009,1.5826,1.5642,1.5371,1.5245,1.5118,1.5118,1.501,1.4961,1.5059,1.4834,1.4675,1.4734,0.0,1.4883,1.5177,1.5488,1.5788,1.6056,1.6114,1.6171,1.64,1.6684,1.7011,1.7457,1.8267,1.8869,1.9174,1.9656,2.0131,2.051,2.1307,2.2383,2.3808,2.5797,2.7393,2.8665,2.9578,3.0036,3.0061,2.9364,2.8691,2.8108,2.7391,2.6602,2.5851,2.5207,2.4673,2.4241,2.3867,2.3625,2.3377,2.3172,2.3083,2.3083,1.9743,2.071,2.1628,2.2296,2.2658,2.2933,2.3007,2.3341,2.4008,2.5081,2.5394,2.4829,2.3007,2.0154,1.66,1.1964,0.8456,0.2037,-0.8327,-1.4554,-2.2881,-3.4259,-3.4734,-3.4772,-3.4863,-3.4874,-3.4827,-3.4699,-3.4145,-3.3115,-3.1594,-3.1072,-3.0081,-2.8627,-2.6145,-2.1158,-1.4396,-1.1806,-0.3805,0.7186,0.777,1.1263,1.6177,1.6708,1.7346,1.7909,1.8127,1.8344,1.8506,1.8398,1.8452,1.8494,1.8236,1.8018,1.7744,1.7357,1.7179,1.7067,1.6786,1.6637,1.6524,1.6171,1.6046,1.5941,1.5788,1.5662,1.5546,1.5546,1.5498,1.5439,1.5488,1.5313,1.5264,1.5323,1.5371,1.542,1.5546,1.5672,1.5846,1.6056,1.6171,1.64,1.6684,1.7067,1.7446,1.7831,1.8536,1.9121,1.95,2.0016,2.051,2.0979,2.1918,2.3069,2.4324,2.5916,2.7363,2.8621,2.9537,3.0057,3.0169,2.9711,2.9249,2.8817,2.8247,2.7628,2.6988,2.632,2.574,2.5173,2.4688,2.4271,2.3937,2.3696,2.3538,2.3451,2.1043,2.2382,2.3734,2.4564,2.5181,2.5578,2.5775,2.6058,2.6729,2.8079,2.8609,2.847,2.7252,2.5307,2.2649,1.9134,1.7105,1.3515,0.7797,-0.6287,-1.9998,-3.2497,-3.3328,-3.3576,-3.3788,-3.3906,-3.3966,-3.3987,-3.2915,-3.1847,-3.0784,-2.9658,-2.8592,-2.7401,-2.0071,-1.2965,-0.6007,0.1364,0.8624,1.5148,1.5833,1.6574,1.7257,1.7733,1.829,1.8798,1.8798,1.8893,1.8987,1.8987,1.8987,1.8999,1.8851,1.8506,1.805,1.7755,1.759,1.7412,1.7123,1.7011,1.6842,1.6285,1.6114,1.6056,1.5972,1.5924,1.5924,1.5924,1.5924,1.5856,1.573,1.574,1.574,1.574,1.5672,1.573,1.5856,1.5914,1.5961,1.6114,1.64,1.6684,1.7011,1.7567,1.8007,1.8278,1.8869,1.95,2.0182,2.0709,2.1307,2.1885,2.301,2.4153,2.5313,2.6165,2.7228,2.8409,2.9418,2.9997,3.0194,2.999,2.9791,2.9568,2.9103,2.8638,2.8156,2.7555,2.6946,2.6353,2.573,2.5214,2.4775,2.4426,2.4094,2.3782,2.2271,2.3441,2.4624,2.5557,2.6227,2.6815,2.7206,2.8085,2.9175,3.0382,3.1445,3.1607,3.0386,2.9273,2.7376,2.4218,2.2046,1.7336,0.8993,-0.629,-1.4029,-1.179,-2.422,-2.8677,-2.327,-2.9251,-3.2589,-3.2883,-3.1905,-2.8337,-2.2387,-2.129,-1.764,-1.1859,-0.9571,-0.4617,0.21,0.4511,0.9844,1.6631,1.7013,1.7523,1.8135,1.8548,1.8827,1.9093,1.921,1.9316,1.9408,1.921,1.921,1.921,1.8905,1.8625,1.8441,1.8247,1.8139,1.8084,1.7733,1.7623,1.7457,1.6751,1.6581,1.6581,1.6534,1.6534,1.6477,1.641,1.641,1.6353,1.6353,1.6249,1.6202,1.6202,1.6077,1.5951,1.5914,1.5914,1.6029,1.6249,1.6627,1.7067,1.7567,1.8182,1.8614,1.8922,1.9448,1.9978,2.0459,2.121,2.1965,2.2714,2.3796,2.4907,2.599,2.6771,2.762,2.855,2.9363,2.9892,3.014,3.0065,3.0059,3.0078,2.978,2.9432,2.8996,2.8443,2.7817,2.7183,2.6521,2.5936,2.5363,2.4855,2.4461,2.4094,2.3557,2.4541,2.5697,2.6607,2.7404,2.8168,2.887,2.9992,3.1249,3.2504,3.373,3.4056,3.2984,3.265,3.1585,2.9211,2.7561,2.2779,1.3582,0.307,-0.0696,0.3997,-1.3288,-2.1355,-1.7807,-2.3092,-2.7621,-3.115,-2.7293,-2.2749,-1.7525,-1.3545,-0.905,-0.4297,-0.1284,0.2375,0.6552,0.9653,1.3537,1.7754,1.8081,1.8513,1.8963,1.9344,1.95,1.9604,1.9811,1.9862,1.9823,1.972,1.9617,1.9512,1.9158,1.8999,1.8881,1.8774,1.8721,1.8667,1.8344,1.8236,1.8127,1.7634,1.7256,1.692,1.6909,1.6864,1.6751,1.6694,1.6694,1.6637,1.6637,1.6524,1.6488,1.6431,1.6363,1.6239,1.6144,1.6202,1.6363,1.6591,1.7078,1.7567,1.8116,1.8679,1.9158,1.9448,1.9862,2.0372,2.0917,2.1885,2.2832,2.3688,2.4721,2.5701,2.6623,2.727,2.7933,2.8612,2.9283,2.9711,2.9981,3.0052,3.0167,3.0292,3.0172,2.9952,2.9641,2.9173,2.8685,2.8128,2.7494,2.6888,2.632,2.5724,2.5217,2.4792,2.4835,2.5709,2.6756,2.7709,2.8573,2.956,3.0616,3.1749,3.2982,3.4378,3.546,3.5797,3.4978,3.5255,3.4972,3.363,3.287,2.9023,2.0927,1.793,1.6267,1.5824,-0.0521,-1.0872,-1.3587,-1.5691,-2.0076,-2.6913,-1.9357,-1.4967,-1.3518,-0.5732,-0.1767,-0.0851,0.58,0.8704,0.8999,1.5771,1.8632,1.8685,1.9121,1.9448,1.9759,2.0118,2.0283,2.0271,2.056,2.0472,2.0233,2.0372,2.0169,1.9811,1.9512,1.9473,1.9408,1.9291,1.9226,1.9186,1.8946,1.8851,1.8851,1.8667,1.7952,1.7301,1.7123,1.7022,1.6864,1.6864,1.6874,1.6807,1.6684,1.6694,1.6637,1.6488,1.6581,1.6581,1.6488,1.6705,1.692,1.7067,1.7623,1.8127,1.8614,1.9093,1.9565,1.9811,2.022,2.0795,2.152,2.2653,2.3719,2.4712,2.5635,2.6454,2.7085,2.7607,2.8102,2.8572,2.9087,2.9483,2.9742,2.9956,3.0137,3.0266,3.0283,3.0224,3.0081,2.9786,2.9475,2.9139,2.8549,2.8003,2.7472,2.6905,2.6337,2.5721,2.6058,2.6633,2.7323,2.8026,2.8994,3.0025,3.1245,3.2767,3.4234,3.5474,3.6016,3.6096,3.5702,3.5605,3.5317,3.4641,3.3996,3.2468,2.9715,2.2071,2.0161,2.5773,1.5466,0.9029,0.7824,-0.7569,-1.3416,-0.9066,-0.7007,-0.3025,0.2725,0.5305,0.9463,1.4903,1.6356,1.7002,1.7099,1.8678,1.954,1.9862,2.0067,2.0308,2.0547,2.0746,2.0746,2.0709,2.0845,2.0759,2.0472,2.0271,2.0182,2.0067,1.9901,1.985,1.9837,1.985,1.9695,1.9512,1.946,1.9368,1.921,1.8987,1.8667,1.8356,1.7941,1.7788,1.7634,1.7545,1.749,1.7479,1.7301,1.7211,1.7099,1.6909,1.6899,1.6899,1.6842,1.7134,1.7423,1.7534,1.8073,1.856,1.8881,1.9396,1.9811,2.0067,2.056,2.1175,2.1927,2.3113,2.4112,2.491,2.5835,2.6573,2.7085,2.7535,2.7933,2.8282,2.8785,2.9058,2.9195,2.9544,2.9798,2.9988,3.0203,3.0274,3.0251,3.0224,3.0094,2.9833,2.944,2.9008,2.8493,2.7859,2.7239,2.6584,2.7126,2.7564,2.8235,2.8817,2.9842,3.094,3.2118,3.3743,3.52,3.6288,3.6519,3.6465,3.6172,3.5941,3.5624,3.5176,3.4728,3.4122,3.3276,2.8129,2.6695,3.0275,2.158,1.802,2.0983,0.6407,-0.3161,-0.7026,-0.0185,0.3477,0.4225,1.1893,1.7434,2.0966,2.0868,2.0733,2.066,2.056,2.066,2.0795,2.1042,2.1188,2.1299,2.1609,2.1575,2.1396,2.1589,2.1431,2.1104,2.0772,2.0686,2.0673,2.0497,2.0497,2.0434,2.0396,2.0308,2.0156,2.0016,1.9914,1.9823,1.9565,1.9356,1.9093,1.8387,1.8073,1.7909,1.781,1.7755,1.7656,1.7523,1.7423,1.7312,1.7134,1.719,1.7245,1.7301,1.759,1.7865,1.8084,1.8506,1.8934,1.9251,1.9668,2.0029,2.0271,2.093,2.1677,2.2392,2.352,2.4471,2.5192,2.5941,2.6521,2.6891,2.7338,2.7689,2.7911,2.8414,2.8731,2.8856,2.9248,2.9538,2.9775,3.0081,3.0273,3.0392,3.0427,3.0392,3.0267,2.9989,2.9698,2.9371,2.8835,2.8161,2.7472,2.804,2.8546,2.9121,2.9699,3.0793,3.1942,3.3072,3.4584,3.5908,3.6803,3.6791,3.6625,3.6436,3.6102,3.5771,3.5483,3.522,3.4812,3.4289,3.3545,3.2857,3.2172,2.4479,2.2869,2.8573,2.0596,0.9401,-0.4828,0.6684,0.9474,0.4315,1.6769,2.2606,2.256,2.2438,2.2207,2.2002,2.1874,2.1766,2.1704,2.1988,2.2081,2.2109,2.2512,2.2466,2.2217,2.2449,2.2278,2.1888,2.1471,2.1326,2.1326,2.1153,2.1091,2.1091,2.0957,2.0894,2.0809,2.0573,2.0472,2.0422,2.0131,1.9978,1.9656,1.8786,1.8344,1.8061,1.8018,1.7909,1.781,1.7689,1.7634,1.7579,1.7412,1.7523,1.77,1.781,1.803,1.8302,1.8614,1.8893,1.9198,1.9617,1.9875,2.0182,2.0523,2.1293,2.2132,2.2846,2.3849,2.4704,2.5339,2.5921,2.64,2.6657,2.7103,2.7434,2.7557,2.8025,2.8362,2.8594,2.892,2.9198,2.9457,2.9829,3.0124,3.038,3.0436,3.0456,3.0428,3.0281,3.0166,3.0016,2.9636,2.9045,2.8367,2.9049,2.9324,2.9856,3.0435,3.1516,3.2632,3.3806,3.5143,3.6253,3.6995,3.6361,3.6036,3.6443,3.5886,3.5535,3.5644,3.5403,3.5133,3.4813,3.4433,3.4017,3.3626,3.1301,3.0226,3.0709,2.762,2.4,1.9867,2.1384,2.1527,2.0556,2.2795,2.3758,2.3603,2.346,2.32,2.2907,2.2698,2.2682,2.2801,2.2846,2.298,2.3187,2.3275,2.3143,2.2949,2.2994,2.2768,2.2417,2.2044,2.1902,2.1841,2.1602,2.1506,2.1506,2.1506,2.1313,2.1131,2.0934,2.0822,2.066,2.0283,2.0182,2.0016,1.9565,1.9146,1.8774,1.856,1.8506,1.8452,1.8313,1.8259,1.8205,1.803,1.815,1.8259,1.8313,1.853,1.8744,1.8744,1.9105,1.946,1.9759,2.0118,2.0573,2.1033,2.1813,2.2512,2.3216,2.4051,2.4686,2.5146,2.5717,2.6189,2.6453,2.6923,2.723,2.7434,2.7557,2.7795,2.8109,2.844,2.8639,2.8759,2.9263,2.9658,2.992,3.0151,3.023,3.0255,3.0341,3.0335,3.0212,2.994,2.966,2.9326,2.9687,3.0176,3.0793,3.1516,3.2692,3.3859,3.4885,3.6027,3.6869,3.7356,3.6558,3.6091,3.6621,3.5987,3.5586,3.5735,3.5581,3.5391,3.5193,3.4977,3.4718,3.4478,3.3336,3.2329,3.1407,2.9827,2.818,2.6415,2.5443,2.2778,1.8665,2.3111,2.5109,2.4971,2.4885,2.465,2.4337,2.4061,2.3926,2.3861,2.3975,2.3991,2.3964,2.4063,2.3937,2.3739,2.3566,2.3348,2.3127,2.2814,2.2632,2.2434,2.2217,2.2137,2.2044,2.1949,2.1841,2.1712,2.152,2.141,2.1251,2.0785,2.0636,2.0536,2.0118,1.9914,1.9604,1.9028,1.8881,1.8827,1.8732,1.8732,1.8732,1.8625,1.8679,1.8774,1.8827,1.8999,1.9158,1.9263,1.9525,1.9772,1.9875,2.0435,2.0934,2.1375,2.2249,2.2934,2.3334,2.412,2.4726,2.5029,2.5567,2.5974,2.6295,2.6691,2.6973,2.7201,2.723,2.7448,2.7795,2.8007,2.8201,2.8384,2.8856,2.9263,2.9604,2.992,3.01,3.021,3.0354,3.0378,3.0337,3.0189,3.0052,2.9897]}]]